<?xml version="1.0" encoding="UTF-8" standalone="no" ?>
<gpx xmlns="http://www.topografix.com/GPX/1/1" xmlns:xsi="http://www.w3.org/2001/XMLSchema-instance" xsi:schemaLocation="http://www.topografix.com/GPX/1/1 http://www.topografix.com/GPX/1/1/gpx.xsd" version="1.1" creator="VisuGPX - https://www.visugpx.com">
  <metadata>
    <name>First Mini tour</name>
    <desc><![CDATA[Jour d'achat du Rockrider ST120.
Reprise du vélo après 30 ans d'arrêt.
Penser à acheter un éclairage...]]></desc>
  </metadata>
  <trk>
    <name><![CDATA[Mini tour]]></name>
    <extensions>
      <line xmlns="http://www.topografix.com/GPX/gpx_style/0/2">
        <color>0000FF</color>
        <width>4</width>
      </line>
    </extensions>
    <trkseg>
      <trkpt lat="50.44965" lon="3.5264">
        <ele>29.3</ele>
        <time>2021-09-03T18:11:45.000Z</time>
      </trkpt>
      <trkpt lat="50.44959" lon="3.52645">
        <ele>29.6</ele>
        <time>2021-09-03T18:11:46.557Z</time>
      </trkpt>
      <trkpt lat="50.4495" lon="3.52649">
        <ele>29.9</ele>
        <time>2021-09-03T18:11:48.948Z</time>
      </trkpt>
      <trkpt lat="50.44946" lon="3.52652">
        <ele>30</ele>
        <time>2021-09-03T18:11:50.355Z</time>
      </trkpt>
      <trkpt lat="50.44937" lon="3.52659">
        <ele>30</ele>
        <time>2021-09-03T18:11:53.116Z</time>
      </trkpt>
      <trkpt lat="50.44932" lon="3.52662">
        <ele>30</ele>
        <time>2021-09-03T18:11:54.438Z</time>
      </trkpt>
      <trkpt lat="50.44928" lon="3.52665">
        <ele>30</ele>
        <time>2021-09-03T18:11:56.000Z</time>
      </trkpt>
      <trkpt lat="50.44922" lon="3.5267">
        <ele>30</ele>
        <time>2021-09-03T18:11:58.000Z</time>
      </trkpt>
      <trkpt lat="50.44916" lon="3.52675">
        <ele>30</ele>
        <time>2021-09-03T18:11:59.411Z</time>
      </trkpt>
      <trkpt lat="50.44912" lon="3.52678">
        <ele>30</ele>
        <time>2021-09-03T18:12:01.000Z</time>
      </trkpt>
      <trkpt lat="50.44905" lon="3.52683">
        <ele>30</ele>
        <time>2021-09-03T18:12:03.000Z</time>
      </trkpt>
      <trkpt lat="50.44894" lon="3.52692">
        <ele>30</ele>
        <time>2021-09-03T18:12:05.351Z</time>
      </trkpt>
      <trkpt lat="50.44887" lon="3.52699">
        <ele>29.9</ele>
        <time>2021-09-03T18:12:08.000Z</time>
      </trkpt>
      <trkpt lat="50.44877" lon="3.52706">
        <ele>29.8</ele>
        <time>2021-09-03T18:12:10.193Z</time>
      </trkpt>
      <trkpt lat="50.44872" lon="3.52709">
        <ele>29.7</ele>
        <time>2021-09-03T18:12:12.000Z</time>
      </trkpt>
      <trkpt lat="50.44867" lon="3.52712">
        <ele>29.7</ele>
        <time>2021-09-03T18:12:13.000Z</time>
      </trkpt>
      <trkpt lat="50.44859" lon="3.52717">
        <ele>29.8</ele>
        <time>2021-09-03T18:12:14.513Z</time>
      </trkpt>
      <trkpt lat="50.44853" lon="3.52721">
        <ele>30</ele>
        <time>2021-09-03T18:12:15.990Z</time>
      </trkpt>
      <trkpt lat="50.44848" lon="3.52724">
        <ele>30</ele>
        <time>2021-09-03T18:12:17.198Z</time>
      </trkpt>
      <trkpt lat="50.44844" lon="3.52727">
        <ele>30.1</ele>
        <time>2021-09-03T18:12:18.311Z</time>
      </trkpt>
      <trkpt lat="50.44839" lon="3.5273">
        <ele>30.2</ele>
        <time>2021-09-03T18:12:19.519Z</time>
      </trkpt>
      <trkpt lat="50.44834" lon="3.52733">
        <ele>30.4</ele>
        <time>2021-09-03T18:12:20.838Z</time>
      </trkpt>
      <trkpt lat="50.4483" lon="3.52736">
        <ele>30.5</ele>
        <time>2021-09-03T18:12:22.053Z</time>
      </trkpt>
      <trkpt lat="50.44823" lon="3.52741">
        <ele>30.7</ele>
        <time>2021-09-03T18:12:24.318Z</time>
      </trkpt>
      <trkpt lat="50.44816" lon="3.52746">
        <ele>30.9</ele>
        <time>2021-09-03T18:12:26.574Z</time>
      </trkpt>
      <trkpt lat="50.44811" lon="3.52749">
        <ele>31</ele>
        <time>2021-09-03T18:12:28.398Z</time>
      </trkpt>
      <trkpt lat="50.44805" lon="3.52752">
        <ele>31</ele>
        <time>2021-09-03T18:12:31.000Z</time>
      </trkpt>
      <trkpt lat="50.448" lon="3.52756">
        <ele>31.2</ele>
        <time>2021-09-03T18:12:32.021Z</time>
      </trkpt>
      <trkpt lat="50.44795" lon="3.52759">
        <ele>31.3</ele>
        <time>2021-09-03T18:12:33.554Z</time>
      </trkpt>
      <trkpt lat="50.44789" lon="3.52764">
        <ele>31.3</ele>
        <time>2021-09-03T18:12:35.977Z</time>
      </trkpt>
      <trkpt lat="50.44784" lon="3.52767">
        <ele>31.3</ele>
        <time>2021-09-03T18:12:38.000Z</time>
      </trkpt>
      <trkpt lat="50.44777" lon="3.5277">
        <ele>31.3</ele>
        <time>2021-09-03T18:12:39.860Z</time>
      </trkpt>
      <trkpt lat="50.44771" lon="3.52773">
        <ele>31.4</ele>
        <time>2021-09-03T18:12:42.000Z</time>
      </trkpt>
      <trkpt lat="50.44766" lon="3.52776">
        <ele>31.5</ele>
        <time>2021-09-03T18:12:43.218Z</time>
      </trkpt>
      <trkpt lat="50.44757" lon="3.5278">
        <ele>31.8</ele>
        <time>2021-09-03T18:12:46.232Z</time>
      </trkpt>
      <trkpt lat="50.4475" lon="3.52784">
        <ele>32</ele>
        <time>2021-09-03T18:12:49.000Z</time>
      </trkpt>
      <trkpt lat="50.44742" lon="3.52787">
        <ele>32.4</ele>
        <time>2021-09-03T18:12:50.994Z</time>
      </trkpt>
      <trkpt lat="50.44735" lon="3.52791">
        <ele>32.8</ele>
        <time>2021-09-03T18:12:53.559Z</time>
      </trkpt>
      <trkpt lat="50.44729" lon="3.52793">
        <ele>33.2</ele>
        <time>2021-09-03T18:12:55.940Z</time>
      </trkpt>
      <trkpt lat="50.44722" lon="3.52794">
        <ele>33.6</ele>
        <time>2021-09-03T18:12:59.000Z</time>
      </trkpt>
      <trkpt lat="50.44716" lon="3.52794">
        <ele>33.7</ele>
        <time>2021-09-03T18:13:01.194Z</time>
      </trkpt>
      <trkpt lat="50.4471" lon="3.52797">
        <ele>33.8</ele>
        <time>2021-09-03T18:13:04.000Z</time>
      </trkpt>
      <trkpt lat="50.44704" lon="3.52797">
        <ele>33.9</ele>
        <time>2021-09-03T18:13:05.656Z</time>
      </trkpt>
      <trkpt lat="50.44697" lon="3.52797">
        <ele>34</ele>
        <time>2021-09-03T18:13:08.222Z</time>
      </trkpt>
      <trkpt lat="50.44687" lon="3.52799">
        <ele>34.3</ele>
        <time>2021-09-03T18:13:12.000Z</time>
      </trkpt>
      <trkpt lat="50.4468" lon="3.52801">
        <ele>34.5</ele>
        <time>2021-09-03T18:13:14.254Z</time>
      </trkpt>
      <trkpt lat="50.44672" lon="3.52802">
        <ele>34.8</ele>
        <time>2021-09-03T18:13:16.878Z</time>
      </trkpt>
      <trkpt lat="50.44668" lon="3.52803">
        <ele>35</ele>
        <time>2021-09-03T18:13:18.511Z</time>
      </trkpt>
      <trkpt lat="50.44662" lon="3.52803">
        <ele>35</ele>
        <time>2021-09-03T18:13:20.355Z</time>
      </trkpt>
      <trkpt lat="50.44656" lon="3.52802">
        <ele>35</ele>
        <time>2021-09-03T18:13:23.000Z</time>
      </trkpt>
      <trkpt lat="50.44648" lon="3.52802">
        <ele>35.1</ele>
        <time>2021-09-03T18:13:25.213Z</time>
      </trkpt>
      <trkpt lat="50.44642" lon="3.52803">
        <ele>35.1</ele>
        <time>2021-09-03T18:13:27.946Z</time>
      </trkpt>
      <trkpt lat="50.44635" lon="3.52801">
        <ele>35.3</ele>
        <time>2021-09-03T18:13:31.000Z</time>
      </trkpt>
      <trkpt lat="50.44628" lon="3.52799">
        <ele>35.5</ele>
        <time>2021-09-03T18:13:33.399Z</time>
      </trkpt>
      <trkpt lat="50.44623" lon="3.52799">
        <ele>35.7</ele>
        <time>2021-09-03T18:13:36.000Z</time>
      </trkpt>
      <trkpt lat="50.44617" lon="3.52798">
        <ele>35.8</ele>
        <time>2021-09-03T18:13:39.000Z</time>
      </trkpt>
      <trkpt lat="50.4461" lon="3.52797">
        <ele>36</ele>
        <time>2021-09-03T18:13:41.492Z</time>
      </trkpt>
      <trkpt lat="50.44603" lon="3.52796">
        <ele>36.3</ele>
        <time>2021-09-03T18:13:44.178Z</time>
      </trkpt>
      <trkpt lat="50.44596" lon="3.52797">
        <ele>36.5</ele>
        <time>2021-09-03T18:13:47.098Z</time>
      </trkpt>
      <trkpt lat="50.44589" lon="3.52797">
        <ele>36.8</ele>
        <time>2021-09-03T18:13:50.101Z</time>
      </trkpt>
      <trkpt lat="50.44583" lon="3.52798">
        <ele>37</ele>
        <time>2021-09-03T18:13:53.000Z</time>
      </trkpt>
      <trkpt lat="50.44577" lon="3.52798">
        <ele>37</ele>
        <time>2021-09-03T18:13:55.135Z</time>
      </trkpt>
      <trkpt lat="50.44572" lon="3.52801">
        <ele>37</ele>
        <time>2021-09-03T18:13:58.000Z</time>
      </trkpt>
      <trkpt lat="50.44567" lon="3.52802">
        <ele>37</ele>
        <time>2021-09-03T18:14:01.000Z</time>
      </trkpt>
      <trkpt lat="50.44566" lon="3.52809">
        <ele>36.9</ele>
        <time>2021-09-03T18:14:03.517Z</time>
      </trkpt>
      <trkpt lat="50.44564" lon="3.52818">
        <ele>36.6</ele>
        <time>2021-09-03T18:14:06.000Z</time>
      </trkpt>
      <trkpt lat="50.44561" lon="3.52829">
        <ele>36.2</ele>
        <time>2021-09-03T18:14:07.898Z</time>
      </trkpt>
      <trkpt lat="50.44559" lon="3.52837">
        <ele>36</ele>
        <time>2021-09-03T18:14:09.318Z</time>
      </trkpt>
      <trkpt lat="50.44555" lon="3.52846">
        <ele>36</ele>
        <time>2021-09-03T18:14:12.000Z</time>
      </trkpt>
      <trkpt lat="50.44553" lon="3.52853">
        <ele>35.9</ele>
        <time>2021-09-03T18:14:13.016Z</time>
      </trkpt>
      <trkpt lat="50.44546" lon="3.52873">
        <ele>35.4</ele>
        <time>2021-09-03T18:14:16.000Z</time>
      </trkpt>
      <trkpt lat="50.44542" lon="3.52888">
        <ele>35</ele>
        <time>2021-09-03T18:14:18.000Z</time>
      </trkpt>
      <trkpt lat="50.4454" lon="3.52895">
        <ele>35</ele>
        <time>2021-09-03T18:14:19.000Z</time>
      </trkpt>
      <trkpt lat="50.44535" lon="3.52909">
        <ele>35</ele>
        <time>2021-09-03T18:14:21.000Z</time>
      </trkpt>
      <trkpt lat="50.4453" lon="3.52924">
        <ele>35</ele>
        <time>2021-09-03T18:14:23.000Z</time>
      </trkpt>
      <trkpt lat="50.44523" lon="3.52941">
        <ele>34.8</ele>
        <time>2021-09-03T18:14:25.000Z</time>
      </trkpt>
      <trkpt lat="50.44517" lon="3.52959">
        <ele>34.3</ele>
        <time>2021-09-03T18:14:27.000Z</time>
      </trkpt>
      <trkpt lat="50.44514" lon="3.52968">
        <ele>34.1</ele>
        <time>2021-09-03T18:14:28.000Z</time>
      </trkpt>
      <trkpt lat="50.44512" lon="3.52977">
        <ele>34</ele>
        <time>2021-09-03T18:14:29.000Z</time>
      </trkpt>
      <trkpt lat="50.44508" lon="3.52987">
        <ele>34</ele>
        <time>2021-09-03T18:14:30.000Z</time>
      </trkpt>
      <trkpt lat="50.44501" lon="3.53006">
        <ele>33.8</ele>
        <time>2021-09-03T18:14:32.000Z</time>
      </trkpt>
      <trkpt lat="50.44493" lon="3.53025">
        <ele>33.1</ele>
        <time>2021-09-03T18:14:34.000Z</time>
      </trkpt>
      <trkpt lat="50.44484" lon="3.53046">
        <ele>32.3</ele>
        <time>2021-09-03T18:14:36.000Z</time>
      </trkpt>
      <trkpt lat="50.44478" lon="3.53064">
        <ele>31.7</ele>
        <time>2021-09-03T18:14:38.000Z</time>
      </trkpt>
      <trkpt lat="50.44473" lon="3.5308">
        <ele>31.1</ele>
        <time>2021-09-03T18:14:40.000Z</time>
      </trkpt>
      <trkpt lat="50.44469" lon="3.53088">
        <ele>31.1</ele>
        <time>2021-09-03T18:14:41.000Z</time>
      </trkpt>
      <trkpt lat="50.44463" lon="3.53107">
        <ele>31</ele>
        <time>2021-09-03T18:14:43.000Z</time>
      </trkpt>
      <trkpt lat="50.44459" lon="3.53127">
        <ele>30.7</ele>
        <time>2021-09-03T18:14:45.000Z</time>
      </trkpt>
      <trkpt lat="50.44456" lon="3.53137">
        <ele>30.6</ele>
        <time>2021-09-03T18:14:46.000Z</time>
      </trkpt>
      <trkpt lat="50.44453" lon="3.53146">
        <ele>30.5</ele>
        <time>2021-09-03T18:14:47.000Z</time>
      </trkpt>
      <trkpt lat="50.44448" lon="3.53156">
        <ele>30.3</ele>
        <time>2021-09-03T18:14:48.000Z</time>
      </trkpt>
      <trkpt lat="50.44441" lon="3.53171">
        <ele>30.1</ele>
        <time>2021-09-03T18:14:50.000Z</time>
      </trkpt>
      <trkpt lat="50.44435" lon="3.53188">
        <ele>30.1</ele>
        <time>2021-09-03T18:14:52.000Z</time>
      </trkpt>
      <trkpt lat="50.44432" lon="3.53196">
        <ele>30</ele>
        <time>2021-09-03T18:14:53.000Z</time>
      </trkpt>
      <trkpt lat="50.44426" lon="3.53216">
        <ele>30</ele>
        <time>2021-09-03T18:14:55.000Z</time>
      </trkpt>
      <trkpt lat="50.44421" lon="3.53228">
        <ele>30</ele>
        <time>2021-09-03T18:14:56.000Z</time>
      </trkpt>
      <trkpt lat="50.44414" lon="3.53246">
        <ele>30</ele>
        <time>2021-09-03T18:14:58.000Z</time>
      </trkpt>
      <trkpt lat="50.44411" lon="3.53255">
        <ele>29.9</ele>
        <time>2021-09-03T18:14:59.000Z</time>
      </trkpt>
      <trkpt lat="50.44407" lon="3.53273">
        <ele>29.5</ele>
        <time>2021-09-03T18:15:01.000Z</time>
      </trkpt>
      <trkpt lat="50.44403" lon="3.53282">
        <ele>29.4</ele>
        <time>2021-09-03T18:15:02.000Z</time>
      </trkpt>
      <trkpt lat="50.44398" lon="3.53301">
        <ele>29.1</ele>
        <time>2021-09-03T18:15:04.000Z</time>
      </trkpt>
      <trkpt lat="50.44396" lon="3.53309">
        <ele>29</ele>
        <time>2021-09-03T18:15:05.000Z</time>
      </trkpt>
      <trkpt lat="50.4439" lon="3.53327">
        <ele>29</ele>
        <time>2021-09-03T18:15:07.000Z</time>
      </trkpt>
      <trkpt lat="50.44387" lon="3.53336">
        <ele>29</ele>
        <time>2021-09-03T18:15:08.000Z</time>
      </trkpt>
      <trkpt lat="50.44381" lon="3.53354">
        <ele>29</ele>
        <time>2021-09-03T18:15:10.000Z</time>
      </trkpt>
      <trkpt lat="50.44378" lon="3.53362">
        <ele>29</ele>
        <time>2021-09-03T18:15:11.000Z</time>
      </trkpt>
      <trkpt lat="50.44372" lon="3.53378">
        <ele>28.8</ele>
        <time>2021-09-03T18:15:13.000Z</time>
      </trkpt>
      <trkpt lat="50.44366" lon="3.53394">
        <ele>28.7</ele>
        <time>2021-09-03T18:15:15.000Z</time>
      </trkpt>
      <trkpt lat="50.4436" lon="3.53409">
        <ele>28.3</ele>
        <time>2021-09-03T18:15:17.000Z</time>
      </trkpt>
      <trkpt lat="50.44357" lon="3.53416">
        <ele>28</ele>
        <time>2021-09-03T18:15:18.000Z</time>
      </trkpt>
      <trkpt lat="50.44353" lon="3.53432">
        <ele>27.6</ele>
        <time>2021-09-03T18:15:20.000Z</time>
      </trkpt>
      <trkpt lat="50.44348" lon="3.53448">
        <ele>27.4</ele>
        <time>2021-09-03T18:15:22.000Z</time>
      </trkpt>
      <trkpt lat="50.44345" lon="3.53457">
        <ele>27.3</ele>
        <time>2021-09-03T18:15:23.000Z</time>
      </trkpt>
      <trkpt lat="50.44343" lon="3.53464">
        <ele>27.2</ele>
        <time>2021-09-03T18:15:24.000Z</time>
      </trkpt>
      <trkpt lat="50.44339" lon="3.53479">
        <ele>27</ele>
        <time>2021-09-03T18:15:26.000Z</time>
      </trkpt>
      <trkpt lat="50.44334" lon="3.53493">
        <ele>27</ele>
        <time>2021-09-03T18:15:28.000Z</time>
      </trkpt>
      <trkpt lat="50.44332" lon="3.535">
        <ele>27</ele>
        <time>2021-09-03T18:15:29.000Z</time>
      </trkpt>
      <trkpt lat="50.44329" lon="3.53507">
        <ele>26.7</ele>
        <time>2021-09-03T18:15:30.000Z</time>
      </trkpt>
      <trkpt lat="50.44327" lon="3.53514">
        <ele>26.5</ele>
        <time>2021-09-03T18:15:31.000Z</time>
      </trkpt>
      <trkpt lat="50.44322" lon="3.53528">
        <ele>26</ele>
        <time>2021-09-03T18:15:33.000Z</time>
      </trkpt>
      <trkpt lat="50.44318" lon="3.53542">
        <ele>26</ele>
        <time>2021-09-03T18:15:35.000Z</time>
      </trkpt>
      <trkpt lat="50.44316" lon="3.53548">
        <ele>26</ele>
        <time>2021-09-03T18:15:36.000Z</time>
      </trkpt>
      <trkpt lat="50.44313" lon="3.53554">
        <ele>26</ele>
        <time>2021-09-03T18:15:37.000Z</time>
      </trkpt>
      <trkpt lat="50.44311" lon="3.53561">
        <ele>25.8</ele>
        <time>2021-09-03T18:15:38.000Z</time>
      </trkpt>
      <trkpt lat="50.44306" lon="3.53575">
        <ele>25.3</ele>
        <time>2021-09-03T18:15:40.000Z</time>
      </trkpt>
      <trkpt lat="50.44304" lon="3.53582">
        <ele>25</ele>
        <time>2021-09-03T18:15:41.000Z</time>
      </trkpt>
      <trkpt lat="50.44302" lon="3.53588">
        <ele>25</ele>
        <time>2021-09-03T18:15:42.000Z</time>
      </trkpt>
      <trkpt lat="50.44297" lon="3.53602">
        <ele>25</ele>
        <time>2021-09-03T18:15:44.000Z</time>
      </trkpt>
      <trkpt lat="50.44294" lon="3.53609">
        <ele>25</ele>
        <time>2021-09-03T18:15:45.000Z</time>
      </trkpt>
      <trkpt lat="50.44289" lon="3.53623">
        <ele>24.6</ele>
        <time>2021-09-03T18:15:47.000Z</time>
      </trkpt>
      <trkpt lat="50.44284" lon="3.53637">
        <ele>24.1</ele>
        <time>2021-09-03T18:15:49.000Z</time>
      </trkpt>
      <trkpt lat="50.44281" lon="3.53644">
        <ele>24</ele>
        <time>2021-09-03T18:15:50.000Z</time>
      </trkpt>
      <trkpt lat="50.44276" lon="3.53659">
        <ele>24</ele>
        <time>2021-09-03T18:15:52.000Z</time>
      </trkpt>
      <trkpt lat="50.44274" lon="3.53667">
        <ele>24</ele>
        <time>2021-09-03T18:15:53.000Z</time>
      </trkpt>
      <trkpt lat="50.4427" lon="3.53681">
        <ele>24</ele>
        <time>2021-09-03T18:15:55.000Z</time>
      </trkpt>
      <trkpt lat="50.44268" lon="3.53688">
        <ele>24</ele>
        <time>2021-09-03T18:15:56.000Z</time>
      </trkpt>
      <trkpt lat="50.44264" lon="3.53701">
        <ele>24</ele>
        <time>2021-09-03T18:15:58.000Z</time>
      </trkpt>
      <trkpt lat="50.44259" lon="3.53715">
        <ele>24</ele>
        <time>2021-09-03T18:16:00.000Z</time>
      </trkpt>
      <trkpt lat="50.44254" lon="3.53732">
        <ele>24</ele>
        <time>2021-09-03T18:16:03.000Z</time>
      </trkpt>
      <trkpt lat="50.4425" lon="3.53742">
        <ele>24</ele>
        <time>2021-09-03T18:16:05.000Z</time>
      </trkpt>
      <trkpt lat="50.44246" lon="3.53755">
        <ele>24</ele>
        <time>2021-09-03T18:16:07.000Z</time>
      </trkpt>
      <trkpt lat="50.44248" lon="3.53764">
        <ele>24</ele>
        <time>2021-09-03T18:16:08.752Z</time>
      </trkpt>
      <trkpt lat="50.44246" lon="3.53771">
        <ele>24</ele>
        <time>2021-09-03T18:16:10.032Z</time>
      </trkpt>
      <trkpt lat="50.4424" lon="3.5378">
        <ele>24</ele>
        <time>2021-09-03T18:16:11.454Z</time>
      </trkpt>
      <trkpt lat="50.44235" lon="3.53791">
        <ele>24</ele>
        <time>2021-09-03T18:16:13.833Z</time>
      </trkpt>
      <trkpt lat="50.44232" lon="3.53798">
        <ele>24</ele>
        <time>2021-09-03T18:16:16.000Z</time>
      </trkpt>
      <trkpt lat="50.44234" lon="3.53791">
        <ele>24</ele>
        <time>2021-09-03T18:16:20.000Z</time>
      </trkpt>
      <trkpt lat="50.44229" lon="3.53793">
        <ele>24</ele>
        <time>2021-09-03T18:16:47.551Z</time>
      </trkpt>
      <trkpt lat="50.44226" lon="3.53801">
        <ele>24</ele>
        <time>2021-09-03T18:16:50.000Z</time>
      </trkpt>
      <trkpt lat="50.44224" lon="3.53808">
        <ele>24</ele>
        <time>2021-09-03T18:16:51.034Z</time>
      </trkpt>
      <trkpt lat="50.44221" lon="3.53817">
        <ele>24</ele>
        <time>2021-09-03T18:16:53.000Z</time>
      </trkpt>
      <trkpt lat="50.44217" lon="3.53826">
        <ele>24</ele>
        <time>2021-09-03T18:16:54.000Z</time>
      </trkpt>
      <trkpt lat="50.44212" lon="3.53841">
        <ele>24</ele>
        <time>2021-09-03T18:16:56.000Z</time>
      </trkpt>
      <trkpt lat="50.44206" lon="3.53858">
        <ele>24</ele>
        <time>2021-09-03T18:16:58.000Z</time>
      </trkpt>
      <trkpt lat="50.44203" lon="3.53867">
        <ele>24</ele>
        <time>2021-09-03T18:16:59.000Z</time>
      </trkpt>
      <trkpt lat="50.44197" lon="3.53884">
        <ele>24</ele>
        <time>2021-09-03T18:17:01.000Z</time>
      </trkpt>
      <trkpt lat="50.44191" lon="3.539">
        <ele>24</ele>
        <time>2021-09-03T18:17:03.000Z</time>
      </trkpt>
      <trkpt lat="50.44188" lon="3.53907">
        <ele>24</ele>
        <time>2021-09-03T18:17:04.000Z</time>
      </trkpt>
      <trkpt lat="50.44186" lon="3.53914">
        <ele>24</ele>
        <time>2021-09-03T18:17:05.000Z</time>
      </trkpt>
      <trkpt lat="50.44181" lon="3.53929">
        <ele>24</ele>
        <time>2021-09-03T18:17:07.000Z</time>
      </trkpt>
      <trkpt lat="50.44176" lon="3.53944">
        <ele>24</ele>
        <time>2021-09-03T18:17:09.000Z</time>
      </trkpt>
      <trkpt lat="50.44173" lon="3.53951">
        <ele>24</ele>
        <time>2021-09-03T18:17:10.000Z</time>
      </trkpt>
      <trkpt lat="50.44168" lon="3.53966">
        <ele>24</ele>
        <time>2021-09-03T18:17:12.000Z</time>
      </trkpt>
      <trkpt lat="50.44162" lon="3.5398">
        <ele>24</ele>
        <time>2021-09-03T18:17:14.000Z</time>
      </trkpt>
      <trkpt lat="50.44157" lon="3.53995">
        <ele>24</ele>
        <time>2021-09-03T18:17:16.000Z</time>
      </trkpt>
      <trkpt lat="50.44151" lon="3.54009">
        <ele>24</ele>
        <time>2021-09-03T18:17:18.000Z</time>
      </trkpt>
      <trkpt lat="50.44146" lon="3.54024">
        <ele>24</ele>
        <time>2021-09-03T18:17:20.000Z</time>
      </trkpt>
      <trkpt lat="50.4414" lon="3.54039">
        <ele>24</ele>
        <time>2021-09-03T18:17:22.000Z</time>
      </trkpt>
      <trkpt lat="50.44138" lon="3.54046">
        <ele>24</ele>
        <time>2021-09-03T18:17:23.000Z</time>
      </trkpt>
      <trkpt lat="50.44134" lon="3.54059">
        <ele>24.2</ele>
        <time>2021-09-03T18:17:25.000Z</time>
      </trkpt>
      <trkpt lat="50.44129" lon="3.54072">
        <ele>24.4</ele>
        <time>2021-09-03T18:17:27.000Z</time>
      </trkpt>
      <trkpt lat="50.44123" lon="3.54082">
        <ele>24.6</ele>
        <time>2021-09-03T18:17:29.000Z</time>
      </trkpt>
      <trkpt lat="50.44118" lon="3.54082">
        <ele>24.8</ele>
        <time>2021-09-03T18:17:30.000Z</time>
      </trkpt>
      <trkpt lat="50.44113" lon="3.54079">
        <ele>24.9</ele>
        <time>2021-09-03T18:17:31.000Z</time>
      </trkpt>
      <trkpt lat="50.44109" lon="3.54073">
        <ele>25</ele>
        <time>2021-09-03T18:17:32.000Z</time>
      </trkpt>
      <trkpt lat="50.441" lon="3.54064">
        <ele>25</ele>
        <time>2021-09-03T18:17:34.000Z</time>
      </trkpt>
      <trkpt lat="50.44096" lon="3.5406">
        <ele>25</ele>
        <time>2021-09-03T18:17:35.000Z</time>
      </trkpt>
      <trkpt lat="50.44093" lon="3.54055">
        <ele>25</ele>
        <time>2021-09-03T18:17:35.693Z</time>
      </trkpt>
      <trkpt lat="50.44087" lon="3.54051">
        <ele>25</ele>
        <time>2021-09-03T18:17:37.385Z</time>
      </trkpt>
      <trkpt lat="50.44078" lon="3.54045">
        <ele>25</ele>
        <time>2021-09-03T18:17:40.000Z</time>
      </trkpt>
      <trkpt lat="50.44068" lon="3.54035">
        <ele>25</ele>
        <time>2021-09-03T18:17:42.000Z</time>
      </trkpt>
      <trkpt lat="50.44063" lon="3.54029">
        <ele>25</ele>
        <time>2021-09-03T18:17:43.000Z</time>
      </trkpt>
      <trkpt lat="50.44055" lon="3.54019">
        <ele>25.3</ele>
        <time>2021-09-03T18:17:45.000Z</time>
      </trkpt>
      <trkpt lat="50.44051" lon="3.54015">
        <ele>25.5</ele>
        <time>2021-09-03T18:17:46.000Z</time>
      </trkpt>
      <trkpt lat="50.44042" lon="3.5401">
        <ele>25.8</ele>
        <time>2021-09-03T18:17:48.000Z</time>
      </trkpt>
      <trkpt lat="50.44034" lon="3.54001">
        <ele>26</ele>
        <time>2021-09-03T18:17:50.000Z</time>
      </trkpt>
      <trkpt lat="50.4403" lon="3.53996">
        <ele>26</ele>
        <time>2021-09-03T18:17:51.000Z</time>
      </trkpt>
      <trkpt lat="50.44023" lon="3.53989">
        <ele>26</ele>
        <time>2021-09-03T18:17:53.000Z</time>
      </trkpt>
      <trkpt lat="50.44018" lon="3.53982">
        <ele>26</ele>
        <time>2021-09-03T18:17:55.000Z</time>
      </trkpt>
      <trkpt lat="50.44009" lon="3.53973">
        <ele>26</ele>
        <time>2021-09-03T18:17:57.000Z</time>
      </trkpt>
      <trkpt lat="50.44005" lon="3.53969">
        <ele>26</ele>
        <time>2021-09-03T18:17:58.000Z</time>
      </trkpt>
      <trkpt lat="50.43999" lon="3.53963">
        <ele>26</ele>
        <time>2021-09-03T18:17:59.490Z</time>
      </trkpt>
      <trkpt lat="50.43995" lon="3.53958">
        <ele>26.2</ele>
        <time>2021-09-03T18:18:02.000Z</time>
      </trkpt>
      <trkpt lat="50.43991" lon="3.53955">
        <ele>26.3</ele>
        <time>2021-09-03T18:18:03.000Z</time>
      </trkpt>
      <trkpt lat="50.43985" lon="3.5395">
        <ele>26.5</ele>
        <time>2021-09-03T18:18:03.905Z</time>
      </trkpt>
      <trkpt lat="50.43979" lon="3.53944">
        <ele>26.8</ele>
        <time>2021-09-03T18:18:05.470Z</time>
      </trkpt>
      <trkpt lat="50.43975" lon="3.53939">
        <ele>26.9</ele>
        <time>2021-09-03T18:18:07.000Z</time>
      </trkpt>
      <trkpt lat="50.4397" lon="3.53934">
        <ele>27</ele>
        <time>2021-09-03T18:18:08.109Z</time>
      </trkpt>
      <trkpt lat="50.43962" lon="3.53925">
        <ele>27</ele>
        <time>2021-09-03T18:18:11.000Z</time>
      </trkpt>
      <trkpt lat="50.43954" lon="3.53918">
        <ele>27</ele>
        <time>2021-09-03T18:18:12.449Z</time>
      </trkpt>
      <trkpt lat="50.43949" lon="3.53913">
        <ele>27</ele>
        <time>2021-09-03T18:18:13.974Z</time>
      </trkpt>
      <trkpt lat="50.43945" lon="3.53909">
        <ele>27</ele>
        <time>2021-09-03T18:18:15.134Z</time>
      </trkpt>
      <trkpt lat="50.4394" lon="3.53906">
        <ele>27.2</ele>
        <time>2021-09-03T18:18:16.349Z</time>
      </trkpt>
      <trkpt lat="50.43937" lon="3.53901">
        <ele>27.3</ele>
        <time>2021-09-03T18:18:17.895Z</time>
      </trkpt>
      <trkpt lat="50.4393" lon="3.53894">
        <ele>27.5</ele>
        <time>2021-09-03T18:18:20.310Z</time>
      </trkpt>
      <trkpt lat="50.43926" lon="3.53889">
        <ele>27.7</ele>
        <time>2021-09-03T18:18:22.000Z</time>
      </trkpt>
      <trkpt lat="50.4392" lon="3.53881">
        <ele>27.9</ele>
        <time>2021-09-03T18:18:24.125Z</time>
      </trkpt>
      <trkpt lat="50.43914" lon="3.53874">
        <ele>28.1</ele>
        <time>2021-09-03T18:18:26.410Z</time>
      </trkpt>
      <trkpt lat="50.43907" lon="3.53867">
        <ele>28.3</ele>
        <time>2021-09-03T18:18:28.972Z</time>
      </trkpt>
      <trkpt lat="50.43902" lon="3.53862">
        <ele>28.5</ele>
        <time>2021-09-03T18:18:31.000Z</time>
      </trkpt>
      <trkpt lat="50.43898" lon="3.53856">
        <ele>28.7</ele>
        <time>2021-09-03T18:18:32.247Z</time>
      </trkpt>
      <trkpt lat="50.43893" lon="3.53847">
        <ele>28.9</ele>
        <time>2021-09-03T18:18:35.000Z</time>
      </trkpt>
      <trkpt lat="50.43886" lon="3.53837">
        <ele>29</ele>
        <time>2021-09-03T18:18:37.169Z</time>
      </trkpt>
      <trkpt lat="50.4388" lon="3.5383">
        <ele>29</ele>
        <time>2021-09-03T18:18:40.000Z</time>
      </trkpt>
      <trkpt lat="50.43877" lon="3.53824">
        <ele>29</ele>
        <time>2021-09-03T18:18:41.054Z</time>
      </trkpt>
      <trkpt lat="50.43874" lon="3.53818">
        <ele>29</ele>
        <time>2021-09-03T18:18:43.000Z</time>
      </trkpt>
      <trkpt lat="50.43868" lon="3.53809">
        <ele>29</ele>
        <time>2021-09-03T18:18:44.850Z</time>
      </trkpt>
      <trkpt lat="50.43862" lon="3.53799">
        <ele>29</ele>
        <time>2021-09-03T18:18:47.545Z</time>
      </trkpt>
      <trkpt lat="50.43855" lon="3.53788">
        <ele>29.2</ele>
        <time>2021-09-03T18:18:50.214Z</time>
      </trkpt>
      <trkpt lat="50.43852" lon="3.53782">
        <ele>29.3</ele>
        <time>2021-09-03T18:18:52.000Z</time>
      </trkpt>
      <trkpt lat="50.43849" lon="3.53777">
        <ele>29.4</ele>
        <time>2021-09-03T18:18:52.963Z</time>
      </trkpt>
      <trkpt lat="50.43845" lon="3.53771">
        <ele>29.6</ele>
        <time>2021-09-03T18:18:53.965Z</time>
      </trkpt>
      <trkpt lat="50.43841" lon="3.53766">
        <ele>29.7</ele>
        <time>2021-09-03T18:18:55.174Z</time>
      </trkpt>
      <trkpt lat="50.43837" lon="3.5376">
        <ele>29.9</ele>
        <time>2021-09-03T18:18:57.000Z</time>
      </trkpt>
      <trkpt lat="50.43831" lon="3.5375">
        <ele>30</ele>
        <time>2021-09-03T18:18:58.811Z</time>
      </trkpt>
      <trkpt lat="50.43827" lon="3.53743">
        <ele>30</ele>
        <time>2021-09-03T18:19:00.326Z</time>
      </trkpt>
      <trkpt lat="50.43823" lon="3.53738">
        <ele>30</ele>
        <time>2021-09-03T18:19:02.000Z</time>
      </trkpt>
      <trkpt lat="50.43817" lon="3.53728">
        <ele>30</ele>
        <time>2021-09-03T18:19:03.827Z</time>
      </trkpt>
      <trkpt lat="50.43809" lon="3.53717">
        <ele>30</ele>
        <time>2021-09-03T18:19:06.333Z</time>
      </trkpt>
      <trkpt lat="50.43804" lon="3.5371">
        <ele>30.1</ele>
        <time>2021-09-03T18:19:08.000Z</time>
      </trkpt>
      <trkpt lat="50.43798" lon="3.53701">
        <ele>30.3</ele>
        <time>2021-09-03T18:19:10.011Z</time>
      </trkpt>
      <trkpt lat="50.43792" lon="3.53692">
        <ele>30.5</ele>
        <time>2021-09-03T18:19:12.248Z</time>
      </trkpt>
      <trkpt lat="50.43788" lon="3.53687">
        <ele>30.7</ele>
        <time>2021-09-03T18:19:13.493Z</time>
      </trkpt>
      <trkpt lat="50.43782" lon="3.53679">
        <ele>30.9</ele>
        <time>2021-09-03T18:19:16.000Z</time>
      </trkpt>
      <trkpt lat="50.43776" lon="3.53669">
        <ele>31.1</ele>
        <time>2021-09-03T18:19:17.962Z</time>
      </trkpt>
      <trkpt lat="50.43771" lon="3.53663">
        <ele>31.2</ele>
        <time>2021-09-03T18:19:19.274Z</time>
      </trkpt>
      <trkpt lat="50.43767" lon="3.53658">
        <ele>31.4</ele>
        <time>2021-09-03T18:19:20.471Z</time>
      </trkpt>
      <trkpt lat="50.43759" lon="3.53647">
        <ele>31.7</ele>
        <time>2021-09-03T18:19:23.092Z</time>
      </trkpt>
      <trkpt lat="50.43755" lon="3.53639">
        <ele>31.8</ele>
        <time>2021-09-03T18:19:25.000Z</time>
      </trkpt>
      <trkpt lat="50.43747" lon="3.53633">
        <ele>32</ele>
        <time>2021-09-03T18:19:27.462Z</time>
      </trkpt>
      <trkpt lat="50.43743" lon="3.53626">
        <ele>32</ele>
        <time>2021-09-03T18:19:28.871Z</time>
      </trkpt>
      <trkpt lat="50.43739" lon="3.53619">
        <ele>32</ele>
        <time>2021-09-03T18:19:30.294Z</time>
      </trkpt>
      <trkpt lat="50.43736" lon="3.53613">
        <ele>32</ele>
        <time>2021-09-03T18:19:32.000Z</time>
      </trkpt>
      <trkpt lat="50.4373" lon="3.53604">
        <ele>32</ele>
        <time>2021-09-03T18:19:33.947Z</time>
      </trkpt>
      <trkpt lat="50.43723" lon="3.53593">
        <ele>32</ele>
        <time>2021-09-03T18:19:36.292Z</time>
      </trkpt>
      <trkpt lat="50.43716" lon="3.53583">
        <ele>32.2</ele>
        <time>2021-09-03T18:19:39.014Z</time>
      </trkpt>
      <trkpt lat="50.4371" lon="3.53574">
        <ele>32.4</ele>
        <time>2021-09-03T18:19:41.196Z</time>
      </trkpt>
      <trkpt lat="50.43707" lon="3.53569">
        <ele>32.5</ele>
        <time>2021-09-03T18:19:42.534Z</time>
      </trkpt>
      <trkpt lat="50.437" lon="3.53559">
        <ele>32.8</ele>
        <time>2021-09-03T18:19:44.891Z</time>
      </trkpt>
      <trkpt lat="50.43696" lon="3.53552">
        <ele>32.9</ele>
        <time>2021-09-03T18:19:46.493Z</time>
      </trkpt>
      <trkpt lat="50.43691" lon="3.53546">
        <ele>33</ele>
        <time>2021-09-03T18:19:49.000Z</time>
      </trkpt>
      <trkpt lat="50.43688" lon="3.5354">
        <ele>33</ele>
        <time>2021-09-03T18:19:49.946Z</time>
      </trkpt>
      <trkpt lat="50.43681" lon="3.5353">
        <ele>33</ele>
        <time>2021-09-03T18:19:52.414Z</time>
      </trkpt>
      <trkpt lat="50.43677" lon="3.53524">
        <ele>33</ele>
        <time>2021-09-03T18:19:54.000Z</time>
      </trkpt>
      <trkpt lat="50.43669" lon="3.53516">
        <ele>33</ele>
        <time>2021-09-03T18:19:56.353Z</time>
      </trkpt>
      <trkpt lat="50.43663" lon="3.53507">
        <ele>33.1</ele>
        <time>2021-09-03T18:19:58.777Z</time>
      </trkpt>
      <trkpt lat="50.4366" lon="3.53502">
        <ele>33.2</ele>
        <time>2021-09-03T18:20:00.180Z</time>
      </trkpt>
      <trkpt lat="50.43653" lon="3.53494">
        <ele>33.6</ele>
        <time>2021-09-03T18:20:02.000Z</time>
      </trkpt>
      <trkpt lat="50.43648" lon="3.53484">
        <ele>33.9</ele>
        <time>2021-09-03T18:20:04.044Z</time>
      </trkpt>
      <trkpt lat="50.43645" lon="3.5348">
        <ele>33.9</ele>
        <time>2021-09-03T18:20:05.063Z</time>
      </trkpt>
      <trkpt lat="50.4364" lon="3.53475">
        <ele>34</ele>
        <time>2021-09-03T18:20:06.418Z</time>
      </trkpt>
      <trkpt lat="50.43636" lon="3.53468">
        <ele>34</ele>
        <time>2021-09-03T18:20:07.740Z</time>
      </trkpt>
      <trkpt lat="50.43631" lon="3.5346">
        <ele>34.1</ele>
        <time>2021-09-03T18:20:09.423Z</time>
      </trkpt>
      <trkpt lat="50.43628" lon="3.53455">
        <ele>34.2</ele>
        <time>2021-09-03T18:20:11.000Z</time>
      </trkpt>
      <trkpt lat="50.43625" lon="3.53447">
        <ele>34.5</ele>
        <time>2021-09-03T18:20:12.055Z</time>
      </trkpt>
      <trkpt lat="50.4362" lon="3.53437">
        <ele>34.7</ele>
        <time>2021-09-03T18:20:14.335Z</time>
      </trkpt>
      <trkpt lat="50.43617" lon="3.53432">
        <ele>34.8</ele>
        <time>2021-09-03T18:20:15.880Z</time>
      </trkpt>
      <trkpt lat="50.43613" lon="3.53427">
        <ele>34.9</ele>
        <time>2021-09-03T18:20:17.396Z</time>
      </trkpt>
      <trkpt lat="50.43608" lon="3.5342">
        <ele>35</ele>
        <time>2021-09-03T18:20:20.000Z</time>
      </trkpt>
      <trkpt lat="50.43601" lon="3.53411">
        <ele>35</ele>
        <time>2021-09-03T18:20:21.942Z</time>
      </trkpt>
      <trkpt lat="50.43597" lon="3.53407">
        <ele>35</ele>
        <time>2021-09-03T18:20:23.073Z</time>
      </trkpt>
      <trkpt lat="50.43593" lon="3.53402">
        <ele>35</ele>
        <time>2021-09-03T18:20:24.178Z</time>
      </trkpt>
      <trkpt lat="50.43588" lon="3.53396">
        <ele>35</ele>
        <time>2021-09-03T18:20:26.000Z</time>
      </trkpt>
      <trkpt lat="50.43584" lon="3.53391">
        <ele>35</ele>
        <time>2021-09-03T18:20:26.855Z</time>
      </trkpt>
      <trkpt lat="50.43577" lon="3.53381">
        <ele>35</ele>
        <time>2021-09-03T18:20:29.316Z</time>
      </trkpt>
      <trkpt lat="50.43569" lon="3.5337">
        <ele>35</ele>
        <time>2021-09-03T18:20:32.000Z</time>
      </trkpt>
      <trkpt lat="50.43563" lon="3.53359">
        <ele>35</ele>
        <time>2021-09-03T18:20:34.143Z</time>
      </trkpt>
      <trkpt lat="50.43559" lon="3.53354">
        <ele>35</ele>
        <time>2021-09-03T18:20:36.000Z</time>
      </trkpt>
      <trkpt lat="50.43553" lon="3.53346">
        <ele>35</ele>
        <time>2021-09-03T18:20:37.858Z</time>
      </trkpt>
      <trkpt lat="50.43549" lon="3.53341">
        <ele>35</ele>
        <time>2021-09-03T18:20:39.038Z</time>
      </trkpt>
      <trkpt lat="50.43543" lon="3.53331">
        <ele>35</ele>
        <time>2021-09-03T18:20:41.562Z</time>
      </trkpt>
      <trkpt lat="50.43539" lon="3.53327">
        <ele>35</ele>
        <time>2021-09-03T18:20:42.902Z</time>
      </trkpt>
      <trkpt lat="50.43534" lon="3.53323">
        <ele>35</ele>
        <time>2021-09-03T18:20:44.323Z</time>
      </trkpt>
      <trkpt lat="50.43529" lon="3.53316">
        <ele>35</ele>
        <time>2021-09-03T18:20:46.362Z</time>
      </trkpt>
      <trkpt lat="50.43524" lon="3.53309">
        <ele>35</ele>
        <time>2021-09-03T18:20:48.479Z</time>
      </trkpt>
      <trkpt lat="50.43519" lon="3.53302">
        <ele>35</ele>
        <time>2021-09-03T18:20:50.602Z</time>
      </trkpt>
      <trkpt lat="50.43515" lon="3.53296">
        <ele>35</ele>
        <time>2021-09-03T18:20:51.817Z</time>
      </trkpt>
      <trkpt lat="50.43511" lon="3.53291">
        <ele>35</ele>
        <time>2021-09-03T18:20:53.257Z</time>
      </trkpt>
      <trkpt lat="50.43506" lon="3.53283">
        <ele>35</ele>
        <time>2021-09-03T18:20:55.758Z</time>
      </trkpt>
      <trkpt lat="50.435" lon="3.53275">
        <ele>35</ele>
        <time>2021-09-03T18:20:58.058Z</time>
      </trkpt>
      <trkpt lat="50.43494" lon="3.53266">
        <ele>35</ele>
        <time>2021-09-03T18:21:00.454Z</time>
      </trkpt>
      <trkpt lat="50.43489" lon="3.53258">
        <ele>35</ele>
        <time>2021-09-03T18:21:03.000Z</time>
      </trkpt>
      <trkpt lat="50.43484" lon="3.53249">
        <ele>35</ele>
        <time>2021-09-03T18:21:04.619Z</time>
      </trkpt>
      <trkpt lat="50.43479" lon="3.53242">
        <ele>35</ele>
        <time>2021-09-03T18:21:07.000Z</time>
      </trkpt>
      <trkpt lat="50.43474" lon="3.53234">
        <ele>35</ele>
        <time>2021-09-03T18:21:08.295Z</time>
      </trkpt>
      <trkpt lat="50.4347" lon="3.53228">
        <ele>35</ele>
        <time>2021-09-03T18:21:09.859Z</time>
      </trkpt>
      <trkpt lat="50.43465" lon="3.5322">
        <ele>35</ele>
        <time>2021-09-03T18:21:12.178Z</time>
      </trkpt>
      <trkpt lat="50.43459" lon="3.5321">
        <ele>35</ele>
        <time>2021-09-03T18:21:15.000Z</time>
      </trkpt>
      <trkpt lat="50.43456" lon="3.53205">
        <ele>35</ele>
        <time>2021-09-03T18:21:15.958Z</time>
      </trkpt>
      <trkpt lat="50.43452" lon="3.53198">
        <ele>35</ele>
        <time>2021-09-03T18:21:17.474Z</time>
      </trkpt>
      <trkpt lat="50.43445" lon="3.53188">
        <ele>35</ele>
        <time>2021-09-03T18:21:19.787Z</time>
      </trkpt>
      <trkpt lat="50.43439" lon="3.53179">
        <ele>35</ele>
        <time>2021-09-03T18:21:21.920Z</time>
      </trkpt>
      <trkpt lat="50.43435" lon="3.53173">
        <ele>35</ele>
        <time>2021-09-03T18:21:23.481Z</time>
      </trkpt>
      <trkpt lat="50.43427" lon="3.53161">
        <ele>35</ele>
        <time>2021-09-03T18:21:26.504Z</time>
      </trkpt>
      <trkpt lat="50.43424" lon="3.53156">
        <ele>35</ele>
        <time>2021-09-03T18:21:28.000Z</time>
      </trkpt>
      <trkpt lat="50.43419" lon="3.53148">
        <ele>35</ele>
        <time>2021-09-03T18:21:28.720Z</time>
      </trkpt>
      <trkpt lat="50.43412" lon="3.53138">
        <ele>35</ele>
        <time>2021-09-03T18:21:31.183Z</time>
      </trkpt>
      <trkpt lat="50.43409" lon="3.53132">
        <ele>35</ele>
        <time>2021-09-03T18:21:32.257Z</time>
      </trkpt>
      <trkpt lat="50.43405" lon="3.53126">
        <ele>35</ele>
        <time>2021-09-03T18:21:33.542Z</time>
      </trkpt>
      <trkpt lat="50.434" lon="3.5312">
        <ele>35</ele>
        <time>2021-09-03T18:21:35.000Z</time>
      </trkpt>
      <trkpt lat="50.43391" lon="3.53109">
        <ele>35</ele>
        <time>2021-09-03T18:21:37.000Z</time>
      </trkpt>
      <trkpt lat="50.43387" lon="3.53103">
        <ele>35</ele>
        <time>2021-09-03T18:21:38.000Z</time>
      </trkpt>
      <trkpt lat="50.43379" lon="3.53092">
        <ele>35</ele>
        <time>2021-09-03T18:21:40.000Z</time>
      </trkpt>
      <trkpt lat="50.43371" lon="3.53081">
        <ele>35</ele>
        <time>2021-09-03T18:21:42.000Z</time>
      </trkpt>
      <trkpt lat="50.43368" lon="3.53075">
        <ele>35</ele>
        <time>2021-09-03T18:21:43.000Z</time>
      </trkpt>
      <trkpt lat="50.43361" lon="3.53065">
        <ele>35</ele>
        <time>2021-09-03T18:21:45.000Z</time>
      </trkpt>
      <trkpt lat="50.43357" lon="3.53059">
        <ele>35</ele>
        <time>2021-09-03T18:21:46.000Z</time>
      </trkpt>
      <trkpt lat="50.4335" lon="3.53048">
        <ele>35</ele>
        <time>2021-09-03T18:21:48.000Z</time>
      </trkpt>
      <trkpt lat="50.43347" lon="3.53043">
        <ele>35</ele>
        <time>2021-09-03T18:21:49.000Z</time>
      </trkpt>
      <trkpt lat="50.43343" lon="3.53038">
        <ele>35</ele>
        <time>2021-09-03T18:21:50.000Z</time>
      </trkpt>
      <trkpt lat="50.43339" lon="3.53033">
        <ele>35</ele>
        <time>2021-09-03T18:21:51.000Z</time>
      </trkpt>
      <trkpt lat="50.43331" lon="3.53022">
        <ele>35</ele>
        <time>2021-09-03T18:21:53.000Z</time>
      </trkpt>
      <trkpt lat="50.43327" lon="3.53016">
        <ele>35</ele>
        <time>2021-09-03T18:21:54.000Z</time>
      </trkpt>
      <trkpt lat="50.43324" lon="3.53011">
        <ele>35</ele>
        <time>2021-09-03T18:21:55.000Z</time>
      </trkpt>
      <trkpt lat="50.4332" lon="3.53006">
        <ele>35</ele>
        <time>2021-09-03T18:21:56.000Z</time>
      </trkpt>
      <trkpt lat="50.43313" lon="3.52995">
        <ele>35</ele>
        <time>2021-09-03T18:21:58.000Z</time>
      </trkpt>
      <trkpt lat="50.43309" lon="3.5299">
        <ele>35</ele>
        <time>2021-09-03T18:21:59.000Z</time>
      </trkpt>
      <trkpt lat="50.43303" lon="3.5298">
        <ele>35</ele>
        <time>2021-09-03T18:22:01.000Z</time>
      </trkpt>
      <trkpt lat="50.43295" lon="3.52972">
        <ele>35</ele>
        <time>2021-09-03T18:22:03.000Z</time>
      </trkpt>
      <trkpt lat="50.43288" lon="3.52963">
        <ele>35.3</ele>
        <time>2021-09-03T18:22:05.000Z</time>
      </trkpt>
      <trkpt lat="50.4328" lon="3.5295">
        <ele>35.8</ele>
        <time>2021-09-03T18:22:08.000Z</time>
      </trkpt>
      <trkpt lat="50.43276" lon="3.52945">
        <ele>36</ele>
        <time>2021-09-03T18:22:09.000Z</time>
      </trkpt>
      <trkpt lat="50.43272" lon="3.52938">
        <ele>36</ele>
        <time>2021-09-03T18:22:10.152Z</time>
      </trkpt>
      <trkpt lat="50.43265" lon="3.52927">
        <ele>36</ele>
        <time>2021-09-03T18:22:13.000Z</time>
      </trkpt>
      <trkpt lat="50.43258" lon="3.52918">
        <ele>36</ele>
        <time>2021-09-03T18:22:14.475Z</time>
      </trkpt>
      <trkpt lat="50.43252" lon="3.52908">
        <ele>36</ele>
        <time>2021-09-03T18:22:17.199Z</time>
      </trkpt>
      <trkpt lat="50.43245" lon="3.52899">
        <ele>36</ele>
        <time>2021-09-03T18:22:20.000Z</time>
      </trkpt>
      <trkpt lat="50.43241" lon="3.52893">
        <ele>36</ele>
        <time>2021-09-03T18:22:20.838Z</time>
      </trkpt>
      <trkpt lat="50.43235" lon="3.52884">
        <ele>36</ele>
        <time>2021-09-03T18:22:23.036Z</time>
      </trkpt>
      <trkpt lat="50.43229" lon="3.52873">
        <ele>36</ele>
        <time>2021-09-03T18:22:25.357Z</time>
      </trkpt>
      <trkpt lat="50.43225" lon="3.52867">
        <ele>36</ele>
        <time>2021-09-03T18:22:27.000Z</time>
      </trkpt>
      <trkpt lat="50.4322" lon="3.5286">
        <ele>36</ele>
        <time>2021-09-03T18:22:28.372Z</time>
      </trkpt>
      <trkpt lat="50.43212" lon="3.5285">
        <ele>36</ele>
        <time>2021-09-03T18:22:31.112Z</time>
      </trkpt>
      <trkpt lat="50.43208" lon="3.52845">
        <ele>36</ele>
        <time>2021-09-03T18:22:32.395Z</time>
      </trkpt>
      <trkpt lat="50.43204" lon="3.52839">
        <ele>36</ele>
        <time>2021-09-03T18:22:33.749Z</time>
      </trkpt>
      <trkpt lat="50.43199" lon="3.52833">
        <ele>36</ele>
        <time>2021-09-03T18:22:34.957Z</time>
      </trkpt>
      <trkpt lat="50.43196" lon="3.52828">
        <ele>36</ele>
        <time>2021-09-03T18:22:36.098Z</time>
      </trkpt>
      <trkpt lat="50.43191" lon="3.52819">
        <ele>36</ele>
        <time>2021-09-03T18:22:38.000Z</time>
      </trkpt>
      <trkpt lat="50.43187" lon="3.52815">
        <ele>36</ele>
        <time>2021-09-03T18:22:38.781Z</time>
      </trkpt>
      <trkpt lat="50.43184" lon="3.5281">
        <ele>36</ele>
        <time>2021-09-03T18:22:39.978Z</time>
      </trkpt>
      <trkpt lat="50.4318" lon="3.52803">
        <ele>36.1</ele>
        <time>2021-09-03T18:22:41.259Z</time>
      </trkpt>
      <trkpt lat="50.43172" lon="3.52791">
        <ele>36.5</ele>
        <time>2021-09-03T18:22:43.898Z</time>
      </trkpt>
      <trkpt lat="50.43167" lon="3.52784">
        <ele>36.8</ele>
        <time>2021-09-03T18:22:46.000Z</time>
      </trkpt>
      <trkpt lat="50.43165" lon="3.52773">
        <ele>37</ele>
        <time>2021-09-03T18:22:48.324Z</time>
      </trkpt>
      <trkpt lat="50.43159" lon="3.52767">
        <ele>37</ele>
        <time>2021-09-03T18:22:49.541Z</time>
      </trkpt>
      <trkpt lat="50.43155" lon="3.52762">
        <ele>37</ele>
        <time>2021-09-03T18:22:51.000Z</time>
      </trkpt>
      <trkpt lat="50.43151" lon="3.52756">
        <ele>37</ele>
        <time>2021-09-03T18:22:52.000Z</time>
      </trkpt>
      <trkpt lat="50.43143" lon="3.5275">
        <ele>37</ele>
        <time>2021-09-03T18:22:53.360Z</time>
      </trkpt>
      <trkpt lat="50.4314" lon="3.52745">
        <ele>37</ele>
        <time>2021-09-03T18:22:55.000Z</time>
      </trkpt>
      <trkpt lat="50.43133" lon="3.52735">
        <ele>37</ele>
        <time>2021-09-03T18:22:57.000Z</time>
      </trkpt>
      <trkpt lat="50.43129" lon="3.52727">
        <ele>37</ele>
        <time>2021-09-03T18:22:58.432Z</time>
      </trkpt>
      <trkpt lat="50.43118" lon="3.52711">
        <ele>37</ele>
        <time>2021-09-03T18:23:02.000Z</time>
      </trkpt>
      <trkpt lat="50.43112" lon="3.52705">
        <ele>37</ele>
        <time>2021-09-03T18:23:03.307Z</time>
      </trkpt>
      <trkpt lat="50.43105" lon="3.52698">
        <ele>37</ele>
        <time>2021-09-03T18:23:06.000Z</time>
      </trkpt>
      <trkpt lat="50.43098" lon="3.52683">
        <ele>37</ele>
        <time>2021-09-03T18:23:08.000Z</time>
      </trkpt>
      <trkpt lat="50.43095" lon="3.52678">
        <ele>37</ele>
        <time>2021-09-03T18:23:09.000Z</time>
      </trkpt>
      <trkpt lat="50.43088" lon="3.52669">
        <ele>37</ele>
        <time>2021-09-03T18:23:11.000Z</time>
      </trkpt>
      <trkpt lat="50.43081" lon="3.5266">
        <ele>36.9</ele>
        <time>2021-09-03T18:23:13.000Z</time>
      </trkpt>
      <trkpt lat="50.43074" lon="3.5265">
        <ele>36.7</ele>
        <time>2021-09-03T18:23:15.000Z</time>
      </trkpt>
      <trkpt lat="50.4307" lon="3.52644">
        <ele>36.5</ele>
        <time>2021-09-03T18:23:17.000Z</time>
      </trkpt>
      <trkpt lat="50.43065" lon="3.52636">
        <ele>36.3</ele>
        <time>2021-09-03T18:23:18.021Z</time>
      </trkpt>
      <trkpt lat="50.43059" lon="3.52628">
        <ele>36.1</ele>
        <time>2021-09-03T18:23:20.000Z</time>
      </trkpt>
      <trkpt lat="50.43055" lon="3.52617">
        <ele>36</ele>
        <time>2021-09-03T18:23:22.123Z</time>
      </trkpt>
      <trkpt lat="50.43049" lon="3.5261">
        <ele>36</ele>
        <time>2021-09-03T18:23:24.000Z</time>
      </trkpt>
      <trkpt lat="50.43041" lon="3.52603">
        <ele>36</ele>
        <time>2021-09-03T18:23:25.128Z</time>
      </trkpt>
      <trkpt lat="50.43036" lon="3.52598">
        <ele>36</ele>
        <time>2021-09-03T18:23:27.000Z</time>
      </trkpt>
      <trkpt lat="50.43031" lon="3.52593">
        <ele>36</ele>
        <time>2021-09-03T18:23:27.887Z</time>
      </trkpt>
      <trkpt lat="50.43026" lon="3.52587">
        <ele>35.9</ele>
        <time>2021-09-03T18:23:29.223Z</time>
      </trkpt>
      <trkpt lat="50.43022" lon="3.52581">
        <ele>35.8</ele>
        <time>2021-09-03T18:23:31.000Z</time>
      </trkpt>
      <trkpt lat="50.43017" lon="3.52576">
        <ele>35.6</ele>
        <time>2021-09-03T18:23:31.986Z</time>
      </trkpt>
      <trkpt lat="50.43013" lon="3.52571">
        <ele>35.5</ele>
        <time>2021-09-03T18:23:33.343Z</time>
      </trkpt>
      <trkpt lat="50.4301" lon="3.52565">
        <ele>35.4</ele>
        <time>2021-09-03T18:23:35.000Z</time>
      </trkpt>
      <trkpt lat="50.43005" lon="3.52557">
        <ele>35.2</ele>
        <time>2021-09-03T18:23:36.150Z</time>
      </trkpt>
      <trkpt lat="50.43001" lon="3.52551">
        <ele>35.2</ele>
        <time>2021-09-03T18:23:38.000Z</time>
      </trkpt>
      <trkpt lat="50.42996" lon="3.52543">
        <ele>35.4</ele>
        <time>2021-09-03T18:23:39.386Z</time>
      </trkpt>
      <trkpt lat="50.42991" lon="3.52536">
        <ele>35.5</ele>
        <time>2021-09-03T18:23:41.201Z</time>
      </trkpt>
      <trkpt lat="50.42987" lon="3.5253">
        <ele>35.5</ele>
        <time>2021-09-03T18:23:43.000Z</time>
      </trkpt>
      <trkpt lat="50.4298" lon="3.52518">
        <ele>35.3</ele>
        <time>2021-09-03T18:23:45.188Z</time>
      </trkpt>
      <trkpt lat="50.42976" lon="3.52513">
        <ele>35.1</ele>
        <time>2021-09-03T18:23:46.347Z</time>
      </trkpt>
      <trkpt lat="50.42972" lon="3.52506">
        <ele>35</ele>
        <time>2021-09-03T18:23:47.824Z</time>
      </trkpt>
      <trkpt lat="50.42968" lon="3.525">
        <ele>35</ele>
        <time>2021-09-03T18:23:49.343Z</time>
      </trkpt>
      <trkpt lat="50.42964" lon="3.52494">
        <ele>35.2</ele>
        <time>2021-09-03T18:23:50.885Z</time>
      </trkpt>
      <trkpt lat="50.42961" lon="3.52488">
        <ele>35.3</ele>
        <time>2021-09-03T18:23:52.084Z</time>
      </trkpt>
      <trkpt lat="50.42954" lon="3.52478">
        <ele>35.3</ele>
        <time>2021-09-03T18:23:54.469Z</time>
      </trkpt>
      <trkpt lat="50.42948" lon="3.5247">
        <ele>35.2</ele>
        <time>2021-09-03T18:23:57.000Z</time>
      </trkpt>
      <trkpt lat="50.42942" lon="3.52458">
        <ele>35.4</ele>
        <time>2021-09-03T18:23:59.000Z</time>
      </trkpt>
      <trkpt lat="50.42938" lon="3.52453">
        <ele>35.5</ele>
        <time>2021-09-03T18:24:00.000Z</time>
      </trkpt>
      <trkpt lat="50.42931" lon="3.52444">
        <ele>35.5</ele>
        <time>2021-09-03T18:24:02.008Z</time>
      </trkpt>
      <trkpt lat="50.42927" lon="3.52437">
        <ele>35.5</ele>
        <time>2021-09-03T18:24:03.429Z</time>
      </trkpt>
      <trkpt lat="50.42924" lon="3.52431">
        <ele>35.6</ele>
        <time>2021-09-03T18:24:04.549Z</time>
      </trkpt>
      <trkpt lat="50.42919" lon="3.52422">
        <ele>35.8</ele>
        <time>2021-09-03T18:24:06.557Z</time>
      </trkpt>
      <trkpt lat="50.42915" lon="3.52416">
        <ele>36</ele>
        <time>2021-09-03T18:24:08.106Z</time>
      </trkpt>
      <trkpt lat="50.42911" lon="3.52411">
        <ele>36</ele>
        <time>2021-09-03T18:24:09.314Z</time>
      </trkpt>
      <trkpt lat="50.42908" lon="3.52407">
        <ele>36</ele>
        <time>2021-09-03T18:24:11.000Z</time>
      </trkpt>
      <trkpt lat="50.42902" lon="3.52398">
        <ele>36.1</ele>
        <time>2021-09-03T18:24:13.000Z</time>
      </trkpt>
      <trkpt lat="50.42897" lon="3.5239">
        <ele>36.3</ele>
        <time>2021-09-03T18:24:15.000Z</time>
      </trkpt>
      <trkpt lat="50.42892" lon="3.52382">
        <ele>36.3</ele>
        <time>2021-09-03T18:24:16.331Z</time>
      </trkpt>
      <trkpt lat="50.42888" lon="3.52377">
        <ele>36.4</ele>
        <time>2021-09-03T18:24:18.000Z</time>
      </trkpt>
      <trkpt lat="50.42881" lon="3.52365">
        <ele>36.3</ele>
        <time>2021-09-03T18:24:20.466Z</time>
      </trkpt>
      <trkpt lat="50.42873" lon="3.52353">
        <ele>36</ele>
        <time>2021-09-03T18:24:23.132Z</time>
      </trkpt>
      <trkpt lat="50.4287" lon="3.52348">
        <ele>36</ele>
        <time>2021-09-03T18:24:24.388Z</time>
      </trkpt>
      <trkpt lat="50.42866" lon="3.52343">
        <ele>35.9</ele>
        <time>2021-09-03T18:24:26.000Z</time>
      </trkpt>
      <trkpt lat="50.42857" lon="3.5233">
        <ele>35.9</ele>
        <time>2021-09-03T18:24:28.512Z</time>
      </trkpt>
      <trkpt lat="50.42853" lon="3.52323">
        <ele>35.7</ele>
        <time>2021-09-03T18:24:29.867Z</time>
      </trkpt>
      <trkpt lat="50.42846" lon="3.52313">
        <ele>35.5</ele>
        <time>2021-09-03T18:24:33.000Z</time>
      </trkpt>
      <trkpt lat="50.42841" lon="3.52306">
        <ele>35.3</ele>
        <time>2021-09-03T18:24:35.000Z</time>
      </trkpt>
      <trkpt lat="50.42833" lon="3.52293">
        <ele>35</ele>
        <time>2021-09-03T18:24:37.353Z</time>
      </trkpt>
      <trkpt lat="50.42828" lon="3.52286">
        <ele>34.8</ele>
        <time>2021-09-03T18:24:39.000Z</time>
      </trkpt>
      <trkpt lat="50.42819" lon="3.52275">
        <ele>34.5</ele>
        <time>2021-09-03T18:24:41.000Z</time>
      </trkpt>
      <trkpt lat="50.42814" lon="3.52269">
        <ele>34.3</ele>
        <time>2021-09-03T18:24:42.000Z</time>
      </trkpt>
      <trkpt lat="50.42809" lon="3.52262">
        <ele>34.1</ele>
        <time>2021-09-03T18:24:43.000Z</time>
      </trkpt>
      <trkpt lat="50.42804" lon="3.52255">
        <ele>34</ele>
        <time>2021-09-03T18:24:44.000Z</time>
      </trkpt>
      <trkpt lat="50.42794" lon="3.52243">
        <ele>34</ele>
        <time>2021-09-03T18:24:46.000Z</time>
      </trkpt>
      <trkpt lat="50.42784" lon="3.52227">
        <ele>34</ele>
        <time>2021-09-03T18:24:48.000Z</time>
      </trkpt>
      <trkpt lat="50.42779" lon="3.5222">
        <ele>34</ele>
        <time>2021-09-03T18:24:49.000Z</time>
      </trkpt>
      <trkpt lat="50.42768" lon="3.52205">
        <ele>34</ele>
        <time>2021-09-03T18:24:51.000Z</time>
      </trkpt>
      <trkpt lat="50.42758" lon="3.52189">
        <ele>34.1</ele>
        <time>2021-09-03T18:24:53.000Z</time>
      </trkpt>
      <trkpt lat="50.42753" lon="3.52181">
        <ele>34.1</ele>
        <time>2021-09-03T18:24:54.000Z</time>
      </trkpt>
      <trkpt lat="50.42748" lon="3.52173">
        <ele>34</ele>
        <time>2021-09-03T18:24:55.000Z</time>
      </trkpt>
      <trkpt lat="50.42744" lon="3.52166">
        <ele>34</ele>
        <time>2021-09-03T18:24:56.000Z</time>
      </trkpt>
      <trkpt lat="50.42733" lon="3.52154">
        <ele>34.2</ele>
        <time>2021-09-03T18:24:58.000Z</time>
      </trkpt>
      <trkpt lat="50.42725" lon="3.52142">
        <ele>34.1</ele>
        <time>2021-09-03T18:25:00.000Z</time>
      </trkpt>
      <trkpt lat="50.42718" lon="3.52133">
        <ele>34.2</ele>
        <time>2021-09-03T18:25:02.000Z</time>
      </trkpt>
      <trkpt lat="50.42714" lon="3.52128">
        <ele>34.3</ele>
        <time>2021-09-03T18:25:03.000Z</time>
      </trkpt>
      <trkpt lat="50.4271" lon="3.52122">
        <ele>34.3</ele>
        <time>2021-09-03T18:25:04.000Z</time>
      </trkpt>
      <trkpt lat="50.42703" lon="3.52111">
        <ele>34.3</ele>
        <time>2021-09-03T18:25:06.000Z</time>
      </trkpt>
      <trkpt lat="50.42699" lon="3.52105">
        <ele>34.2</ele>
        <time>2021-09-03T18:25:07.000Z</time>
      </trkpt>
      <trkpt lat="50.42693" lon="3.52094">
        <ele>34</ele>
        <time>2021-09-03T18:25:09.000Z</time>
      </trkpt>
      <trkpt lat="50.42689" lon="3.52088">
        <ele>34</ele>
        <time>2021-09-03T18:25:10.000Z</time>
      </trkpt>
      <trkpt lat="50.42683" lon="3.52076">
        <ele>34.2</ele>
        <time>2021-09-03T18:25:12.000Z</time>
      </trkpt>
      <trkpt lat="50.4268" lon="3.52069">
        <ele>34.2</ele>
        <time>2021-09-03T18:25:13.000Z</time>
      </trkpt>
      <trkpt lat="50.42677" lon="3.52062">
        <ele>34.3</ele>
        <time>2021-09-03T18:25:14.000Z</time>
      </trkpt>
      <trkpt lat="50.42671" lon="3.5205">
        <ele>34.3</ele>
        <time>2021-09-03T18:25:16.000Z</time>
      </trkpt>
      <trkpt lat="50.42666" lon="3.52038">
        <ele>34.6</ele>
        <time>2021-09-03T18:25:18.000Z</time>
      </trkpt>
      <trkpt lat="50.42661" lon="3.52026">
        <ele>34.8</ele>
        <time>2021-09-03T18:25:20.000Z</time>
      </trkpt>
      <trkpt lat="50.42657" lon="3.52016">
        <ele>34.8</ele>
        <time>2021-09-03T18:25:22.000Z</time>
      </trkpt>
      <trkpt lat="50.4265" lon="3.51998">
        <ele>35</ele>
        <time>2021-09-03T18:25:25.000Z</time>
      </trkpt>
      <trkpt lat="50.42647" lon="3.51988">
        <ele>35</ele>
        <time>2021-09-03T18:25:27.000Z</time>
      </trkpt>
      <trkpt lat="50.42644" lon="3.51973">
        <ele>35</ele>
        <time>2021-09-03T18:25:29.073Z</time>
      </trkpt>
      <trkpt lat="50.42638" lon="3.51961">
        <ele>35</ele>
        <time>2021-09-03T18:25:31.000Z</time>
      </trkpt>
      <trkpt lat="50.42635" lon="3.51956">
        <ele>35</ele>
        <time>2021-09-03T18:25:32.000Z</time>
      </trkpt>
      <trkpt lat="50.42632" lon="3.51948">
        <ele>35</ele>
        <time>2021-09-03T18:25:32.970Z</time>
      </trkpt>
      <trkpt lat="50.42627" lon="3.51938">
        <ele>35</ele>
        <time>2021-09-03T18:25:35.000Z</time>
      </trkpt>
      <trkpt lat="50.42623" lon="3.51933">
        <ele>35</ele>
        <time>2021-09-03T18:25:35.811Z</time>
      </trkpt>
      <trkpt lat="50.42619" lon="3.51925">
        <ele>35</ele>
        <time>2021-09-03T18:25:37.336Z</time>
      </trkpt>
      <trkpt lat="50.42617" lon="3.51918">
        <ele>35</ele>
        <time>2021-09-03T18:25:39.000Z</time>
      </trkpt>
      <trkpt lat="50.42613" lon="3.5191">
        <ele>35.2</ele>
        <time>2021-09-03T18:25:40.293Z</time>
      </trkpt>
      <trkpt lat="50.42608" lon="3.51899">
        <ele>35.6</ele>
        <time>2021-09-03T18:25:43.000Z</time>
      </trkpt>
      <trkpt lat="50.42605" lon="3.51891">
        <ele>35.7</ele>
        <time>2021-09-03T18:25:44.250Z</time>
      </trkpt>
      <trkpt lat="50.42601" lon="3.5188">
        <ele>35.6</ele>
        <time>2021-09-03T18:25:46.749Z</time>
      </trkpt>
      <trkpt lat="50.42598" lon="3.51872">
        <ele>35.5</ele>
        <time>2021-09-03T18:25:48.115Z</time>
      </trkpt>
      <trkpt lat="50.42595" lon="3.51866">
        <ele>35.4</ele>
        <time>2021-09-03T18:25:50.000Z</time>
      </trkpt>
      <trkpt lat="50.42593" lon="3.5186">
        <ele>35.4</ele>
        <time>2021-09-03T18:25:50.809Z</time>
      </trkpt>
      <trkpt lat="50.42591" lon="3.51852">
        <ele>35.5</ele>
        <time>2021-09-03T18:25:52.300Z</time>
      </trkpt>
      <trkpt lat="50.42588" lon="3.51846">
        <ele>35.6</ele>
        <time>2021-09-03T18:25:53.411Z</time>
      </trkpt>
      <trkpt lat="50.42585" lon="3.5184">
        <ele>35.8</ele>
        <time>2021-09-03T18:25:55.000Z</time>
      </trkpt>
      <trkpt lat="50.4258" lon="3.5183">
        <ele>35.9</ele>
        <time>2021-09-03T18:25:57.000Z</time>
      </trkpt>
      <trkpt lat="50.42576" lon="3.5182">
        <ele>35.9</ele>
        <time>2021-09-03T18:25:58.436Z</time>
      </trkpt>
      <trkpt lat="50.42574" lon="3.51814">
        <ele>35.9</ele>
        <time>2021-09-03T18:26:00.000Z</time>
      </trkpt>
      <trkpt lat="50.42569" lon="3.51802">
        <ele>36</ele>
        <time>2021-09-03T18:26:02.010Z</time>
      </trkpt>
      <trkpt lat="50.42566" lon="3.51796">
        <ele>36</ele>
        <time>2021-09-03T18:26:03.356Z</time>
      </trkpt>
      <trkpt lat="50.42563" lon="3.51788">
        <ele>36</ele>
        <time>2021-09-03T18:26:05.000Z</time>
      </trkpt>
      <trkpt lat="50.42561" lon="3.51781">
        <ele>36</ele>
        <time>2021-09-03T18:26:05.835Z</time>
      </trkpt>
      <trkpt lat="50.42558" lon="3.51774">
        <ele>36</ele>
        <time>2021-09-03T18:26:07.332Z</time>
      </trkpt>
      <trkpt lat="50.42554" lon="3.51763">
        <ele>35.9</ele>
        <time>2021-09-03T18:26:10.000Z</time>
      </trkpt>
      <trkpt lat="50.42551" lon="3.51756">
        <ele>35.8</ele>
        <time>2021-09-03T18:26:10.897Z</time>
      </trkpt>
      <trkpt lat="50.42549" lon="3.5175">
        <ele>35.8</ele>
        <time>2021-09-03T18:26:12.152Z</time>
      </trkpt>
      <trkpt lat="50.42547" lon="3.51743">
        <ele>35.7</ele>
        <time>2021-09-03T18:26:13.154Z</time>
      </trkpt>
      <trkpt lat="50.42544" lon="3.51735">
        <ele>35.6</ele>
        <time>2021-09-03T18:26:15.000Z</time>
      </trkpt>
      <trkpt lat="50.42541" lon="3.51729">
        <ele>35.5</ele>
        <time>2021-09-03T18:26:15.992Z</time>
      </trkpt>
      <trkpt lat="50.42538" lon="3.51722">
        <ele>35.4</ele>
        <time>2021-09-03T18:26:17.392Z</time>
      </trkpt>
      <trkpt lat="50.42535" lon="3.51716">
        <ele>35.4</ele>
        <time>2021-09-03T18:26:19.000Z</time>
      </trkpt>
      <trkpt lat="50.42532" lon="3.51706">
        <ele>35.6</ele>
        <time>2021-09-03T18:26:20.375Z</time>
      </trkpt>
      <trkpt lat="50.42529" lon="3.51697">
        <ele>35.9</ele>
        <time>2021-09-03T18:26:21.834Z</time>
      </trkpt>
      <trkpt lat="50.42525" lon="3.51689">
        <ele>35.7</ele>
        <time>2021-09-03T18:26:23.258Z</time>
      </trkpt>
      <trkpt lat="50.42522" lon="3.51683">
        <ele>35.5</ele>
        <time>2021-09-03T18:26:24.317Z</time>
      </trkpt>
      <trkpt lat="50.42519" lon="3.51675">
        <ele>35.2</ele>
        <time>2021-09-03T18:26:26.000Z</time>
      </trkpt>
      <trkpt lat="50.42516" lon="3.51668">
        <ele>35</ele>
        <time>2021-09-03T18:26:27.000Z</time>
      </trkpt>
      <trkpt lat="50.42513" lon="3.51661">
        <ele>35</ele>
        <time>2021-09-03T18:26:28.000Z</time>
      </trkpt>
      <trkpt lat="50.42509" lon="3.51648">
        <ele>35</ele>
        <time>2021-09-03T18:26:30.000Z</time>
      </trkpt>
      <trkpt lat="50.42506" lon="3.51641">
        <ele>35</ele>
        <time>2021-09-03T18:26:31.000Z</time>
      </trkpt>
      <trkpt lat="50.425" lon="3.51629">
        <ele>34.6</ele>
        <time>2021-09-03T18:26:33.000Z</time>
      </trkpt>
      <trkpt lat="50.42494" lon="3.51615">
        <ele>33.9</ele>
        <time>2021-09-03T18:26:35.000Z</time>
      </trkpt>
      <trkpt lat="50.42487" lon="3.51601">
        <ele>33.2</ele>
        <time>2021-09-03T18:26:37.000Z</time>
      </trkpt>
      <trkpt lat="50.42483" lon="3.51594">
        <ele>32.8</ele>
        <time>2021-09-03T18:26:38.000Z</time>
      </trkpt>
      <trkpt lat="50.4248" lon="3.51586">
        <ele>32.4</ele>
        <time>2021-09-03T18:26:39.000Z</time>
      </trkpt>
      <trkpt lat="50.42476" lon="3.51578">
        <ele>31.9</ele>
        <time>2021-09-03T18:26:40.000Z</time>
      </trkpt>
      <trkpt lat="50.42472" lon="3.51571">
        <ele>31.6</ele>
        <time>2021-09-03T18:26:41.000Z</time>
      </trkpt>
      <trkpt lat="50.42469" lon="3.51563">
        <ele>31.2</ele>
        <time>2021-09-03T18:26:42.000Z</time>
      </trkpt>
      <trkpt lat="50.42462" lon="3.51548">
        <ele>30.4</ele>
        <time>2021-09-03T18:26:44.000Z</time>
      </trkpt>
      <trkpt lat="50.42459" lon="3.51539">
        <ele>29.9</ele>
        <time>2021-09-03T18:26:45.000Z</time>
      </trkpt>
      <trkpt lat="50.42455" lon="3.51531">
        <ele>29.5</ele>
        <time>2021-09-03T18:26:46.000Z</time>
      </trkpt>
      <trkpt lat="50.42451" lon="3.51523">
        <ele>29.2</ele>
        <time>2021-09-03T18:26:47.000Z</time>
      </trkpt>
      <trkpt lat="50.42444" lon="3.51506">
        <ele>29</ele>
        <time>2021-09-03T18:26:49.000Z</time>
      </trkpt>
      <trkpt lat="50.4244" lon="3.51496">
        <ele>29</ele>
        <time>2021-09-03T18:26:50.000Z</time>
      </trkpt>
      <trkpt lat="50.42437" lon="3.51486">
        <ele>28.9</ele>
        <time>2021-09-03T18:26:51.000Z</time>
      </trkpt>
      <trkpt lat="50.42429" lon="3.51468">
        <ele>28.4</ele>
        <time>2021-09-03T18:26:53.000Z</time>
      </trkpt>
      <trkpt lat="50.4242" lon="3.51448">
        <ele>28</ele>
        <time>2021-09-03T18:26:55.000Z</time>
      </trkpt>
      <trkpt lat="50.42416" lon="3.51438">
        <ele>27.8</ele>
        <time>2021-09-03T18:26:56.000Z</time>
      </trkpt>
      <trkpt lat="50.42409" lon="3.5142">
        <ele>27.4</ele>
        <time>2021-09-03T18:26:58.000Z</time>
      </trkpt>
      <trkpt lat="50.42401" lon="3.514">
        <ele>27.2</ele>
        <time>2021-09-03T18:27:00.000Z</time>
      </trkpt>
      <trkpt lat="50.42397" lon="3.51389">
        <ele>27</ele>
        <time>2021-09-03T18:27:01.000Z</time>
      </trkpt>
      <trkpt lat="50.42392" lon="3.51379">
        <ele>27</ele>
        <time>2021-09-03T18:27:02.000Z</time>
      </trkpt>
      <trkpt lat="50.42387" lon="3.51368">
        <ele>27</ele>
        <time>2021-09-03T18:27:03.000Z</time>
      </trkpt>
      <trkpt lat="50.42383" lon="3.51357">
        <ele>27</ele>
        <time>2021-09-03T18:27:04.000Z</time>
      </trkpt>
      <trkpt lat="50.42374" lon="3.51335">
        <ele>27</ele>
        <time>2021-09-03T18:27:06.000Z</time>
      </trkpt>
      <trkpt lat="50.42365" lon="3.51314">
        <ele>27</ele>
        <time>2021-09-03T18:27:08.000Z</time>
      </trkpt>
      <trkpt lat="50.42357" lon="3.51293">
        <ele>27</ele>
        <time>2021-09-03T18:27:10.000Z</time>
      </trkpt>
      <trkpt lat="50.42352" lon="3.51282">
        <ele>27</ele>
        <time>2021-09-03T18:27:11.000Z</time>
      </trkpt>
      <trkpt lat="50.42348" lon="3.51271">
        <ele>27</ele>
        <time>2021-09-03T18:27:12.000Z</time>
      </trkpt>
      <trkpt lat="50.42344" lon="3.5126">
        <ele>27</ele>
        <time>2021-09-03T18:27:13.000Z</time>
      </trkpt>
      <trkpt lat="50.42335" lon="3.5124">
        <ele>27</ele>
        <time>2021-09-03T18:27:15.000Z</time>
      </trkpt>
      <trkpt lat="50.42328" lon="3.51221">
        <ele>27.2</ele>
        <time>2021-09-03T18:27:17.000Z</time>
      </trkpt>
      <trkpt lat="50.42322" lon="3.51202">
        <ele>27.4</ele>
        <time>2021-09-03T18:27:19.000Z</time>
      </trkpt>
      <trkpt lat="50.42318" lon="3.51192">
        <ele>27.6</ele>
        <time>2021-09-03T18:27:20.000Z</time>
      </trkpt>
      <trkpt lat="50.42314" lon="3.51182">
        <ele>27.8</ele>
        <time>2021-09-03T18:27:21.000Z</time>
      </trkpt>
      <trkpt lat="50.42311" lon="3.51172">
        <ele>28</ele>
        <time>2021-09-03T18:27:22.000Z</time>
      </trkpt>
      <trkpt lat="50.42307" lon="3.51163">
        <ele>28</ele>
        <time>2021-09-03T18:27:23.000Z</time>
      </trkpt>
      <trkpt lat="50.42298" lon="3.51146">
        <ele>28</ele>
        <time>2021-09-03T18:27:25.000Z</time>
      </trkpt>
      <trkpt lat="50.42294" lon="3.51137">
        <ele>28</ele>
        <time>2021-09-03T18:27:26.000Z</time>
      </trkpt>
      <trkpt lat="50.42288" lon="3.5112">
        <ele>28</ele>
        <time>2021-09-03T18:27:28.000Z</time>
      </trkpt>
      <trkpt lat="50.42285" lon="3.51112">
        <ele>28</ele>
        <time>2021-09-03T18:27:29.000Z</time>
      </trkpt>
      <trkpt lat="50.42282" lon="3.51103">
        <ele>27.8</ele>
        <time>2021-09-03T18:27:30.000Z</time>
      </trkpt>
      <trkpt lat="50.42273" lon="3.51085">
        <ele>27.1</ele>
        <time>2021-09-03T18:27:32.000Z</time>
      </trkpt>
      <trkpt lat="50.42266" lon="3.51068">
        <ele>27</ele>
        <time>2021-09-03T18:27:34.000Z</time>
      </trkpt>
      <trkpt lat="50.42263" lon="3.51059">
        <ele>27</ele>
        <time>2021-09-03T18:27:35.000Z</time>
      </trkpt>
      <trkpt lat="50.42256" lon="3.51039">
        <ele>27</ele>
        <time>2021-09-03T18:27:37.000Z</time>
      </trkpt>
      <trkpt lat="50.42249" lon="3.51022">
        <ele>27</ele>
        <time>2021-09-03T18:27:39.000Z</time>
      </trkpt>
      <trkpt lat="50.42242" lon="3.51006">
        <ele>26.8</ele>
        <time>2021-09-03T18:27:41.000Z</time>
      </trkpt>
      <trkpt lat="50.42239" lon="3.50998">
        <ele>26.6</ele>
        <time>2021-09-03T18:27:42.000Z</time>
      </trkpt>
      <trkpt lat="50.42232" lon="3.5098">
        <ele>26.1</ele>
        <time>2021-09-03T18:27:44.000Z</time>
      </trkpt>
      <trkpt lat="50.42229" lon="3.50972">
        <ele>26</ele>
        <time>2021-09-03T18:27:45.000Z</time>
      </trkpt>
      <trkpt lat="50.42221" lon="3.50956">
        <ele>26</ele>
        <time>2021-09-03T18:27:47.000Z</time>
      </trkpt>
      <trkpt lat="50.42217" lon="3.50949">
        <ele>26</ele>
        <time>2021-09-03T18:27:48.000Z</time>
      </trkpt>
      <trkpt lat="50.42213" lon="3.50941">
        <ele>26</ele>
        <time>2021-09-03T18:27:49.000Z</time>
      </trkpt>
      <trkpt lat="50.42207" lon="3.50926">
        <ele>26</ele>
        <time>2021-09-03T18:27:51.000Z</time>
      </trkpt>
      <trkpt lat="50.42204" lon="3.50918">
        <ele>26</ele>
        <time>2021-09-03T18:27:52.000Z</time>
      </trkpt>
      <trkpt lat="50.42201" lon="3.5091">
        <ele>26</ele>
        <time>2021-09-03T18:27:53.000Z</time>
      </trkpt>
      <trkpt lat="50.42195" lon="3.50895">
        <ele>26</ele>
        <time>2021-09-03T18:27:55.000Z</time>
      </trkpt>
      <trkpt lat="50.42191" lon="3.50887">
        <ele>25.8</ele>
        <time>2021-09-03T18:27:56.000Z</time>
      </trkpt>
      <trkpt lat="50.42184" lon="3.50871">
        <ele>25.2</ele>
        <time>2021-09-03T18:27:58.000Z</time>
      </trkpt>
      <trkpt lat="50.42181" lon="3.50863">
        <ele>25</ele>
        <time>2021-09-03T18:27:59.000Z</time>
      </trkpt>
      <trkpt lat="50.42175" lon="3.50846">
        <ele>25</ele>
        <time>2021-09-03T18:28:01.000Z</time>
      </trkpt>
      <trkpt lat="50.42168" lon="3.5083">
        <ele>25</ele>
        <time>2021-09-03T18:28:03.000Z</time>
      </trkpt>
      <trkpt lat="50.42161" lon="3.50814">
        <ele>25.1</ele>
        <time>2021-09-03T18:28:05.000Z</time>
      </trkpt>
      <trkpt lat="50.42158" lon="3.50807">
        <ele>25</ele>
        <time>2021-09-03T18:28:06.000Z</time>
      </trkpt>
      <trkpt lat="50.42155" lon="3.50799">
        <ele>25</ele>
        <time>2021-09-03T18:28:07.000Z</time>
      </trkpt>
      <trkpt lat="50.42152" lon="3.50791">
        <ele>25</ele>
        <time>2021-09-03T18:28:08.000Z</time>
      </trkpt>
      <trkpt lat="50.42149" lon="3.50784">
        <ele>25</ele>
        <time>2021-09-03T18:28:09.000Z</time>
      </trkpt>
      <trkpt lat="50.42143" lon="3.50772">
        <ele>25</ele>
        <time>2021-09-03T18:28:11.000Z</time>
      </trkpt>
      <trkpt lat="50.42141" lon="3.50765">
        <ele>25</ele>
        <time>2021-09-03T18:28:12.000Z</time>
      </trkpt>
      <trkpt lat="50.42135" lon="3.50754">
        <ele>25</ele>
        <time>2021-09-03T18:28:14.000Z</time>
      </trkpt>
      <trkpt lat="50.4213" lon="3.50743">
        <ele>25</ele>
        <time>2021-09-03T18:28:16.000Z</time>
      </trkpt>
      <trkpt lat="50.42124" lon="3.5073">
        <ele>25</ele>
        <time>2021-09-03T18:28:18.000Z</time>
      </trkpt>
      <trkpt lat="50.4212" lon="3.50715">
        <ele>25</ele>
        <time>2021-09-03T18:28:20.000Z</time>
      </trkpt>
      <trkpt lat="50.42118" lon="3.50708">
        <ele>25</ele>
        <time>2021-09-03T18:28:21.000Z</time>
      </trkpt>
      <trkpt lat="50.42113" lon="3.50696">
        <ele>25</ele>
        <time>2021-09-03T18:28:23.000Z</time>
      </trkpt>
      <trkpt lat="50.42108" lon="3.50687">
        <ele>25</ele>
        <time>2021-09-03T18:28:25.000Z</time>
      </trkpt>
      <trkpt lat="50.42104" lon="3.50675">
        <ele>25</ele>
        <time>2021-09-03T18:28:26.377Z</time>
      </trkpt>
      <trkpt lat="50.42101" lon="3.50666">
        <ele>25</ele>
        <time>2021-09-03T18:28:28.000Z</time>
      </trkpt>
      <trkpt lat="50.42097" lon="3.50654">
        <ele>25</ele>
        <time>2021-09-03T18:28:30.000Z</time>
      </trkpt>
      <trkpt lat="50.42093" lon="3.50647">
        <ele>25</ele>
        <time>2021-09-03T18:28:31.799Z</time>
      </trkpt>
      <trkpt lat="50.42089" lon="3.5064">
        <ele>25</ele>
        <time>2021-09-03T18:28:33.114Z</time>
      </trkpt>
      <trkpt lat="50.42086" lon="3.50633">
        <ele>25</ele>
        <time>2021-09-03T18:28:34.276Z</time>
      </trkpt>
      <trkpt lat="50.42084" lon="3.50626">
        <ele>25</ele>
        <time>2021-09-03T18:28:36.000Z</time>
      </trkpt>
      <trkpt lat="50.42079" lon="3.50616">
        <ele>25</ele>
        <time>2021-09-03T18:28:37.460Z</time>
      </trkpt>
      <trkpt lat="50.42075" lon="3.50609">
        <ele>25</ele>
        <time>2021-09-03T18:28:39.000Z</time>
      </trkpt>
      <trkpt lat="50.42073" lon="3.50603">
        <ele>25</ele>
        <time>2021-09-03T18:28:39.796Z</time>
      </trkpt>
      <trkpt lat="50.42069" lon="3.50589">
        <ele>25</ele>
        <time>2021-09-03T18:28:42.256Z</time>
      </trkpt>
      <trkpt lat="50.42066" lon="3.50582">
        <ele>25</ele>
        <time>2021-09-03T18:28:44.000Z</time>
      </trkpt>
      <trkpt lat="50.42062" lon="3.50574">
        <ele>25</ele>
        <time>2021-09-03T18:28:44.954Z</time>
      </trkpt>
      <trkpt lat="50.42058" lon="3.50564">
        <ele>25</ele>
        <time>2021-09-03T18:28:46.441Z</time>
      </trkpt>
      <trkpt lat="50.42056" lon="3.50558">
        <ele>25</ele>
        <time>2021-09-03T18:28:48.000Z</time>
      </trkpt>
      <trkpt lat="50.42051" lon="3.50548">
        <ele>25</ele>
        <time>2021-09-03T18:28:49.275Z</time>
      </trkpt>
      <trkpt lat="50.42049" lon="3.50541">
        <ele>25</ele>
        <time>2021-09-03T18:28:50.558Z</time>
      </trkpt>
      <trkpt lat="50.42044" lon="3.50531">
        <ele>25</ele>
        <time>2021-09-03T18:28:52.333Z</time>
      </trkpt>
      <trkpt lat="50.42042" lon="3.50524">
        <ele>25</ele>
        <time>2021-09-03T18:28:53.541Z</time>
      </trkpt>
      <trkpt lat="50.4204" lon="3.50517">
        <ele>25</ele>
        <time>2021-09-03T18:28:55.000Z</time>
      </trkpt>
      <trkpt lat="50.42036" lon="3.5051">
        <ele>25</ele>
        <time>2021-09-03T18:28:56.000Z</time>
      </trkpt>
      <trkpt lat="50.42033" lon="3.50503">
        <ele>25</ele>
        <time>2021-09-03T18:28:57.000Z</time>
      </trkpt>
      <trkpt lat="50.4203" lon="3.50496">
        <ele>25</ele>
        <time>2021-09-03T18:28:58.000Z</time>
      </trkpt>
      <trkpt lat="50.42027" lon="3.50489">
        <ele>25</ele>
        <time>2021-09-03T18:28:59.000Z</time>
      </trkpt>
      <trkpt lat="50.42022" lon="3.50476">
        <ele>25</ele>
        <time>2021-09-03T18:29:01.000Z</time>
      </trkpt>
      <trkpt lat="50.42015" lon="3.50463">
        <ele>25</ele>
        <time>2021-09-03T18:29:03.000Z</time>
      </trkpt>
      <trkpt lat="50.4201" lon="3.5045">
        <ele>25</ele>
        <time>2021-09-03T18:29:05.000Z</time>
      </trkpt>
      <trkpt lat="50.42005" lon="3.50436">
        <ele>25</ele>
        <time>2021-09-03T18:29:07.000Z</time>
      </trkpt>
      <trkpt lat="50.42002" lon="3.50429">
        <ele>25</ele>
        <time>2021-09-03T18:29:08.000Z</time>
      </trkpt>
      <trkpt lat="50.41995" lon="3.50416">
        <ele>25</ele>
        <time>2021-09-03T18:29:10.000Z</time>
      </trkpt>
      <trkpt lat="50.41992" lon="3.5041">
        <ele>25</ele>
        <time>2021-09-03T18:29:11.000Z</time>
      </trkpt>
      <trkpt lat="50.41989" lon="3.50403">
        <ele>25</ele>
        <time>2021-09-03T18:29:12.000Z</time>
      </trkpt>
      <trkpt lat="50.41987" lon="3.50396">
        <ele>25</ele>
        <time>2021-09-03T18:29:13.000Z</time>
      </trkpt>
      <trkpt lat="50.41981" lon="3.50384">
        <ele>25</ele>
        <time>2021-09-03T18:29:15.000Z</time>
      </trkpt>
      <trkpt lat="50.41976" lon="3.50371">
        <ele>25</ele>
        <time>2021-09-03T18:29:17.000Z</time>
      </trkpt>
      <trkpt lat="50.4197" lon="3.50358">
        <ele>25</ele>
        <time>2021-09-03T18:29:19.000Z</time>
      </trkpt>
      <trkpt lat="50.41968" lon="3.50351">
        <ele>25</ele>
        <time>2021-09-03T18:29:20.000Z</time>
      </trkpt>
      <trkpt lat="50.41966" lon="3.50344">
        <ele>25</ele>
        <time>2021-09-03T18:29:21.000Z</time>
      </trkpt>
      <trkpt lat="50.41963" lon="3.50337">
        <ele>25</ele>
        <time>2021-09-03T18:29:22.000Z</time>
      </trkpt>
      <trkpt lat="50.41957" lon="3.50323">
        <ele>25</ele>
        <time>2021-09-03T18:29:24.000Z</time>
      </trkpt>
      <trkpt lat="50.41952" lon="3.5031">
        <ele>25</ele>
        <time>2021-09-03T18:29:26.000Z</time>
      </trkpt>
      <trkpt lat="50.41949" lon="3.50301">
        <ele>25</ele>
        <time>2021-09-03T18:29:27.000Z</time>
      </trkpt>
      <trkpt lat="50.41946" lon="3.50294">
        <ele>25</ele>
        <time>2021-09-03T18:29:29.000Z</time>
      </trkpt>
      <trkpt lat="50.41943" lon="3.50288">
        <ele>25</ele>
        <time>2021-09-03T18:29:30.000Z</time>
      </trkpt>
      <trkpt lat="50.41938" lon="3.50274">
        <ele>25</ele>
        <time>2021-09-03T18:29:32.000Z</time>
      </trkpt>
      <trkpt lat="50.41935" lon="3.50264">
        <ele>25</ele>
        <time>2021-09-03T18:29:34.000Z</time>
      </trkpt>
      <trkpt lat="50.41929" lon="3.50249">
        <ele>25</ele>
        <time>2021-09-03T18:29:36.000Z</time>
      </trkpt>
      <trkpt lat="50.41925" lon="3.50242">
        <ele>25</ele>
        <time>2021-09-03T18:29:38.000Z</time>
      </trkpt>
      <trkpt lat="50.41922" lon="3.50236">
        <ele>25</ele>
        <time>2021-09-03T18:29:38.989Z</time>
      </trkpt>
      <trkpt lat="50.41919" lon="3.50229">
        <ele>25</ele>
        <time>2021-09-03T18:29:40.211Z</time>
      </trkpt>
      <trkpt lat="50.41915" lon="3.50216">
        <ele>25</ele>
        <time>2021-09-03T18:29:42.000Z</time>
      </trkpt>
      <trkpt lat="50.41911" lon="3.50206">
        <ele>25</ele>
        <time>2021-09-03T18:29:44.000Z</time>
      </trkpt>
      <trkpt lat="50.41909" lon="3.50199">
        <ele>25</ele>
        <time>2021-09-03T18:29:45.000Z</time>
      </trkpt>
      <trkpt lat="50.41903" lon="3.50185">
        <ele>25</ele>
        <time>2021-09-03T18:29:47.000Z</time>
      </trkpt>
      <trkpt lat="50.41896" lon="3.5017">
        <ele>25</ele>
        <time>2021-09-03T18:29:50.000Z</time>
      </trkpt>
      <trkpt lat="50.4189" lon="3.50156">
        <ele>25</ele>
        <time>2021-09-03T18:29:52.506Z</time>
      </trkpt>
      <trkpt lat="50.41886" lon="3.50147">
        <ele>25</ele>
        <time>2021-09-03T18:29:54.000Z</time>
      </trkpt>
      <trkpt lat="50.41883" lon="3.50142">
        <ele>25</ele>
        <time>2021-09-03T18:29:55.000Z</time>
      </trkpt>
      <trkpt lat="50.41882" lon="3.50131">
        <ele>25</ele>
        <time>2021-09-03T18:29:57.186Z</time>
      </trkpt>
      <trkpt lat="50.41877" lon="3.50125">
        <ele>25</ele>
        <time>2021-09-03T18:29:58.608Z</time>
      </trkpt>
      <trkpt lat="50.4187" lon="3.50115">
        <ele>25</ele>
        <time>2021-09-03T18:30:00.667Z</time>
      </trkpt>
      <trkpt lat="50.41867" lon="3.50109">
        <ele>25</ele>
        <time>2021-09-03T18:30:02.000Z</time>
      </trkpt>
      <trkpt lat="50.41864" lon="3.50103">
        <ele>25</ele>
        <time>2021-09-03T18:30:03.000Z</time>
      </trkpt>
      <trkpt lat="50.41859" lon="3.5009">
        <ele>25</ele>
        <time>2021-09-03T18:30:05.401Z</time>
      </trkpt>
      <trkpt lat="50.41854" lon="3.50076">
        <ele>25</ele>
        <time>2021-09-03T18:30:08.366Z</time>
      </trkpt>
      <trkpt lat="50.41851" lon="3.50069">
        <ele>25</ele>
        <time>2021-09-03T18:30:10.000Z</time>
      </trkpt>
      <trkpt lat="50.41847" lon="3.50057">
        <ele>25</ele>
        <time>2021-09-03T18:30:12.144Z</time>
      </trkpt>
      <trkpt lat="50.41843" lon="3.5005">
        <ele>25</ele>
        <time>2021-09-03T18:30:13.682Z</time>
      </trkpt>
      <trkpt lat="50.41839" lon="3.50045">
        <ele>25</ele>
        <time>2021-09-03T18:30:15.000Z</time>
      </trkpt>
      <trkpt lat="50.41833" lon="3.50037">
        <ele>25</ele>
        <time>2021-09-03T18:30:17.000Z</time>
      </trkpt>
      <trkpt lat="50.41828" lon="3.50024">
        <ele>25</ele>
        <time>2021-09-03T18:30:19.546Z</time>
      </trkpt>
      <trkpt lat="50.41827" lon="3.50016">
        <ele>25</ele>
        <time>2021-09-03T18:30:21.000Z</time>
      </trkpt>
      <trkpt lat="50.41825" lon="3.50006">
        <ele>25</ele>
        <time>2021-09-03T18:30:22.410Z</time>
      </trkpt>
      <trkpt lat="50.41823" lon="3.49998">
        <ele>25</ele>
        <time>2021-09-03T18:30:23.684Z</time>
      </trkpt>
      <trkpt lat="50.4182" lon="3.4999">
        <ele>25</ele>
        <time>2021-09-03T18:30:25.000Z</time>
      </trkpt>
      <trkpt lat="50.41814" lon="3.4998">
        <ele>25</ele>
        <time>2021-09-03T18:30:26.999Z</time>
      </trkpt>
      <trkpt lat="50.41811" lon="3.49974">
        <ele>25</ele>
        <time>2021-09-03T18:30:28.176Z</time>
      </trkpt>
      <trkpt lat="50.41809" lon="3.49962">
        <ele>25</ele>
        <time>2021-09-03T18:30:30.000Z</time>
      </trkpt>
      <trkpt lat="50.41801" lon="3.49947">
        <ele>25</ele>
        <time>2021-09-03T18:30:32.000Z</time>
      </trkpt>
      <trkpt lat="50.41794" lon="3.49933">
        <ele>25</ele>
        <time>2021-09-03T18:30:34.000Z</time>
      </trkpt>
      <trkpt lat="50.41786" lon="3.49919">
        <ele>25</ele>
        <time>2021-09-03T18:30:36.000Z</time>
      </trkpt>
      <trkpt lat="50.4178" lon="3.49906">
        <ele>25</ele>
        <time>2021-09-03T18:30:38.000Z</time>
      </trkpt>
      <trkpt lat="50.41773" lon="3.49889">
        <ele>25</ele>
        <time>2021-09-03T18:30:41.000Z</time>
      </trkpt>
      <trkpt lat="50.41768" lon="3.49872">
        <ele>25</ele>
        <time>2021-09-03T18:30:43.000Z</time>
      </trkpt>
      <trkpt lat="50.41763" lon="3.49857">
        <ele>25</ele>
        <time>2021-09-03T18:30:45.000Z</time>
      </trkpt>
      <trkpt lat="50.4176" lon="3.4985">
        <ele>25</ele>
        <time>2021-09-03T18:30:46.000Z</time>
      </trkpt>
      <trkpt lat="50.41755" lon="3.49837">
        <ele>25</ele>
        <time>2021-09-03T18:30:48.000Z</time>
      </trkpt>
      <trkpt lat="50.41752" lon="3.49831">
        <ele>25</ele>
        <time>2021-09-03T18:30:49.000Z</time>
      </trkpt>
      <trkpt lat="50.41747" lon="3.49819">
        <ele>25</ele>
        <time>2021-09-03T18:30:51.000Z</time>
      </trkpt>
      <trkpt lat="50.41745" lon="3.49812">
        <ele>25</ele>
        <time>2021-09-03T18:30:52.000Z</time>
      </trkpt>
      <trkpt lat="50.4174" lon="3.49798">
        <ele>25</ele>
        <time>2021-09-03T18:30:54.000Z</time>
      </trkpt>
      <trkpt lat="50.41737" lon="3.49791">
        <ele>25</ele>
        <time>2021-09-03T18:30:54.626Z</time>
      </trkpt>
      <trkpt lat="50.41733" lon="3.49782">
        <ele>25</ele>
        <time>2021-09-03T18:30:57.000Z</time>
      </trkpt>
      <trkpt lat="50.41726" lon="3.49764">
        <ele>25</ele>
        <time>2021-09-03T18:31:00.000Z</time>
      </trkpt>
      <trkpt lat="50.41721" lon="3.4976">
        <ele>25</ele>
        <time>2021-09-03T18:31:01.439Z</time>
      </trkpt>
      <trkpt lat="50.41715" lon="3.49743">
        <ele>25</ele>
        <time>2021-09-03T18:31:04.282Z</time>
      </trkpt>
      <trkpt lat="50.41712" lon="3.49736">
        <ele>25</ele>
        <time>2021-09-03T18:31:05.357Z</time>
      </trkpt>
      <trkpt lat="50.41709" lon="3.49728">
        <ele>25</ele>
        <time>2021-09-03T18:31:07.000Z</time>
      </trkpt>
      <trkpt lat="50.41706" lon="3.4972">
        <ele>25</ele>
        <time>2021-09-03T18:31:07.963Z</time>
      </trkpt>
      <trkpt lat="50.41703" lon="3.49712">
        <ele>25</ele>
        <time>2021-09-03T18:31:09.455Z</time>
      </trkpt>
      <trkpt lat="50.41698" lon="3.49698">
        <ele>25</ele>
        <time>2021-09-03T18:31:11.958Z</time>
      </trkpt>
      <trkpt lat="50.41694" lon="3.49691">
        <ele>25</ele>
        <time>2021-09-03T18:31:13.501Z</time>
      </trkpt>
      <trkpt lat="50.4169" lon="3.49678">
        <ele>25</ele>
        <time>2021-09-03T18:31:15.875Z</time>
      </trkpt>
      <trkpt lat="50.41687" lon="3.49671">
        <ele>25</ele>
        <time>2021-09-03T18:31:17.378Z</time>
      </trkpt>
      <trkpt lat="50.41683" lon="3.49661">
        <ele>25</ele>
        <time>2021-09-03T18:31:20.000Z</time>
      </trkpt>
      <trkpt lat="50.41679" lon="3.4965">
        <ele>25</ele>
        <time>2021-09-03T18:31:21.881Z</time>
      </trkpt>
      <trkpt lat="50.41674" lon="3.4964">
        <ele>25</ele>
        <time>2021-09-03T18:31:24.155Z</time>
      </trkpt>
      <trkpt lat="50.41672" lon="3.49634">
        <ele>25</ele>
        <time>2021-09-03T18:31:26.000Z</time>
      </trkpt>
      <trkpt lat="50.41669" lon="3.49623">
        <ele>25</ele>
        <time>2021-09-03T18:31:27.401Z</time>
      </trkpt>
      <trkpt lat="50.41665" lon="3.49612">
        <ele>25</ele>
        <time>2021-09-03T18:31:29.859Z</time>
      </trkpt>
      <trkpt lat="50.4166" lon="3.49601">
        <ele>25</ele>
        <time>2021-09-03T18:31:32.443Z</time>
      </trkpt>
      <trkpt lat="50.41655" lon="3.49587">
        <ele>25</ele>
        <time>2021-09-03T18:31:35.259Z</time>
      </trkpt>
      <trkpt lat="50.41651" lon="3.49579">
        <ele>25</ele>
        <time>2021-09-03T18:31:38.000Z</time>
      </trkpt>
      <trkpt lat="50.41648" lon="3.49573">
        <ele>25</ele>
        <time>2021-09-03T18:31:39.337Z</time>
      </trkpt>
      <trkpt lat="50.41644" lon="3.49563">
        <ele>25</ele>
        <time>2021-09-03T18:31:41.966Z</time>
      </trkpt>
      <trkpt lat="50.41642" lon="3.49556">
        <ele>25</ele>
        <time>2021-09-03T18:31:44.000Z</time>
      </trkpt>
      <trkpt lat="50.41639" lon="3.49548">
        <ele>25</ele>
        <time>2021-09-03T18:31:45.400Z</time>
      </trkpt>
      <trkpt lat="50.41635" lon="3.49538">
        <ele>25</ele>
        <time>2021-09-03T18:31:47.542Z</time>
      </trkpt>
      <trkpt lat="50.41632" lon="3.49531">
        <ele>25</ele>
        <time>2021-09-03T18:31:49.414Z</time>
      </trkpt>
      <trkpt lat="50.41628" lon="3.49523">
        <ele>25</ele>
        <time>2021-09-03T18:31:52.000Z</time>
      </trkpt>
      <trkpt lat="50.41624" lon="3.49513">
        <ele>25</ele>
        <time>2021-09-03T18:31:54.222Z</time>
      </trkpt>
      <trkpt lat="50.4162" lon="3.49504">
        <ele>25</ele>
        <time>2021-09-03T18:31:57.000Z</time>
      </trkpt>
      <trkpt lat="50.41616" lon="3.49492">
        <ele>25</ele>
        <time>2021-09-03T18:31:59.358Z</time>
      </trkpt>
      <trkpt lat="50.41611" lon="3.49482">
        <ele>25</ele>
        <time>2021-09-03T18:32:02.102Z</time>
      </trkpt>
      <trkpt lat="50.41607" lon="3.49471">
        <ele>25</ele>
        <time>2021-09-03T18:32:04.459Z</time>
      </trkpt>
      <trkpt lat="50.41602" lon="3.4946">
        <ele>25</ele>
        <time>2021-09-03T18:32:07.218Z</time>
      </trkpt>
      <trkpt lat="50.41599" lon="3.49452">
        <ele>25</ele>
        <time>2021-09-03T18:32:09.137Z</time>
      </trkpt>
      <trkpt lat="50.41594" lon="3.49443">
        <ele>25</ele>
        <time>2021-09-03T18:32:12.000Z</time>
      </trkpt>
      <trkpt lat="50.4159" lon="3.49434">
        <ele>25</ele>
        <time>2021-09-03T18:32:13.562Z</time>
      </trkpt>
      <trkpt lat="50.41585" lon="3.49424">
        <ele>25</ele>
        <time>2021-09-03T18:32:16.302Z</time>
      </trkpt>
      <trkpt lat="50.41581" lon="3.49414">
        <ele>25</ele>
        <time>2021-09-03T18:32:18.763Z</time>
      </trkpt>
      <trkpt lat="50.41577" lon="3.49404">
        <ele>25</ele>
        <time>2021-09-03T18:32:20.895Z</time>
      </trkpt>
      <trkpt lat="50.41573" lon="3.49395">
        <ele>25</ele>
        <time>2021-09-03T18:32:23.060Z</time>
      </trkpt>
      <trkpt lat="50.41571" lon="3.49389">
        <ele>25</ele>
        <time>2021-09-03T18:32:25.000Z</time>
      </trkpt>
      <trkpt lat="50.41568" lon="3.49382">
        <ele>25</ele>
        <time>2021-09-03T18:32:26.202Z</time>
      </trkpt>
      <trkpt lat="50.41564" lon="3.49372">
        <ele>25</ele>
        <time>2021-09-03T18:32:28.502Z</time>
      </trkpt>
      <trkpt lat="50.4156" lon="3.4936">
        <ele>25</ele>
        <time>2021-09-03T18:32:31.279Z</time>
      </trkpt>
      <trkpt lat="50.41557" lon="3.49349">
        <ele>25</ele>
        <time>2021-09-03T18:32:33.479Z</time>
      </trkpt>
      <trkpt lat="50.41554" lon="3.4934">
        <ele>25</ele>
        <time>2021-09-03T18:32:36.000Z</time>
      </trkpt>
      <trkpt lat="50.4155" lon="3.49331">
        <ele>25</ele>
        <time>2021-09-03T18:32:37.736Z</time>
      </trkpt>
      <trkpt lat="50.41546" lon="3.49321">
        <ele>25</ele>
        <time>2021-09-03T18:32:40.197Z</time>
      </trkpt>
      <trkpt lat="50.41542" lon="3.49312">
        <ele>25</ele>
        <time>2021-09-03T18:32:42.697Z</time>
      </trkpt>
      <trkpt lat="50.41538" lon="3.49303">
        <ele>25</ele>
        <time>2021-09-03T18:32:45.099Z</time>
      </trkpt>
      <trkpt lat="50.41535" lon="3.49293">
        <ele>25</ele>
        <time>2021-09-03T18:32:47.478Z</time>
      </trkpt>
      <trkpt lat="50.4153" lon="3.49282">
        <ele>25</ele>
        <time>2021-09-03T18:32:50.113Z</time>
      </trkpt>
      <trkpt lat="50.41525" lon="3.49274">
        <ele>25</ele>
        <time>2021-09-03T18:32:52.499Z</time>
      </trkpt>
      <trkpt lat="50.41521" lon="3.49266">
        <ele>25</ele>
        <time>2021-09-03T18:32:55.000Z</time>
      </trkpt>
      <trkpt lat="50.41518" lon="3.4926">
        <ele>25</ele>
        <time>2021-09-03T18:32:56.177Z</time>
      </trkpt>
      <trkpt lat="50.41514" lon="3.49251">
        <ele>25</ele>
        <time>2021-09-03T18:32:59.000Z</time>
      </trkpt>
      <trkpt lat="50.41509" lon="3.49241">
        <ele>25</ele>
        <time>2021-09-03T18:33:01.201Z</time>
      </trkpt>
      <trkpt lat="50.41506" lon="3.49227">
        <ele>25</ele>
        <time>2021-09-03T18:33:04.119Z</time>
      </trkpt>
      <trkpt lat="50.41502" lon="3.49217">
        <ele>25</ele>
        <time>2021-09-03T18:33:06.539Z</time>
      </trkpt>
      <trkpt lat="50.41498" lon="3.49208">
        <ele>25</ele>
        <time>2021-09-03T18:33:08.415Z</time>
      </trkpt>
      <trkpt lat="50.41495" lon="3.49199">
        <ele>25</ele>
        <time>2021-09-03T18:33:11.000Z</time>
      </trkpt>
      <trkpt lat="50.41493" lon="3.49193">
        <ele>25</ele>
        <time>2021-09-03T18:33:12.101Z</time>
      </trkpt>
      <trkpt lat="50.4149" lon="3.49187">
        <ele>25</ele>
        <time>2021-09-03T18:33:14.000Z</time>
      </trkpt>
      <trkpt lat="50.41486" lon="3.49174">
        <ele>25</ele>
        <time>2021-09-03T18:33:16.039Z</time>
      </trkpt>
      <trkpt lat="50.41481" lon="3.4916">
        <ele>25</ele>
        <time>2021-09-03T18:33:20.000Z</time>
      </trkpt>
      <trkpt lat="50.41476" lon="3.49153">
        <ele>25</ele>
        <time>2021-09-03T18:33:21.260Z</time>
      </trkpt>
      <trkpt lat="50.41472" lon="3.49145">
        <ele>25</ele>
        <time>2021-09-03T18:33:24.000Z</time>
      </trkpt>
      <trkpt lat="50.41468" lon="3.49134">
        <ele>25</ele>
        <time>2021-09-03T18:33:26.058Z</time>
      </trkpt>
      <trkpt lat="50.41463" lon="3.49122">
        <ele>25</ele>
        <time>2021-09-03T18:33:29.000Z</time>
      </trkpt>
      <trkpt lat="50.4146" lon="3.49114">
        <ele>25</ele>
        <time>2021-09-03T18:33:30.241Z</time>
      </trkpt>
      <trkpt lat="50.41456" lon="3.49104">
        <ele>25</ele>
        <time>2021-09-03T18:33:33.000Z</time>
      </trkpt>
      <trkpt lat="50.41451" lon="3.49091">
        <ele>25</ele>
        <time>2021-09-03T18:33:35.238Z</time>
      </trkpt>
      <trkpt lat="50.41448" lon="3.49085">
        <ele>25</ele>
        <time>2021-09-03T18:33:37.000Z</time>
      </trkpt>
      <trkpt lat="50.41444" lon="3.49075">
        <ele>25</ele>
        <time>2021-09-03T18:33:39.000Z</time>
      </trkpt>
      <trkpt lat="50.41441" lon="3.49069">
        <ele>25</ele>
        <time>2021-09-03T18:33:39.895Z</time>
      </trkpt>
      <trkpt lat="50.41438" lon="3.49061">
        <ele>25</ele>
        <time>2021-09-03T18:33:41.394Z</time>
      </trkpt>
      <trkpt lat="50.41434" lon="3.4905">
        <ele>25</ele>
        <time>2021-09-03T18:33:42.554Z</time>
      </trkpt>
      <trkpt lat="50.41431" lon="3.49042">
        <ele>25</ele>
        <time>2021-09-03T18:33:44.396Z</time>
      </trkpt>
      <trkpt lat="50.41427" lon="3.49033">
        <ele>25</ele>
        <time>2021-09-03T18:33:47.000Z</time>
      </trkpt>
      <trkpt lat="50.41423" lon="3.49024">
        <ele>25</ele>
        <time>2021-09-03T18:33:48.213Z</time>
      </trkpt>
      <trkpt lat="50.4142" lon="3.49014">
        <ele>25</ele>
        <time>2021-09-03T18:33:49.675Z</time>
      </trkpt>
      <trkpt lat="50.41418" lon="3.49008">
        <ele>25</ele>
        <time>2021-09-03T18:33:50.884Z</time>
      </trkpt>
      <trkpt lat="50.41415" lon="3.49002">
        <ele>25</ele>
        <time>2021-09-03T18:33:52.060Z</time>
      </trkpt>
      <trkpt lat="50.41413" lon="3.48995">
        <ele>25</ele>
        <time>2021-09-03T18:33:53.257Z</time>
      </trkpt>
      <trkpt lat="50.4141" lon="3.48989">
        <ele>25</ele>
        <time>2021-09-03T18:33:54.540Z</time>
      </trkpt>
      <trkpt lat="50.41405" lon="3.48979">
        <ele>25</ele>
        <time>2021-09-03T18:33:56.354Z</time>
      </trkpt>
      <trkpt lat="50.41402" lon="3.48973">
        <ele>25</ele>
        <time>2021-09-03T18:33:57.477Z</time>
      </trkpt>
      <trkpt lat="50.41399" lon="3.48966">
        <ele>25</ele>
        <time>2021-09-03T18:33:58.795Z</time>
      </trkpt>
      <trkpt lat="50.41396" lon="3.4896">
        <ele>25</ele>
        <time>2021-09-03T18:33:59.815Z</time>
      </trkpt>
      <trkpt lat="50.41392" lon="3.48952">
        <ele>25</ele>
        <time>2021-09-03T18:34:01.155Z</time>
      </trkpt>
      <trkpt lat="50.41388" lon="3.48942">
        <ele>25</ele>
        <time>2021-09-03T18:34:03.000Z</time>
      </trkpt>
      <trkpt lat="50.41384" lon="3.48938">
        <ele>25</ele>
        <time>2021-09-03T18:34:03.887Z</time>
      </trkpt>
      <trkpt lat="50.4138" lon="3.48922">
        <ele>25</ele>
        <time>2021-09-03T18:34:06.000Z</time>
      </trkpt>
      <trkpt lat="50.41376" lon="3.48912">
        <ele>25</ele>
        <time>2021-09-03T18:34:07.345Z</time>
      </trkpt>
      <trkpt lat="50.41372" lon="3.489">
        <ele>25</ele>
        <time>2021-09-03T18:34:10.000Z</time>
      </trkpt>
      <trkpt lat="50.41368" lon="3.48891">
        <ele>25</ele>
        <time>2021-09-03T18:34:11.119Z</time>
      </trkpt>
      <trkpt lat="50.41365" lon="3.48884">
        <ele>25</ele>
        <time>2021-09-03T18:34:12.284Z</time>
      </trkpt>
      <trkpt lat="50.41362" lon="3.48876">
        <ele>25</ele>
        <time>2021-09-03T18:34:14.000Z</time>
      </trkpt>
      <trkpt lat="50.41356" lon="3.48865">
        <ele>25</ele>
        <time>2021-09-03T18:34:16.043Z</time>
      </trkpt>
      <trkpt lat="50.41353" lon="3.4885">
        <ele>25</ele>
        <time>2021-09-03T18:34:18.000Z</time>
      </trkpt>
      <trkpt lat="50.41348" lon="3.48835">
        <ele>25</ele>
        <time>2021-09-03T18:34:20.000Z</time>
      </trkpt>
      <trkpt lat="50.41342" lon="3.48822">
        <ele>25</ele>
        <time>2021-09-03T18:34:22.000Z</time>
      </trkpt>
      <trkpt lat="50.41339" lon="3.48815">
        <ele>25</ele>
        <time>2021-09-03T18:34:23.000Z</time>
      </trkpt>
      <trkpt lat="50.41332" lon="3.48797">
        <ele>25</ele>
        <time>2021-09-03T18:34:26.000Z</time>
      </trkpt>
      <trkpt lat="50.41325" lon="3.48783">
        <ele>24.7</ele>
        <time>2021-09-03T18:34:28.000Z</time>
      </trkpt>
      <trkpt lat="50.41322" lon="3.48776">
        <ele>24.6</ele>
        <time>2021-09-03T18:34:29.000Z</time>
      </trkpt>
      <trkpt lat="50.41317" lon="3.48764">
        <ele>24.4</ele>
        <time>2021-09-03T18:34:31.000Z</time>
      </trkpt>
      <trkpt lat="50.41312" lon="3.48748">
        <ele>24.2</ele>
        <time>2021-09-03T18:34:34.110Z</time>
      </trkpt>
      <trkpt lat="50.41309" lon="3.4874">
        <ele>24.1</ele>
        <time>2021-09-03T18:34:35.334Z</time>
      </trkpt>
      <trkpt lat="50.41305" lon="3.48728">
        <ele>24</ele>
        <time>2021-09-03T18:34:38.000Z</time>
      </trkpt>
      <trkpt lat="50.41302" lon="3.48721">
        <ele>24</ele>
        <time>2021-09-03T18:34:40.000Z</time>
      </trkpt>
      <trkpt lat="50.413" lon="3.48727">
        <ele>24</ele>
        <time>2021-09-03T18:35:03.000Z</time>
      </trkpt>
      <trkpt lat="50.41296" lon="3.4872">
        <ele>24</ele>
        <time>2021-09-03T18:35:50.886Z</time>
      </trkpt>
      <trkpt lat="50.41292" lon="3.48709">
        <ele>23.8</ele>
        <time>2021-09-03T18:35:55.000Z</time>
      </trkpt>
      <trkpt lat="50.41294" lon="3.48701">
        <ele>23.7</ele>
        <time>2021-09-03T18:35:57.289Z</time>
      </trkpt>
      <trkpt lat="50.4129" lon="3.48695">
        <ele>23.5</ele>
        <time>2021-09-03T18:35:58.496Z</time>
      </trkpt>
      <trkpt lat="50.41287" lon="3.48688">
        <ele>23.3</ele>
        <time>2021-09-03T18:36:00.000Z</time>
      </trkpt>
      <trkpt lat="50.41285" lon="3.48682">
        <ele>23.1</ele>
        <time>2021-09-03T18:36:00.694Z</time>
      </trkpt>
      <trkpt lat="50.41282" lon="3.48675">
        <ele>23</ele>
        <time>2021-09-03T18:36:01.929Z</time>
      </trkpt>
      <trkpt lat="50.41271" lon="3.48662">
        <ele>23</ele>
        <time>2021-09-03T18:36:04.000Z</time>
      </trkpt>
      <trkpt lat="50.41264" lon="3.48647">
        <ele>23</ele>
        <time>2021-09-03T18:36:06.000Z</time>
      </trkpt>
      <trkpt lat="50.41259" lon="3.48634">
        <ele>23</ele>
        <time>2021-09-03T18:36:08.000Z</time>
      </trkpt>
      <trkpt lat="50.41256" lon="3.48627">
        <ele>23</ele>
        <time>2021-09-03T18:36:09.000Z</time>
      </trkpt>
      <trkpt lat="50.41249" lon="3.48613">
        <ele>23</ele>
        <time>2021-09-03T18:36:11.000Z</time>
      </trkpt>
      <trkpt lat="50.41246" lon="3.48606">
        <ele>23</ele>
        <time>2021-09-03T18:36:12.000Z</time>
      </trkpt>
      <trkpt lat="50.4124" lon="3.48591">
        <ele>23</ele>
        <time>2021-09-03T18:36:14.000Z</time>
      </trkpt>
      <trkpt lat="50.41236" lon="3.48578">
        <ele>23</ele>
        <time>2021-09-03T18:36:16.000Z</time>
      </trkpt>
      <trkpt lat="50.41233" lon="3.48572">
        <ele>23</ele>
        <time>2021-09-03T18:36:17.000Z</time>
      </trkpt>
      <trkpt lat="50.4123" lon="3.48564">
        <ele>23</ele>
        <time>2021-09-03T18:36:18.000Z</time>
      </trkpt>
      <trkpt lat="50.41227" lon="3.48558">
        <ele>23</ele>
        <time>2021-09-03T18:36:19.000Z</time>
      </trkpt>
      <trkpt lat="50.41221" lon="3.48546">
        <ele>23</ele>
        <time>2021-09-03T18:36:21.000Z</time>
      </trkpt>
      <trkpt lat="50.41218" lon="3.48539">
        <ele>23</ele>
        <time>2021-09-03T18:36:23.000Z</time>
      </trkpt>
      <trkpt lat="50.41211" lon="3.48521">
        <ele>23</ele>
        <time>2021-09-03T18:36:26.000Z</time>
      </trkpt>
      <trkpt lat="50.41208" lon="3.48515">
        <ele>23</ele>
        <time>2021-09-03T18:36:27.000Z</time>
      </trkpt>
      <trkpt lat="50.41202" lon="3.48505">
        <ele>23</ele>
        <time>2021-09-03T18:36:29.120Z</time>
      </trkpt>
      <trkpt lat="50.41199" lon="3.48498">
        <ele>23</ele>
        <time>2021-09-03T18:36:31.000Z</time>
      </trkpt>
      <trkpt lat="50.41193" lon="3.48484">
        <ele>23</ele>
        <time>2021-09-03T18:36:33.198Z</time>
      </trkpt>
      <trkpt lat="50.41191" lon="3.48477">
        <ele>23</ele>
        <time>2021-09-03T18:36:34.426Z</time>
      </trkpt>
      <trkpt lat="50.41183" lon="3.48464">
        <ele>23</ele>
        <time>2021-09-03T18:37:10.058Z</time>
      </trkpt>
      <trkpt lat="50.41177" lon="3.48448">
        <ele>23</ele>
        <time>2021-09-03T18:37:13.282Z</time>
      </trkpt>
      <trkpt lat="50.41171" lon="3.4843">
        <ele>23</ele>
        <time>2021-09-03T18:37:17.000Z</time>
      </trkpt>
      <trkpt lat="50.41158" lon="3.48401">
        <ele>22.7</ele>
        <time>2021-09-03T18:37:21.000Z</time>
      </trkpt>
      <trkpt lat="50.41152" lon="3.48386">
        <ele>22.5</ele>
        <time>2021-09-03T18:37:23.988Z</time>
      </trkpt>
      <trkpt lat="50.41142" lon="3.48365">
        <ele>22.1</ele>
        <time>2021-09-03T18:37:27.447Z</time>
      </trkpt>
      <trkpt lat="50.41131" lon="3.48343">
        <ele>22</ele>
        <time>2021-09-03T18:37:31.000Z</time>
      </trkpt>
      <trkpt lat="50.41124" lon="3.48327">
        <ele>22.1</ele>
        <time>2021-09-03T18:37:34.000Z</time>
      </trkpt>
      <trkpt lat="50.41115" lon="3.48297">
        <ele>22.4</ele>
        <time>2021-09-03T18:37:38.000Z</time>
      </trkpt>
      <trkpt lat="50.41108" lon="3.48285">
        <ele>22.7</ele>
        <time>2021-09-03T18:37:40.986Z</time>
      </trkpt>
      <trkpt lat="50.41104" lon="3.48276">
        <ele>22.7</ele>
        <time>2021-09-03T18:37:42.321Z</time>
      </trkpt>
      <trkpt lat="50.41102" lon="3.48269">
        <ele>22.7</ele>
        <time>2021-09-03T18:37:44.000Z</time>
      </trkpt>
      <trkpt lat="50.41099" lon="3.48262">
        <ele>22.6</ele>
        <time>2021-09-03T18:37:44.765Z</time>
      </trkpt>
      <trkpt lat="50.41096" lon="3.48254">
        <ele>22.5</ele>
        <time>2021-09-03T18:37:46.105Z</time>
      </trkpt>
      <trkpt lat="50.41092" lon="3.48244">
        <ele>22.5</ele>
        <time>2021-09-03T18:37:48.000Z</time>
      </trkpt>
      <trkpt lat="50.41087" lon="3.48229">
        <ele>22.8</ele>
        <time>2021-09-03T18:37:50.000Z</time>
      </trkpt>
      <trkpt lat="50.41081" lon="3.48215">
        <ele>22.9</ele>
        <time>2021-09-03T18:37:52.000Z</time>
      </trkpt>
      <trkpt lat="50.41077" lon="3.48208">
        <ele>22.9</ele>
        <time>2021-09-03T18:37:53.000Z</time>
      </trkpt>
      <trkpt lat="50.4107" lon="3.48194">
        <ele>23</ele>
        <time>2021-09-03T18:37:55.000Z</time>
      </trkpt>
      <trkpt lat="50.41067" lon="3.48186">
        <ele>23</ele>
        <time>2021-09-03T18:37:56.000Z</time>
      </trkpt>
      <trkpt lat="50.41059" lon="3.48172">
        <ele>23</ele>
        <time>2021-09-03T18:37:58.000Z</time>
      </trkpt>
      <trkpt lat="50.41056" lon="3.4816">
        <ele>23</ele>
        <time>2021-09-03T18:38:00.000Z</time>
      </trkpt>
      <trkpt lat="50.41052" lon="3.48145">
        <ele>22.9</ele>
        <time>2021-09-03T18:38:02.000Z</time>
      </trkpt>
      <trkpt lat="50.41048" lon="3.48138">
        <ele>22.7</ele>
        <time>2021-09-03T18:38:03.000Z</time>
      </trkpt>
      <trkpt lat="50.41043" lon="3.48124">
        <ele>22.5</ele>
        <time>2021-09-03T18:38:05.000Z</time>
      </trkpt>
      <trkpt lat="50.41041" lon="3.48117">
        <ele>22.5</ele>
        <time>2021-09-03T18:38:06.000Z</time>
      </trkpt>
      <trkpt lat="50.41035" lon="3.48104">
        <ele>22.4</ele>
        <time>2021-09-03T18:38:08.000Z</time>
      </trkpt>
      <trkpt lat="50.41032" lon="3.48095">
        <ele>22.6</ele>
        <time>2021-09-03T18:38:10.000Z</time>
      </trkpt>
      <trkpt lat="50.41025" lon="3.48082">
        <ele>22.9</ele>
        <time>2021-09-03T18:38:12.000Z</time>
      </trkpt>
      <trkpt lat="50.41022" lon="3.48075">
        <ele>22.9</ele>
        <time>2021-09-03T18:38:13.000Z</time>
      </trkpt>
      <trkpt lat="50.41019" lon="3.48069">
        <ele>22.8</ele>
        <time>2021-09-03T18:38:14.000Z</time>
      </trkpt>
      <trkpt lat="50.41014" lon="3.48056">
        <ele>23</ele>
        <time>2021-09-03T18:38:16.000Z</time>
      </trkpt>
      <trkpt lat="50.41011" lon="3.48044">
        <ele>23</ele>
        <time>2021-09-03T18:38:17.860Z</time>
      </trkpt>
      <trkpt lat="50.41008" lon="3.48035">
        <ele>23</ele>
        <time>2021-09-03T18:38:20.000Z</time>
      </trkpt>
      <trkpt lat="50.41006" lon="3.48028">
        <ele>23</ele>
        <time>2021-09-03T18:38:21.000Z</time>
      </trkpt>
      <trkpt lat="50.41003" lon="3.48022">
        <ele>23</ele>
        <time>2021-09-03T18:38:22.000Z</time>
      </trkpt>
      <trkpt lat="50.40998" lon="3.48008">
        <ele>23</ele>
        <time>2021-09-03T18:38:24.000Z</time>
      </trkpt>
      <trkpt lat="50.40995" lon="3.48001">
        <ele>23</ele>
        <time>2021-09-03T18:38:25.000Z</time>
      </trkpt>
      <trkpt lat="50.4099" lon="3.47989">
        <ele>23</ele>
        <time>2021-09-03T18:38:27.000Z</time>
      </trkpt>
      <trkpt lat="50.40984" lon="3.47976">
        <ele>23</ele>
        <time>2021-09-03T18:38:29.000Z</time>
      </trkpt>
      <trkpt lat="50.40982" lon="3.4797">
        <ele>23</ele>
        <time>2021-09-03T18:38:30.000Z</time>
      </trkpt>
      <trkpt lat="50.40978" lon="3.47958">
        <ele>23</ele>
        <time>2021-09-03T18:38:32.000Z</time>
      </trkpt>
      <trkpt lat="50.40973" lon="3.47945">
        <ele>23</ele>
        <time>2021-09-03T18:38:34.000Z</time>
      </trkpt>
      <trkpt lat="50.40968" lon="3.47935">
        <ele>22.8</ele>
        <time>2021-09-03T18:38:36.000Z</time>
      </trkpt>
      <trkpt lat="50.40965" lon="3.47929">
        <ele>22.7</ele>
        <time>2021-09-03T18:38:37.000Z</time>
      </trkpt>
      <trkpt lat="50.40962" lon="3.4792">
        <ele>22.6</ele>
        <time>2021-09-03T18:38:38.323Z</time>
      </trkpt>
      <trkpt lat="50.40961" lon="3.47912">
        <ele>22.5</ele>
        <time>2021-09-03T18:38:40.000Z</time>
      </trkpt>
      <trkpt lat="50.40955" lon="3.47901">
        <ele>22.2</ele>
        <time>2021-09-03T18:38:42.000Z</time>
      </trkpt>
      <trkpt lat="50.4095" lon="3.47892">
        <ele>22</ele>
        <time>2021-09-03T18:38:42.948Z</time>
      </trkpt>
      <trkpt lat="50.40947" lon="3.47885">
        <ele>22</ele>
        <time>2021-09-03T18:38:44.209Z</time>
      </trkpt>
      <trkpt lat="50.40944" lon="3.47879">
        <ele>22</ele>
        <time>2021-09-03T18:38:46.000Z</time>
      </trkpt>
      <trkpt lat="50.4094" lon="3.47872">
        <ele>22</ele>
        <time>2021-09-03T18:38:46.952Z</time>
      </trkpt>
      <trkpt lat="50.40938" lon="3.47865">
        <ele>22</ele>
        <time>2021-09-03T18:38:48.166Z</time>
      </trkpt>
      <trkpt lat="50.40936" lon="3.47858">
        <ele>22</ele>
        <time>2021-09-03T18:38:49.410Z</time>
      </trkpt>
      <trkpt lat="50.40934" lon="3.47851">
        <ele>22</ele>
        <time>2021-09-03T18:38:50.505Z</time>
      </trkpt>
      <trkpt lat="50.40929" lon="3.47842">
        <ele>22</ele>
        <time>2021-09-03T18:38:52.086Z</time>
      </trkpt>
      <trkpt lat="50.40926" lon="3.47836">
        <ele>22</ele>
        <time>2021-09-03T18:38:53.349Z</time>
      </trkpt>
      <trkpt lat="50.40924" lon="3.47829">
        <ele>22</ele>
        <time>2021-09-03T18:38:55.000Z</time>
      </trkpt>
      <trkpt lat="50.4092" lon="3.47819">
        <ele>22</ele>
        <time>2021-09-03T18:38:56.410Z</time>
      </trkpt>
      <trkpt lat="50.40918" lon="3.47812">
        <ele>22</ele>
        <time>2021-09-03T18:38:57.504Z</time>
      </trkpt>
      <trkpt lat="50.40914" lon="3.47805">
        <ele>22</ele>
        <time>2021-09-03T18:38:59.000Z</time>
      </trkpt>
      <trkpt lat="50.40909" lon="3.47792">
        <ele>22</ele>
        <time>2021-09-03T18:39:01.000Z</time>
      </trkpt>
      <trkpt lat="50.40907" lon="3.47786">
        <ele>22</ele>
        <time>2021-09-03T18:39:02.000Z</time>
      </trkpt>
      <trkpt lat="50.40902" lon="3.47774">
        <ele>22</ele>
        <time>2021-09-03T18:39:04.000Z</time>
      </trkpt>
      <trkpt lat="50.40899" lon="3.47763">
        <ele>22</ele>
        <time>2021-09-03T18:39:06.385Z</time>
      </trkpt>
      <trkpt lat="50.40895" lon="3.47755">
        <ele>22</ele>
        <time>2021-09-03T18:39:08.000Z</time>
      </trkpt>
      <trkpt lat="50.40893" lon="3.47749">
        <ele>22</ele>
        <time>2021-09-03T18:39:09.000Z</time>
      </trkpt>
      <trkpt lat="50.40888" lon="3.47739">
        <ele>22.4</ele>
        <time>2021-09-03T18:39:10.128Z</time>
      </trkpt>
      <trkpt lat="50.40885" lon="3.47731">
        <ele>22.6</ele>
        <time>2021-09-03T18:39:12.000Z</time>
      </trkpt>
      <trkpt lat="50.40881" lon="3.47721">
        <ele>22.7</ele>
        <time>2021-09-03T18:39:13.243Z</time>
      </trkpt>
      <trkpt lat="50.40876" lon="3.47711">
        <ele>22.7</ele>
        <time>2021-09-03T18:39:15.244Z</time>
      </trkpt>
      <trkpt lat="50.40873" lon="3.47704">
        <ele>22.8</ele>
        <time>2021-09-03T18:39:17.000Z</time>
      </trkpt>
      <trkpt lat="50.40867" lon="3.47692">
        <ele>23</ele>
        <time>2021-09-03T18:39:19.203Z</time>
      </trkpt>
      <trkpt lat="50.40864" lon="3.47687">
        <ele>23</ele>
        <time>2021-09-03T18:39:21.000Z</time>
      </trkpt>
      <trkpt lat="50.40861" lon="3.47678">
        <ele>23</ele>
        <time>2021-09-03T18:39:23.000Z</time>
      </trkpt>
      <trkpt lat="50.40858" lon="3.47671">
        <ele>23</ele>
        <time>2021-09-03T18:39:24.348Z</time>
      </trkpt>
      <trkpt lat="50.40853" lon="3.47659">
        <ele>23</ele>
        <time>2021-09-03T18:39:27.288Z</time>
      </trkpt>
      <trkpt lat="50.40849" lon="3.47648">
        <ele>23</ele>
        <time>2021-09-03T18:39:30.000Z</time>
      </trkpt>
      <trkpt lat="50.40846" lon="3.4764">
        <ele>23</ele>
        <time>2021-09-03T18:39:31.424Z</time>
      </trkpt>
      <trkpt lat="50.40842" lon="3.47629">
        <ele>23</ele>
        <time>2021-09-03T18:39:34.042Z</time>
      </trkpt>
      <trkpt lat="50.4084" lon="3.47616">
        <ele>23</ele>
        <time>2021-09-03T18:39:36.532Z</time>
      </trkpt>
      <trkpt lat="50.40838" lon="3.47607">
        <ele>23</ele>
        <time>2021-09-03T18:39:38.468Z</time>
      </trkpt>
      <trkpt lat="50.40833" lon="3.47598">
        <ele>23</ele>
        <time>2021-09-03T18:39:41.000Z</time>
      </trkpt>
      <trkpt lat="50.40828" lon="3.47587">
        <ele>23</ele>
        <time>2021-09-03T18:39:43.231Z</time>
      </trkpt>
      <trkpt lat="50.40825" lon="3.47578">
        <ele>23</ele>
        <time>2021-09-03T18:39:45.045Z</time>
      </trkpt>
      <trkpt lat="50.40821" lon="3.47572">
        <ele>23</ele>
        <time>2021-09-03T18:39:47.000Z</time>
      </trkpt>
      <trkpt lat="50.40816" lon="3.47561">
        <ele>23</ele>
        <time>2021-09-03T18:39:49.282Z</time>
      </trkpt>
      <trkpt lat="50.40812" lon="3.47554">
        <ele>23</ele>
        <time>2021-09-03T18:39:52.000Z</time>
      </trkpt>
      <trkpt lat="50.40808" lon="3.47548">
        <ele>23</ele>
        <time>2021-09-03T18:39:52.744Z</time>
      </trkpt>
      <trkpt lat="50.40805" lon="3.4754">
        <ele>23</ele>
        <time>2021-09-03T18:39:55.208Z</time>
      </trkpt>
      <trkpt lat="50.40801" lon="3.47531">
        <ele>23</ele>
        <time>2021-09-03T18:39:58.000Z</time>
      </trkpt>
      <trkpt lat="50.40798" lon="3.47518">
        <ele>22.9</ele>
        <time>2021-09-03T18:40:00.070Z</time>
      </trkpt>
      <trkpt lat="50.40794" lon="3.47508">
        <ele>22.7</ele>
        <time>2021-09-03T18:40:02.065Z</time>
      </trkpt>
      <trkpt lat="50.40791" lon="3.47502">
        <ele>22.5</ele>
        <time>2021-09-03T18:40:04.000Z</time>
      </trkpt>
      <trkpt lat="50.40785" lon="3.4749">
        <ele>22.2</ele>
        <time>2021-09-03T18:40:06.125Z</time>
      </trkpt>
      <trkpt lat="50.40782" lon="3.47483">
        <ele>22.1</ele>
        <time>2021-09-03T18:40:08.000Z</time>
      </trkpt>
      <trkpt lat="50.40778" lon="3.47475">
        <ele>22</ele>
        <time>2021-09-03T18:40:09.185Z</time>
      </trkpt>
      <trkpt lat="50.40775" lon="3.47467">
        <ele>21.7</ele>
        <time>2021-09-03T18:40:10.268Z</time>
      </trkpt>
      <trkpt lat="50.40771" lon="3.47456">
        <ele>21.3</ele>
        <time>2021-09-03T18:40:13.000Z</time>
      </trkpt>
      <trkpt lat="50.40767" lon="3.47448">
        <ele>21.1</ele>
        <time>2021-09-03T18:40:14.227Z</time>
      </trkpt>
      <trkpt lat="50.40762" lon="3.47441">
        <ele>20.9</ele>
        <time>2021-09-03T18:40:16.000Z</time>
      </trkpt>
      <trkpt lat="50.40756" lon="3.47429">
        <ele>20.6</ele>
        <time>2021-09-03T18:40:18.000Z</time>
      </trkpt>
      <trkpt lat="50.40753" lon="3.47422">
        <ele>20.3</ele>
        <time>2021-09-03T18:40:19.000Z</time>
      </trkpt>
      <trkpt lat="50.40748" lon="3.47408">
        <ele>20</ele>
        <time>2021-09-03T18:40:21.000Z</time>
      </trkpt>
      <trkpt lat="50.40742" lon="3.47395">
        <ele>20</ele>
        <time>2021-09-03T18:40:23.000Z</time>
      </trkpt>
      <trkpt lat="50.40739" lon="3.47389">
        <ele>20</ele>
        <time>2021-09-03T18:40:24.000Z</time>
      </trkpt>
      <trkpt lat="50.40734" lon="3.47376">
        <ele>20</ele>
        <time>2021-09-03T18:40:26.000Z</time>
      </trkpt>
      <trkpt lat="50.40731" lon="3.47368">
        <ele>20</ele>
        <time>2021-09-03T18:40:27.000Z</time>
      </trkpt>
      <trkpt lat="50.40728" lon="3.47351">
        <ele>20</ele>
        <time>2021-09-03T18:40:29.000Z</time>
      </trkpt>
      <trkpt lat="50.40727" lon="3.47342">
        <ele>20</ele>
        <time>2021-09-03T18:40:30.000Z</time>
      </trkpt>
      <trkpt lat="50.40726" lon="3.47324">
        <ele>20</ele>
        <time>2021-09-03T18:40:32.000Z</time>
      </trkpt>
      <trkpt lat="50.40724" lon="3.47315">
        <ele>20</ele>
        <time>2021-09-03T18:40:33.000Z</time>
      </trkpt>
      <trkpt lat="50.4072" lon="3.47294">
        <ele>19.5</ele>
        <time>2021-09-03T18:40:35.000Z</time>
      </trkpt>
      <trkpt lat="50.40716" lon="3.47272">
        <ele>19</ele>
        <time>2021-09-03T18:40:37.000Z</time>
      </trkpt>
      <trkpt lat="50.40713" lon="3.47251">
        <ele>19</ele>
        <time>2021-09-03T18:40:39.000Z</time>
      </trkpt>
      <trkpt lat="50.40711" lon="3.47241">
        <ele>19</ele>
        <time>2021-09-03T18:40:40.000Z</time>
      </trkpt>
      <trkpt lat="50.40708" lon="3.4722">
        <ele>19</ele>
        <time>2021-09-03T18:40:42.000Z</time>
      </trkpt>
      <trkpt lat="50.40702" lon="3.47202">
        <ele>19</ele>
        <time>2021-09-03T18:40:44.000Z</time>
      </trkpt>
      <trkpt lat="50.40701" lon="3.47191">
        <ele>19</ele>
        <time>2021-09-03T18:40:45.000Z</time>
      </trkpt>
      <trkpt lat="50.407" lon="3.47181">
        <ele>19</ele>
        <time>2021-09-03T18:40:46.000Z</time>
      </trkpt>
      <trkpt lat="50.40698" lon="3.47171">
        <ele>19</ele>
        <time>2021-09-03T18:40:47.000Z</time>
      </trkpt>
      <trkpt lat="50.40696" lon="3.47162">
        <ele>18.8</ele>
        <time>2021-09-03T18:40:48.000Z</time>
      </trkpt>
      <trkpt lat="50.40695" lon="3.47152">
        <ele>18.5</ele>
        <time>2021-09-03T18:40:49.000Z</time>
      </trkpt>
      <trkpt lat="50.40692" lon="3.47132">
        <ele>18</ele>
        <time>2021-09-03T18:40:51.000Z</time>
      </trkpt>
      <trkpt lat="50.40689" lon="3.47114">
        <ele>18</ele>
        <time>2021-09-03T18:40:53.000Z</time>
      </trkpt>
      <trkpt lat="50.40685" lon="3.47094">
        <ele>18</ele>
        <time>2021-09-03T18:40:55.000Z</time>
      </trkpt>
      <trkpt lat="50.40683" lon="3.47085">
        <ele>18</ele>
        <time>2021-09-03T18:40:56.000Z</time>
      </trkpt>
      <trkpt lat="50.40681" lon="3.47066">
        <ele>18</ele>
        <time>2021-09-03T18:40:58.000Z</time>
      </trkpt>
      <trkpt lat="50.40679" lon="3.47048">
        <ele>18</ele>
        <time>2021-09-03T18:41:00.000Z</time>
      </trkpt>
      <trkpt lat="50.40675" lon="3.4703">
        <ele>18</ele>
        <time>2021-09-03T18:41:02.000Z</time>
      </trkpt>
      <trkpt lat="50.40673" lon="3.47022">
        <ele>18</ele>
        <time>2021-09-03T18:41:03.000Z</time>
      </trkpt>
      <trkpt lat="50.40671" lon="3.47006">
        <ele>18</ele>
        <time>2021-09-03T18:41:05.000Z</time>
      </trkpt>
      <trkpt lat="50.40669" lon="3.46998">
        <ele>18</ele>
        <time>2021-09-03T18:41:06.000Z</time>
      </trkpt>
      <trkpt lat="50.40669" lon="3.46984">
        <ele>18</ele>
        <time>2021-09-03T18:41:08.000Z</time>
      </trkpt>
      <trkpt lat="50.40667" lon="3.46969">
        <ele>18.1</ele>
        <time>2021-09-03T18:41:10.000Z</time>
      </trkpt>
      <trkpt lat="50.40665" lon="3.46963">
        <ele>18.3</ele>
        <time>2021-09-03T18:41:11.000Z</time>
      </trkpt>
      <trkpt lat="50.40664" lon="3.46949">
        <ele>18.8</ele>
        <time>2021-09-03T18:41:13.000Z</time>
      </trkpt>
      <trkpt lat="50.40662" lon="3.46936">
        <ele>19</ele>
        <time>2021-09-03T18:41:15.000Z</time>
      </trkpt>
      <trkpt lat="50.40658" lon="3.46921">
        <ele>19</ele>
        <time>2021-09-03T18:41:17.000Z</time>
      </trkpt>
      <trkpt lat="50.40655" lon="3.46909">
        <ele>19</ele>
        <time>2021-09-03T18:41:19.000Z</time>
      </trkpt>
      <trkpt lat="50.40655" lon="3.46902">
        <ele>19</ele>
        <time>2021-09-03T18:41:20.000Z</time>
      </trkpt>
      <trkpt lat="50.40653" lon="3.4689">
        <ele>19</ele>
        <time>2021-09-03T18:41:22.000Z</time>
      </trkpt>
      <trkpt lat="50.40651" lon="3.46883">
        <ele>19</ele>
        <time>2021-09-03T18:41:23.000Z</time>
      </trkpt>
      <trkpt lat="50.4065" lon="3.46873">
        <ele>19</ele>
        <time>2021-09-03T18:41:25.000Z</time>
      </trkpt>
      <trkpt lat="50.40652" lon="3.46865">
        <ele>19</ele>
        <time>2021-09-03T18:41:26.441Z</time>
      </trkpt>
      <trkpt lat="50.40649" lon="3.46856">
        <ele>19</ele>
        <time>2021-09-03T18:41:28.000Z</time>
      </trkpt>
      <trkpt lat="50.40645" lon="3.46843">
        <ele>19</ele>
        <time>2021-09-03T18:41:30.000Z</time>
      </trkpt>
      <trkpt lat="50.40644" lon="3.46836">
        <ele>19</ele>
        <time>2021-09-03T18:41:31.000Z</time>
      </trkpt>
      <trkpt lat="50.40642" lon="3.46823">
        <ele>19</ele>
        <time>2021-09-03T18:41:33.000Z</time>
      </trkpt>
      <trkpt lat="50.4064" lon="3.46814">
        <ele>19</ele>
        <time>2021-09-03T18:41:34.000Z</time>
      </trkpt>
      <trkpt lat="50.40638" lon="3.46802">
        <ele>18.9</ele>
        <time>2021-09-03T18:41:36.000Z</time>
      </trkpt>
      <trkpt lat="50.40636" lon="3.46792">
        <ele>18.5</ele>
        <time>2021-09-03T18:41:38.000Z</time>
      </trkpt>
      <trkpt lat="50.40633" lon="3.46781">
        <ele>18.1</ele>
        <time>2021-09-03T18:41:40.000Z</time>
      </trkpt>
      <trkpt lat="50.4063" lon="3.46763">
        <ele>18</ele>
        <time>2021-09-03T18:41:43.000Z</time>
      </trkpt>
      <trkpt lat="50.40628" lon="3.46752">
        <ele>18</ele>
        <time>2021-09-03T18:41:44.479Z</time>
      </trkpt>
      <trkpt lat="50.40626" lon="3.46745">
        <ele>18</ele>
        <time>2021-09-03T18:41:46.000Z</time>
      </trkpt>
      <trkpt lat="50.40625" lon="3.46738">
        <ele>18</ele>
        <time>2021-09-03T18:41:46.697Z</time>
      </trkpt>
      <trkpt lat="50.40622" lon="3.46726">
        <ele>18</ele>
        <time>2021-09-03T18:41:49.000Z</time>
      </trkpt>
      <trkpt lat="50.40619" lon="3.46713">
        <ele>18</ele>
        <time>2021-09-03T18:41:51.000Z</time>
      </trkpt>
      <trkpt lat="50.40616" lon="3.467">
        <ele>18</ele>
        <time>2021-09-03T18:41:52.280Z</time>
      </trkpt>
      <trkpt lat="50.40614" lon="3.46689">
        <ele>18.2</ele>
        <time>2021-09-03T18:41:55.000Z</time>
      </trkpt>
      <trkpt lat="50.40612" lon="3.46677">
        <ele>18.6</ele>
        <time>2021-09-03T18:41:57.000Z</time>
      </trkpt>
      <trkpt lat="50.4061" lon="3.46666">
        <ele>19</ele>
        <time>2021-09-03T18:41:59.000Z</time>
      </trkpt>
      <trkpt lat="50.40606" lon="3.46649">
        <ele>19</ele>
        <time>2021-09-03T18:42:02.000Z</time>
      </trkpt>
      <trkpt lat="50.406" lon="3.46623">
        <ele>19</ele>
        <time>2021-09-03T18:42:06.644Z</time>
      </trkpt>
      <trkpt lat="50.40596" lon="3.46603">
        <ele>19</ele>
        <time>2021-09-03T18:42:10.393Z</time>
      </trkpt>
      <trkpt lat="50.40592" lon="3.46584">
        <ele>19</ele>
        <time>2021-09-03T18:42:14.000Z</time>
      </trkpt>
      <trkpt lat="50.40587" lon="3.4656">
        <ele>19</ele>
        <time>2021-09-03T18:42:18.000Z</time>
      </trkpt>
      <trkpt lat="50.40584" lon="3.46542">
        <ele>19</ele>
        <time>2021-09-03T18:42:21.000Z</time>
      </trkpt>
      <trkpt lat="50.40579" lon="3.46519">
        <ele>19</ele>
        <time>2021-09-03T18:42:25.000Z</time>
      </trkpt>
      <trkpt lat="50.40576" lon="3.46498">
        <ele>19</ele>
        <time>2021-09-03T18:42:28.000Z</time>
      </trkpt>
      <trkpt lat="50.40572" lon="3.46475">
        <ele>19</ele>
        <time>2021-09-03T18:42:31.119Z</time>
      </trkpt>
      <trkpt lat="50.40568" lon="3.46451">
        <ele>19</ele>
        <time>2021-09-03T18:42:34.540Z</time>
      </trkpt>
      <trkpt lat="50.40563" lon="3.46432">
        <ele>19.4</ele>
        <time>2021-09-03T18:42:37.769Z</time>
      </trkpt>
      <trkpt lat="50.40561" lon="3.46408">
        <ele>20.3</ele>
        <time>2021-09-03T18:42:42.000Z</time>
      </trkpt>
      <trkpt lat="50.40557" lon="3.46379">
        <ele>21.4</ele>
        <time>2021-09-03T18:42:46.000Z</time>
      </trkpt>
      <trkpt lat="50.40551" lon="3.46361">
        <ele>21.8</ele>
        <time>2021-09-03T18:42:49.000Z</time>
      </trkpt>
      <trkpt lat="50.40547" lon="3.46335">
        <ele>22.6</ele>
        <time>2021-09-03T18:42:53.000Z</time>
      </trkpt>
      <trkpt lat="50.40543" lon="3.46309">
        <ele>23</ele>
        <time>2021-09-03T18:42:57.000Z</time>
      </trkpt>
      <trkpt lat="50.40539" lon="3.46293">
        <ele>22.8</ele>
        <time>2021-09-03T18:43:00.000Z</time>
      </trkpt>
      <trkpt lat="50.40537" lon="3.46275">
        <ele>22.6</ele>
        <time>2021-09-03T18:43:03.000Z</time>
      </trkpt>
      <trkpt lat="50.40533" lon="3.4625">
        <ele>21.4</ele>
        <time>2021-09-03T18:43:07.000Z</time>
      </trkpt>
      <trkpt lat="50.4053" lon="3.46232">
        <ele>21.2</ele>
        <time>2021-09-03T18:43:10.000Z</time>
      </trkpt>
      <trkpt lat="50.40526" lon="3.46216">
        <ele>20.9</ele>
        <time>2021-09-03T18:43:13.000Z</time>
      </trkpt>
      <trkpt lat="50.40524" lon="3.46205">
        <ele>20.9</ele>
        <time>2021-09-03T18:43:14.128Z</time>
      </trkpt>
      <trkpt lat="50.40523" lon="3.46198">
        <ele>20.8</ele>
        <time>2021-09-03T18:43:16.000Z</time>
      </trkpt>
      <trkpt lat="50.4052" lon="3.46186">
        <ele>20.7</ele>
        <time>2021-09-03T18:43:18.000Z</time>
      </trkpt>
      <trkpt lat="50.40518" lon="3.46175">
        <ele>20.6</ele>
        <time>2021-09-03T18:43:20.000Z</time>
      </trkpt>
      <trkpt lat="50.40514" lon="3.46158">
        <ele>20.3</ele>
        <time>2021-09-03T18:43:22.212Z</time>
      </trkpt>
      <trkpt lat="50.40513" lon="3.4615">
        <ele>20.2</ele>
        <time>2021-09-03T18:43:24.000Z</time>
      </trkpt>
      <trkpt lat="50.40509" lon="3.46136">
        <ele>20</ele>
        <time>2021-09-03T18:43:26.000Z</time>
      </trkpt>
      <trkpt lat="50.40504" lon="3.46125">
        <ele>20</ele>
        <time>2021-09-03T18:43:28.000Z</time>
      </trkpt>
      <trkpt lat="50.40502" lon="3.46119">
        <ele>20</ele>
        <time>2021-09-03T18:43:29.000Z</time>
      </trkpt>
      <trkpt lat="50.40498" lon="3.46109">
        <ele>20</ele>
        <time>2021-09-03T18:43:30.429Z</time>
      </trkpt>
      <trkpt lat="50.40494" lon="3.46098">
        <ele>20</ele>
        <time>2021-09-03T18:43:33.000Z</time>
      </trkpt>
      <trkpt lat="50.40491" lon="3.46089">
        <ele>20</ele>
        <time>2021-09-03T18:43:33.948Z</time>
      </trkpt>
      <trkpt lat="50.40488" lon="3.46082">
        <ele>20</ele>
        <time>2021-09-03T18:43:35.331Z</time>
      </trkpt>
      <trkpt lat="50.40485" lon="3.46075">
        <ele>20</ele>
        <time>2021-09-03T18:43:36.631Z</time>
      </trkpt>
      <trkpt lat="50.40483" lon="3.46067">
        <ele>20</ele>
        <time>2021-09-03T18:43:38.047Z</time>
      </trkpt>
      <trkpt lat="50.40481" lon="3.46059">
        <ele>20</ele>
        <time>2021-09-03T18:43:39.428Z</time>
      </trkpt>
      <trkpt lat="50.40479" lon="3.46052">
        <ele>20</ele>
        <time>2021-09-03T18:43:41.000Z</time>
      </trkpt>
      <trkpt lat="50.40477" lon="3.46044">
        <ele>20</ele>
        <time>2021-09-03T18:43:41.889Z</time>
      </trkpt>
      <trkpt lat="50.40473" lon="3.46029">
        <ele>20</ele>
        <time>2021-09-03T18:43:45.000Z</time>
      </trkpt>
      <trkpt lat="50.4047" lon="3.46015">
        <ele>20.1</ele>
        <time>2021-09-03T18:43:46.887Z</time>
      </trkpt>
      <trkpt lat="50.40468" lon="3.46006">
        <ele>20.2</ele>
        <time>2021-09-03T18:43:49.000Z</time>
      </trkpt>
      <trkpt lat="50.40466" lon="3.45994">
        <ele>20.2</ele>
        <time>2021-09-03T18:43:51.000Z</time>
      </trkpt>
      <trkpt lat="50.40463" lon="3.45975">
        <ele>20.3</ele>
        <time>2021-09-03T18:43:54.000Z</time>
      </trkpt>
      <trkpt lat="50.4046" lon="3.45961">
        <ele>20.3</ele>
        <time>2021-09-03T18:43:56.485Z</time>
      </trkpt>
      <trkpt lat="50.40459" lon="3.45951">
        <ele>20.1</ele>
        <time>2021-09-03T18:44:00.000Z</time>
      </trkpt>
      <trkpt lat="50.40462" lon="3.45957">
        <ele>20.2</ele>
        <time>2021-09-03T18:44:12.000Z</time>
      </trkpt>
      <trkpt lat="50.40461" lon="3.45949">
        <ele>20.1</ele>
        <time>2021-09-03T18:44:25.000Z</time>
      </trkpt>
      <trkpt lat="50.40471" lon="3.45935">
        <ele>20</ele>
        <time>2021-09-03T18:44:28.000Z</time>
      </trkpt>
      <trkpt lat="50.40477" lon="3.45933">
        <ele>20</ele>
        <time>2021-09-03T18:44:29.000Z</time>
      </trkpt>
      <trkpt lat="50.40483" lon="3.4593">
        <ele>20</ele>
        <time>2021-09-03T18:44:30.000Z</time>
      </trkpt>
      <trkpt lat="50.40495" lon="3.45923">
        <ele>20</ele>
        <time>2021-09-03T18:44:32.000Z</time>
      </trkpt>
      <trkpt lat="50.40506" lon="3.45915">
        <ele>20</ele>
        <time>2021-09-03T18:44:34.000Z</time>
      </trkpt>
      <trkpt lat="50.40512" lon="3.4591">
        <ele>20</ele>
        <time>2021-09-03T18:44:35.000Z</time>
      </trkpt>
      <trkpt lat="50.40525" lon="3.45902">
        <ele>20</ele>
        <time>2021-09-03T18:44:37.000Z</time>
      </trkpt>
      <trkpt lat="50.40538" lon="3.45893">
        <ele>20</ele>
        <time>2021-09-03T18:44:39.000Z</time>
      </trkpt>
      <trkpt lat="50.40545" lon="3.45888">
        <ele>20</ele>
        <time>2021-09-03T18:44:40.000Z</time>
      </trkpt>
      <trkpt lat="50.40557" lon="3.45879">
        <ele>19.6</ele>
        <time>2021-09-03T18:44:42.000Z</time>
      </trkpt>
      <trkpt lat="50.40564" lon="3.45874">
        <ele>19.3</ele>
        <time>2021-09-03T18:44:43.000Z</time>
      </trkpt>
      <trkpt lat="50.40577" lon="3.45864">
        <ele>19</ele>
        <time>2021-09-03T18:44:45.000Z</time>
      </trkpt>
      <trkpt lat="50.40583" lon="3.45861">
        <ele>19</ele>
        <time>2021-09-03T18:44:46.000Z</time>
      </trkpt>
      <trkpt lat="50.4059" lon="3.45856">
        <ele>19</ele>
        <time>2021-09-03T18:44:47.000Z</time>
      </trkpt>
      <trkpt lat="50.40602" lon="3.45848">
        <ele>19</ele>
        <time>2021-09-03T18:44:49.000Z</time>
      </trkpt>
      <trkpt lat="50.40608" lon="3.45844">
        <ele>19</ele>
        <time>2021-09-03T18:44:50.000Z</time>
      </trkpt>
      <trkpt lat="50.4062" lon="3.45837">
        <ele>19</ele>
        <time>2021-09-03T18:44:52.000Z</time>
      </trkpt>
      <trkpt lat="50.40626" lon="3.45833">
        <ele>19</ele>
        <time>2021-09-03T18:44:53.000Z</time>
      </trkpt>
      <trkpt lat="50.40631" lon="3.45828">
        <ele>19</ele>
        <time>2021-09-03T18:44:54.000Z</time>
      </trkpt>
      <trkpt lat="50.40642" lon="3.45819">
        <ele>19</ele>
        <time>2021-09-03T18:44:56.000Z</time>
      </trkpt>
      <trkpt lat="50.40648" lon="3.45814">
        <ele>19</ele>
        <time>2021-09-03T18:44:57.000Z</time>
      </trkpt>
      <trkpt lat="50.40653" lon="3.45811">
        <ele>19</ele>
        <time>2021-09-03T18:44:58.000Z</time>
      </trkpt>
      <trkpt lat="50.40659" lon="3.45807">
        <ele>19</ele>
        <time>2021-09-03T18:44:59.000Z</time>
      </trkpt>
      <trkpt lat="50.40669" lon="3.45798">
        <ele>19</ele>
        <time>2021-09-03T18:45:01.000Z</time>
      </trkpt>
      <trkpt lat="50.40679" lon="3.4579">
        <ele>19</ele>
        <time>2021-09-03T18:45:03.000Z</time>
      </trkpt>
      <trkpt lat="50.40685" lon="3.45786">
        <ele>19</ele>
        <time>2021-09-03T18:45:04.000Z</time>
      </trkpt>
      <trkpt lat="50.40695" lon="3.45779">
        <ele>19</ele>
        <time>2021-09-03T18:45:06.000Z</time>
      </trkpt>
      <trkpt lat="50.40701" lon="3.45775">
        <ele>19</ele>
        <time>2021-09-03T18:45:07.000Z</time>
      </trkpt>
      <trkpt lat="50.40706" lon="3.45772">
        <ele>19</ele>
        <time>2021-09-03T18:45:08.000Z</time>
      </trkpt>
      <trkpt lat="50.40717" lon="3.45767">
        <ele>19</ele>
        <time>2021-09-03T18:45:10.000Z</time>
      </trkpt>
      <trkpt lat="50.40727" lon="3.4576">
        <ele>19</ele>
        <time>2021-09-03T18:45:12.000Z</time>
      </trkpt>
      <trkpt lat="50.40732" lon="3.45755">
        <ele>19</ele>
        <time>2021-09-03T18:45:13.000Z</time>
      </trkpt>
      <trkpt lat="50.40742" lon="3.45749">
        <ele>19</ele>
        <time>2021-09-03T18:45:15.000Z</time>
      </trkpt>
      <trkpt lat="50.40752" lon="3.45742">
        <ele>19</ele>
        <time>2021-09-03T18:45:17.000Z</time>
      </trkpt>
      <trkpt lat="50.40756" lon="3.45739">
        <ele>19</ele>
        <time>2021-09-03T18:45:18.000Z</time>
      </trkpt>
      <trkpt lat="50.40765" lon="3.45733">
        <ele>19</ele>
        <time>2021-09-03T18:45:20.000Z</time>
      </trkpt>
      <trkpt lat="50.4077" lon="3.4573">
        <ele>19</ele>
        <time>2021-09-03T18:45:21.000Z</time>
      </trkpt>
      <trkpt lat="50.40779" lon="3.45724">
        <ele>19</ele>
        <time>2021-09-03T18:45:23.000Z</time>
      </trkpt>
      <trkpt lat="50.40783" lon="3.4572">
        <ele>19</ele>
        <time>2021-09-03T18:45:24.000Z</time>
      </trkpt>
      <trkpt lat="50.40787" lon="3.45717">
        <ele>19</ele>
        <time>2021-09-03T18:45:25.000Z</time>
      </trkpt>
      <trkpt lat="50.40792" lon="3.45714">
        <ele>19</ele>
        <time>2021-09-03T18:45:26.000Z</time>
      </trkpt>
      <trkpt lat="50.40801" lon="3.45709">
        <ele>19</ele>
        <time>2021-09-03T18:45:28.000Z</time>
      </trkpt>
      <trkpt lat="50.40805" lon="3.45706">
        <ele>19</ele>
        <time>2021-09-03T18:45:29.000Z</time>
      </trkpt>
      <trkpt lat="50.40815" lon="3.457">
        <ele>19</ele>
        <time>2021-09-03T18:45:31.000Z</time>
      </trkpt>
      <trkpt lat="50.40819" lon="3.45698">
        <ele>19</ele>
        <time>2021-09-03T18:45:32.000Z</time>
      </trkpt>
      <trkpt lat="50.40828" lon="3.45692">
        <ele>19</ele>
        <time>2021-09-03T18:45:34.000Z</time>
      </trkpt>
      <trkpt lat="50.40833" lon="3.45689">
        <ele>19</ele>
        <time>2021-09-03T18:45:35.000Z</time>
      </trkpt>
      <trkpt lat="50.40842" lon="3.45682">
        <ele>19</ele>
        <time>2021-09-03T18:45:37.000Z</time>
      </trkpt>
      <trkpt lat="50.4085" lon="3.45676">
        <ele>19</ele>
        <time>2021-09-03T18:45:39.000Z</time>
      </trkpt>
      <trkpt lat="50.4086" lon="3.45669">
        <ele>19</ele>
        <time>2021-09-03T18:45:41.000Z</time>
      </trkpt>
      <trkpt lat="50.40864" lon="3.45665">
        <ele>19</ele>
        <time>2021-09-03T18:45:42.000Z</time>
      </trkpt>
      <trkpt lat="50.40874" lon="3.45656">
        <ele>19</ele>
        <time>2021-09-03T18:45:44.000Z</time>
      </trkpt>
      <trkpt lat="50.40879" lon="3.45653">
        <ele>19</ele>
        <time>2021-09-03T18:45:45.000Z</time>
      </trkpt>
      <trkpt lat="50.40888" lon="3.45646">
        <ele>19</ele>
        <time>2021-09-03T18:45:47.000Z</time>
      </trkpt>
      <trkpt lat="50.40898" lon="3.4564">
        <ele>19</ele>
        <time>2021-09-03T18:45:49.000Z</time>
      </trkpt>
      <trkpt lat="50.40902" lon="3.45637">
        <ele>19</ele>
        <time>2021-09-03T18:45:50.000Z</time>
      </trkpt>
      <trkpt lat="50.40911" lon="3.45632">
        <ele>19</ele>
        <time>2021-09-03T18:45:52.000Z</time>
      </trkpt>
      <trkpt lat="50.40916" lon="3.45629">
        <ele>19</ele>
        <time>2021-09-03T18:45:53.000Z</time>
      </trkpt>
      <trkpt lat="50.40926" lon="3.45622">
        <ele>19</ele>
        <time>2021-09-03T18:45:55.000Z</time>
      </trkpt>
      <trkpt lat="50.40935" lon="3.45616">
        <ele>19</ele>
        <time>2021-09-03T18:45:57.000Z</time>
      </trkpt>
      <trkpt lat="50.4094" lon="3.45612">
        <ele>19</ele>
        <time>2021-09-03T18:45:58.000Z</time>
      </trkpt>
      <trkpt lat="50.4095" lon="3.45605">
        <ele>19</ele>
        <time>2021-09-03T18:46:00.000Z</time>
      </trkpt>
      <trkpt lat="50.40955" lon="3.456">
        <ele>19</ele>
        <time>2021-09-03T18:46:01.000Z</time>
      </trkpt>
      <trkpt lat="50.40967" lon="3.4559">
        <ele>19</ele>
        <time>2021-09-03T18:46:03.000Z</time>
      </trkpt>
      <trkpt lat="50.4098" lon="3.45581">
        <ele>19</ele>
        <time>2021-09-03T18:46:05.000Z</time>
      </trkpt>
      <trkpt lat="50.40986" lon="3.45576">
        <ele>19</ele>
        <time>2021-09-03T18:46:06.000Z</time>
      </trkpt>
      <trkpt lat="50.41" lon="3.45568">
        <ele>19</ele>
        <time>2021-09-03T18:46:08.000Z</time>
      </trkpt>
      <trkpt lat="50.41011" lon="3.45559">
        <ele>19</ele>
        <time>2021-09-03T18:46:10.000Z</time>
      </trkpt>
      <trkpt lat="50.41017" lon="3.45555">
        <ele>19</ele>
        <time>2021-09-03T18:46:11.000Z</time>
      </trkpt>
      <trkpt lat="50.41028" lon="3.45548">
        <ele>19</ele>
        <time>2021-09-03T18:46:13.000Z</time>
      </trkpt>
      <trkpt lat="50.41039" lon="3.45541">
        <ele>19</ele>
        <time>2021-09-03T18:46:15.000Z</time>
      </trkpt>
      <trkpt lat="50.41049" lon="3.45534">
        <ele>19</ele>
        <time>2021-09-03T18:46:17.000Z</time>
      </trkpt>
      <trkpt lat="50.4106" lon="3.45527">
        <ele>19</ele>
        <time>2021-09-03T18:46:19.000Z</time>
      </trkpt>
      <trkpt lat="50.4107" lon="3.45521">
        <ele>19</ele>
        <time>2021-09-03T18:46:21.000Z</time>
      </trkpt>
      <trkpt lat="50.41075" lon="3.45518">
        <ele>19</ele>
        <time>2021-09-03T18:46:22.000Z</time>
      </trkpt>
      <trkpt lat="50.41085" lon="3.45511">
        <ele>19</ele>
        <time>2021-09-03T18:46:24.000Z</time>
      </trkpt>
      <trkpt lat="50.4109" lon="3.45508">
        <ele>19</ele>
        <time>2021-09-03T18:46:25.000Z</time>
      </trkpt>
      <trkpt lat="50.41095" lon="3.45505">
        <ele>19</ele>
        <time>2021-09-03T18:46:26.000Z</time>
      </trkpt>
      <trkpt lat="50.41105" lon="3.45497">
        <ele>19</ele>
        <time>2021-09-03T18:46:28.000Z</time>
      </trkpt>
      <trkpt lat="50.41116" lon="3.4549">
        <ele>19</ele>
        <time>2021-09-03T18:46:30.000Z</time>
      </trkpt>
      <trkpt lat="50.41121" lon="3.45487">
        <ele>19</ele>
        <time>2021-09-03T18:46:31.000Z</time>
      </trkpt>
      <trkpt lat="50.41132" lon="3.4548">
        <ele>19</ele>
        <time>2021-09-03T18:46:33.000Z</time>
      </trkpt>
      <trkpt lat="50.41137" lon="3.45477">
        <ele>19</ele>
        <time>2021-09-03T18:46:34.000Z</time>
      </trkpt>
      <trkpt lat="50.41142" lon="3.45474">
        <ele>19</ele>
        <time>2021-09-03T18:46:35.000Z</time>
      </trkpt>
      <trkpt lat="50.41152" lon="3.45468">
        <ele>19.1</ele>
        <time>2021-09-03T18:46:37.000Z</time>
      </trkpt>
      <trkpt lat="50.41157" lon="3.45466">
        <ele>19.1</ele>
        <time>2021-09-03T18:46:38.000Z</time>
      </trkpt>
      <trkpt lat="50.41162" lon="3.45464">
        <ele>19</ele>
        <time>2021-09-03T18:46:39.000Z</time>
      </trkpt>
      <trkpt lat="50.41167" lon="3.4546">
        <ele>19</ele>
        <time>2021-09-03T18:46:40.000Z</time>
      </trkpt>
      <trkpt lat="50.41176" lon="3.45453">
        <ele>19</ele>
        <time>2021-09-03T18:46:42.000Z</time>
      </trkpt>
      <trkpt lat="50.41185" lon="3.45448">
        <ele>19</ele>
        <time>2021-09-03T18:46:44.000Z</time>
      </trkpt>
      <trkpt lat="50.4119" lon="3.45445">
        <ele>19</ele>
        <time>2021-09-03T18:46:45.000Z</time>
      </trkpt>
      <trkpt lat="50.41194" lon="3.45441">
        <ele>19</ele>
        <time>2021-09-03T18:46:46.000Z</time>
      </trkpt>
      <trkpt lat="50.41204" lon="3.45434">
        <ele>19</ele>
        <time>2021-09-03T18:46:48.000Z</time>
      </trkpt>
      <trkpt lat="50.41209" lon="3.45431">
        <ele>19</ele>
        <time>2021-09-03T18:46:49.000Z</time>
      </trkpt>
      <trkpt lat="50.41214" lon="3.45428">
        <ele>19</ele>
        <time>2021-09-03T18:46:50.000Z</time>
      </trkpt>
      <trkpt lat="50.41218" lon="3.45425">
        <ele>19</ele>
        <time>2021-09-03T18:46:51.000Z</time>
      </trkpt>
      <trkpt lat="50.41227" lon="3.4542">
        <ele>19</ele>
        <time>2021-09-03T18:46:53.000Z</time>
      </trkpt>
      <trkpt lat="50.41231" lon="3.45417">
        <ele>19</ele>
        <time>2021-09-03T18:46:54.000Z</time>
      </trkpt>
      <trkpt lat="50.4124" lon="3.45411">
        <ele>18.9</ele>
        <time>2021-09-03T18:46:56.000Z</time>
      </trkpt>
      <trkpt lat="50.41245" lon="3.45408">
        <ele>18.9</ele>
        <time>2021-09-03T18:46:57.000Z</time>
      </trkpt>
      <trkpt lat="50.41257" lon="3.45398">
        <ele>19</ele>
        <time>2021-09-03T18:47:00.000Z</time>
      </trkpt>
      <trkpt lat="50.41261" lon="3.45394">
        <ele>19</ele>
        <time>2021-09-03T18:47:01.000Z</time>
      </trkpt>
      <trkpt lat="50.41269" lon="3.45389">
        <ele>19</ele>
        <time>2021-09-03T18:47:03.000Z</time>
      </trkpt>
      <trkpt lat="50.41274" lon="3.45386">
        <ele>18.9</ele>
        <time>2021-09-03T18:47:04.000Z</time>
      </trkpt>
      <trkpt lat="50.41278" lon="3.45384">
        <ele>18.8</ele>
        <time>2021-09-03T18:47:05.000Z</time>
      </trkpt>
      <trkpt lat="50.41286" lon="3.45378">
        <ele>18.7</ele>
        <time>2021-09-03T18:47:07.000Z</time>
      </trkpt>
      <trkpt lat="50.41294" lon="3.45371">
        <ele>18.7</ele>
        <time>2021-09-03T18:47:09.000Z</time>
      </trkpt>
      <trkpt lat="50.41299" lon="3.45368">
        <ele>18.8</ele>
        <time>2021-09-03T18:47:10.000Z</time>
      </trkpt>
      <trkpt lat="50.41306" lon="3.45364">
        <ele>19</ele>
        <time>2021-09-03T18:47:12.000Z</time>
      </trkpt>
      <trkpt lat="50.4131" lon="3.4536">
        <ele>18.8</ele>
        <time>2021-09-03T18:47:13.000Z</time>
      </trkpt>
      <trkpt lat="50.41316" lon="3.45353">
        <ele>18.6</ele>
        <time>2021-09-03T18:47:14.244Z</time>
      </trkpt>
      <trkpt lat="50.41321" lon="3.45347">
        <ele>18.5</ele>
        <time>2021-09-03T18:47:16.000Z</time>
      </trkpt>
      <trkpt lat="50.4133" lon="3.45341">
        <ele>18.7</ele>
        <time>2021-09-03T18:47:18.000Z</time>
      </trkpt>
      <trkpt lat="50.41343" lon="3.45334">
        <ele>19</ele>
        <time>2021-09-03T18:47:21.000Z</time>
      </trkpt>
      <trkpt lat="50.41351" lon="3.4533">
        <ele>19</ele>
        <time>2021-09-03T18:47:23.000Z</time>
      </trkpt>
      <trkpt lat="50.41358" lon="3.45324">
        <ele>19</ele>
        <time>2021-09-03T18:47:25.000Z</time>
      </trkpt>
      <trkpt lat="50.41366" lon="3.45319">
        <ele>19</ele>
        <time>2021-09-03T18:47:27.000Z</time>
      </trkpt>
      <trkpt lat="50.41374" lon="3.45314">
        <ele>19</ele>
        <time>2021-09-03T18:47:29.000Z</time>
      </trkpt>
      <trkpt lat="50.41386" lon="3.45318">
        <ele>19</ele>
        <time>2021-09-03T18:47:32.000Z</time>
      </trkpt>
      <trkpt lat="50.41391" lon="3.45323">
        <ele>18.9</ele>
        <time>2021-09-03T18:47:32.777Z</time>
      </trkpt>
      <trkpt lat="50.41397" lon="3.4533">
        <ele>18.7</ele>
        <time>2021-09-03T18:47:35.000Z</time>
      </trkpt>
      <trkpt lat="50.41399" lon="3.45336">
        <ele>18.7</ele>
        <time>2021-09-03T18:47:36.000Z</time>
      </trkpt>
      <trkpt lat="50.41404" lon="3.45348">
        <ele>18.7</ele>
        <time>2021-09-03T18:47:38.000Z</time>
      </trkpt>
      <trkpt lat="50.41409" lon="3.45368">
        <ele>18.9</ele>
        <time>2021-09-03T18:47:41.000Z</time>
      </trkpt>
      <trkpt lat="50.41411" lon="3.45375">
        <ele>18.9</ele>
        <time>2021-09-03T18:47:42.000Z</time>
      </trkpt>
      <trkpt lat="50.41413" lon="3.45382">
        <ele>18.9</ele>
        <time>2021-09-03T18:47:43.000Z</time>
      </trkpt>
      <trkpt lat="50.41415" lon="3.45388">
        <ele>18.9</ele>
        <time>2021-09-03T18:47:44.000Z</time>
      </trkpt>
      <trkpt lat="50.41419" lon="3.45394">
        <ele>19</ele>
        <time>2021-09-03T18:47:46.000Z</time>
      </trkpt>
      <trkpt lat="50.41423" lon="3.45412">
        <ele>19</ele>
        <time>2021-09-03T18:47:48.000Z</time>
      </trkpt>
      <trkpt lat="50.41425" lon="3.45424">
        <ele>19</ele>
        <time>2021-09-03T18:47:50.000Z</time>
      </trkpt>
      <trkpt lat="50.41423" lon="3.45431">
        <ele>19</ele>
        <time>2021-09-03T18:47:52.000Z</time>
      </trkpt>
      <trkpt lat="50.41432" lon="3.4544">
        <ele>19</ele>
        <time>2021-09-03T18:47:53.000Z</time>
      </trkpt>
      <trkpt lat="50.41439" lon="3.45454">
        <ele>19</ele>
        <time>2021-09-03T18:47:55.000Z</time>
      </trkpt>
      <trkpt lat="50.41446" lon="3.45469">
        <ele>19</ele>
        <time>2021-09-03T18:47:57.000Z</time>
      </trkpt>
      <trkpt lat="50.4145" lon="3.45483">
        <ele>19.5</ele>
        <time>2021-09-03T18:47:59.000Z</time>
      </trkpt>
      <trkpt lat="50.41452" lon="3.4549">
        <ele>19.7</ele>
        <time>2021-09-03T18:48:00.000Z</time>
      </trkpt>
      <trkpt lat="50.41454" lon="3.45497">
        <ele>19.9</ele>
        <time>2021-09-03T18:48:01.000Z</time>
      </trkpt>
      <trkpt lat="50.41458" lon="3.4551">
        <ele>20</ele>
        <time>2021-09-03T18:48:03.000Z</time>
      </trkpt>
      <trkpt lat="50.41463" lon="3.45523">
        <ele>20</ele>
        <time>2021-09-03T18:48:05.000Z</time>
      </trkpt>
      <trkpt lat="50.41468" lon="3.45536">
        <ele>20</ele>
        <time>2021-09-03T18:48:07.000Z</time>
      </trkpt>
      <trkpt lat="50.4147" lon="3.45543">
        <ele>20</ele>
        <time>2021-09-03T18:48:08.000Z</time>
      </trkpt>
      <trkpt lat="50.41472" lon="3.45549">
        <ele>20</ele>
        <time>2021-09-03T18:48:09.000Z</time>
      </trkpt>
      <trkpt lat="50.41474" lon="3.45556">
        <ele>20</ele>
        <time>2021-09-03T18:48:10.000Z</time>
      </trkpt>
      <trkpt lat="50.41478" lon="3.45569">
        <ele>19.9</ele>
        <time>2021-09-03T18:48:12.000Z</time>
      </trkpt>
      <trkpt lat="50.41481" lon="3.45581">
        <ele>19.7</ele>
        <time>2021-09-03T18:48:14.000Z</time>
      </trkpt>
      <trkpt lat="50.41484" lon="3.4559">
        <ele>19.6</ele>
        <time>2021-09-03T18:48:16.000Z</time>
      </trkpt>
      <trkpt lat="50.41489" lon="3.45601">
        <ele>19.4</ele>
        <time>2021-09-03T18:48:18.000Z</time>
      </trkpt>
      <trkpt lat="50.41494" lon="3.45621">
        <ele>19.2</ele>
        <time>2021-09-03T18:48:21.000Z</time>
      </trkpt>
      <trkpt lat="50.41497" lon="3.45627">
        <ele>19.1</ele>
        <time>2021-09-03T18:48:22.000Z</time>
      </trkpt>
      <trkpt lat="50.415" lon="3.45634">
        <ele>19</ele>
        <time>2021-09-03T18:48:23.000Z</time>
      </trkpt>
      <trkpt lat="50.41502" lon="3.45641">
        <ele>18.9</ele>
        <time>2021-09-03T18:48:24.000Z</time>
      </trkpt>
      <trkpt lat="50.41506" lon="3.45655">
        <ele>18.8</ele>
        <time>2021-09-03T18:48:26.000Z</time>
      </trkpt>
      <trkpt lat="50.41508" lon="3.45663">
        <ele>18.7</ele>
        <time>2021-09-03T18:48:27.000Z</time>
      </trkpt>
      <trkpt lat="50.41514" lon="3.45678">
        <ele>18.3</ele>
        <time>2021-09-03T18:48:29.000Z</time>
      </trkpt>
      <trkpt lat="50.41518" lon="3.45693">
        <ele>18</ele>
        <time>2021-09-03T18:48:31.000Z</time>
      </trkpt>
      <trkpt lat="50.41521" lon="3.45701">
        <ele>18</ele>
        <time>2021-09-03T18:48:32.000Z</time>
      </trkpt>
      <trkpt lat="50.41526" lon="3.45715">
        <ele>18</ele>
        <time>2021-09-03T18:48:34.000Z</time>
      </trkpt>
      <trkpt lat="50.41532" lon="3.45729">
        <ele>18</ele>
        <time>2021-09-03T18:48:36.000Z</time>
      </trkpt>
      <trkpt lat="50.41534" lon="3.45736">
        <ele>18</ele>
        <time>2021-09-03T18:48:37.000Z</time>
      </trkpt>
      <trkpt lat="50.41536" lon="3.45743">
        <ele>18</ele>
        <time>2021-09-03T18:48:38.000Z</time>
      </trkpt>
      <trkpt lat="50.41539" lon="3.45749">
        <ele>18</ele>
        <time>2021-09-03T18:48:39.000Z</time>
      </trkpt>
      <trkpt lat="50.41544" lon="3.45761">
        <ele>18</ele>
        <time>2021-09-03T18:48:41.000Z</time>
      </trkpt>
      <trkpt lat="50.41546" lon="3.45767">
        <ele>18</ele>
        <time>2021-09-03T18:48:42.000Z</time>
      </trkpt>
      <trkpt lat="50.41549" lon="3.45774">
        <ele>18</ele>
        <time>2021-09-03T18:48:43.000Z</time>
      </trkpt>
      <trkpt lat="50.41552" lon="3.4578">
        <ele>18</ele>
        <time>2021-09-03T18:48:44.000Z</time>
      </trkpt>
      <trkpt lat="50.41554" lon="3.45787">
        <ele>18</ele>
        <time>2021-09-03T18:48:45.000Z</time>
      </trkpt>
      <trkpt lat="50.41557" lon="3.45794">
        <ele>18</ele>
        <time>2021-09-03T18:48:46.000Z</time>
      </trkpt>
      <trkpt lat="50.41562" lon="3.45806">
        <ele>18</ele>
        <time>2021-09-03T18:48:48.000Z</time>
      </trkpt>
      <trkpt lat="50.41566" lon="3.45818">
        <ele>18</ele>
        <time>2021-09-03T18:48:50.000Z</time>
      </trkpt>
      <trkpt lat="50.41568" lon="3.45825">
        <ele>18</ele>
        <time>2021-09-03T18:48:51.000Z</time>
      </trkpt>
      <trkpt lat="50.41572" lon="3.45837">
        <ele>18</ele>
        <time>2021-09-03T18:48:53.000Z</time>
      </trkpt>
      <trkpt lat="50.41575" lon="3.4585">
        <ele>18</ele>
        <time>2021-09-03T18:48:55.000Z</time>
      </trkpt>
      <trkpt lat="50.41578" lon="3.45857">
        <ele>18</ele>
        <time>2021-09-03T18:48:56.000Z</time>
      </trkpt>
      <trkpt lat="50.4158" lon="3.45863">
        <ele>18</ele>
        <time>2021-09-03T18:48:56.637Z</time>
      </trkpt>
      <trkpt lat="50.41584" lon="3.45875">
        <ele>18</ele>
        <time>2021-09-03T18:48:59.000Z</time>
      </trkpt>
      <trkpt lat="50.41589" lon="3.4589">
        <ele>18</ele>
        <time>2021-09-03T18:49:02.000Z</time>
      </trkpt>
      <trkpt lat="50.41592" lon="3.45896">
        <ele>18</ele>
        <time>2021-09-03T18:49:03.000Z</time>
      </trkpt>
      <trkpt lat="50.41594" lon="3.45902">
        <ele>18</ele>
        <time>2021-09-03T18:49:04.000Z</time>
      </trkpt>
      <trkpt lat="50.41598" lon="3.45914">
        <ele>18</ele>
        <time>2021-09-03T18:49:06.000Z</time>
      </trkpt>
      <trkpt lat="50.41602" lon="3.45925">
        <ele>18.3</ele>
        <time>2021-09-03T18:49:08.000Z</time>
      </trkpt>
      <trkpt lat="50.41605" lon="3.45936">
        <ele>18.7</ele>
        <time>2021-09-03T18:49:10.000Z</time>
      </trkpt>
      <trkpt lat="50.41609" lon="3.45948">
        <ele>19</ele>
        <time>2021-09-03T18:49:12.000Z</time>
      </trkpt>
      <trkpt lat="50.41613" lon="3.45959">
        <ele>19</ele>
        <time>2021-09-03T18:49:14.000Z</time>
      </trkpt>
      <trkpt lat="50.41619" lon="3.45976">
        <ele>19</ele>
        <time>2021-09-03T18:49:17.000Z</time>
      </trkpt>
      <trkpt lat="50.41623" lon="3.45989">
        <ele>19</ele>
        <time>2021-09-03T18:49:19.000Z</time>
      </trkpt>
      <trkpt lat="50.41629" lon="3.46006">
        <ele>19</ele>
        <time>2021-09-03T18:49:22.000Z</time>
      </trkpt>
      <trkpt lat="50.41633" lon="3.46017">
        <ele>19</ele>
        <time>2021-09-03T18:49:24.000Z</time>
      </trkpt>
      <trkpt lat="50.41636" lon="3.46029">
        <ele>19</ele>
        <time>2021-09-03T18:49:26.000Z</time>
      </trkpt>
      <trkpt lat="50.4164" lon="3.46039">
        <ele>19</ele>
        <time>2021-09-03T18:49:28.000Z</time>
      </trkpt>
      <trkpt lat="50.41642" lon="3.46045">
        <ele>19</ele>
        <time>2021-09-03T18:49:29.000Z</time>
      </trkpt>
      <trkpt lat="50.41647" lon="3.46058">
        <ele>19</ele>
        <time>2021-09-03T18:49:31.000Z</time>
      </trkpt>
      <trkpt lat="50.4165" lon="3.46068">
        <ele>19</ele>
        <time>2021-09-03T18:49:33.000Z</time>
      </trkpt>
      <trkpt lat="50.41656" lon="3.46084">
        <ele>19</ele>
        <time>2021-09-03T18:49:36.000Z</time>
      </trkpt>
      <trkpt lat="50.4166" lon="3.46094">
        <ele>19</ele>
        <time>2021-09-03T18:49:38.000Z</time>
      </trkpt>
      <trkpt lat="50.41666" lon="3.46111">
        <ele>19</ele>
        <time>2021-09-03T18:49:41.000Z</time>
      </trkpt>
      <trkpt lat="50.4167" lon="3.46122">
        <ele>19.1</ele>
        <time>2021-09-03T18:49:43.000Z</time>
      </trkpt>
      <trkpt lat="50.41674" lon="3.46133">
        <ele>19.3</ele>
        <time>2021-09-03T18:49:45.000Z</time>
      </trkpt>
      <trkpt lat="50.41679" lon="3.46149">
        <ele>19.4</ele>
        <time>2021-09-03T18:49:48.000Z</time>
      </trkpt>
      <trkpt lat="50.41683" lon="3.4616">
        <ele>19.6</ele>
        <time>2021-09-03T18:49:50.000Z</time>
      </trkpt>
      <trkpt lat="50.41686" lon="3.46171">
        <ele>19.7</ele>
        <time>2021-09-03T18:49:52.000Z</time>
      </trkpt>
      <trkpt lat="50.4169" lon="3.46181">
        <ele>19.8</ele>
        <time>2021-09-03T18:49:54.000Z</time>
      </trkpt>
      <trkpt lat="50.41695" lon="3.46196">
        <ele>20</ele>
        <time>2021-09-03T18:49:57.000Z</time>
      </trkpt>
      <trkpt lat="50.41698" lon="3.46207">
        <ele>20</ele>
        <time>2021-09-03T18:49:59.000Z</time>
      </trkpt>
      <trkpt lat="50.41701" lon="3.46218">
        <ele>20</ele>
        <time>2021-09-03T18:50:01.000Z</time>
      </trkpt>
      <trkpt lat="50.41705" lon="3.46229">
        <ele>20</ele>
        <time>2021-09-03T18:50:03.000Z</time>
      </trkpt>
      <trkpt lat="50.41708" lon="3.4624">
        <ele>20</ele>
        <time>2021-09-03T18:50:05.000Z</time>
      </trkpt>
      <trkpt lat="50.41714" lon="3.46254">
        <ele>20</ele>
        <time>2021-09-03T18:50:08.000Z</time>
      </trkpt>
      <trkpt lat="50.41717" lon="3.46263">
        <ele>20</ele>
        <time>2021-09-03T18:50:10.000Z</time>
      </trkpt>
      <trkpt lat="50.4172" lon="3.46272">
        <ele>20</ele>
        <time>2021-09-03T18:50:12.000Z</time>
      </trkpt>
      <trkpt lat="50.41723" lon="3.4628">
        <ele>20</ele>
        <time>2021-09-03T18:50:14.000Z</time>
      </trkpt>
      <trkpt lat="50.41726" lon="3.46291">
        <ele>20</ele>
        <time>2021-09-03T18:50:16.000Z</time>
      </trkpt>
      <trkpt lat="50.41731" lon="3.46305">
        <ele>20</ele>
        <time>2021-09-03T18:50:19.000Z</time>
      </trkpt>
      <trkpt lat="50.41734" lon="3.46314">
        <ele>20</ele>
        <time>2021-09-03T18:50:21.000Z</time>
      </trkpt>
      <trkpt lat="50.41738" lon="3.46323">
        <ele>20</ele>
        <time>2021-09-03T18:50:23.000Z</time>
      </trkpt>
      <trkpt lat="50.41743" lon="3.46336">
        <ele>20</ele>
        <time>2021-09-03T18:50:26.000Z</time>
      </trkpt>
      <trkpt lat="50.41747" lon="3.46346">
        <ele>20</ele>
        <time>2021-09-03T18:50:28.000Z</time>
      </trkpt>
      <trkpt lat="50.41751" lon="3.46354">
        <ele>20</ele>
        <time>2021-09-03T18:50:30.000Z</time>
      </trkpt>
      <trkpt lat="50.41757" lon="3.46365">
        <ele>20</ele>
        <time>2021-09-03T18:50:33.000Z</time>
      </trkpt>
      <trkpt lat="50.41766" lon="3.46375">
        <ele>20</ele>
        <time>2021-09-03T18:50:36.000Z</time>
      </trkpt>
      <trkpt lat="50.41775" lon="3.46385">
        <ele>20</ele>
        <time>2021-09-03T18:50:39.000Z</time>
      </trkpt>
      <trkpt lat="50.41783" lon="3.46393">
        <ele>20</ele>
        <time>2021-09-03T18:50:42.000Z</time>
      </trkpt>
      <trkpt lat="50.4179" lon="3.46398">
        <ele>20</ele>
        <time>2021-09-03T18:50:44.000Z</time>
      </trkpt>
      <trkpt lat="50.41795" lon="3.46403">
        <ele>20</ele>
        <time>2021-09-03T18:50:46.000Z</time>
      </trkpt>
      <trkpt lat="50.418" lon="3.46409">
        <ele>20</ele>
        <time>2021-09-03T18:50:48.000Z</time>
      </trkpt>
      <trkpt lat="50.41807" lon="3.46418">
        <ele>20.1</ele>
        <time>2021-09-03T18:50:51.000Z</time>
      </trkpt>
      <trkpt lat="50.41815" lon="3.46425">
        <ele>20.5</ele>
        <time>2021-09-03T18:50:54.000Z</time>
      </trkpt>
      <trkpt lat="50.41821" lon="3.46429">
        <ele>20.8</ele>
        <time>2021-09-03T18:50:56.000Z</time>
      </trkpt>
      <trkpt lat="50.4183" lon="3.46436">
        <ele>21</ele>
        <time>2021-09-03T18:50:59.000Z</time>
      </trkpt>
      <trkpt lat="50.41836" lon="3.46442">
        <ele>21</ele>
        <time>2021-09-03T18:51:01.000Z</time>
      </trkpt>
      <trkpt lat="50.41844" lon="3.4645">
        <ele>21</ele>
        <time>2021-09-03T18:51:04.000Z</time>
      </trkpt>
      <trkpt lat="50.41849" lon="3.46455">
        <ele>21</ele>
        <time>2021-09-03T18:51:06.000Z</time>
      </trkpt>
      <trkpt lat="50.41853" lon="3.46461">
        <ele>21</ele>
        <time>2021-09-03T18:51:08.000Z</time>
      </trkpt>
      <trkpt lat="50.41858" lon="3.46467">
        <ele>21</ele>
        <time>2021-09-03T18:51:10.000Z</time>
      </trkpt>
      <trkpt lat="50.41866" lon="3.46474">
        <ele>21</ele>
        <time>2021-09-03T18:51:13.000Z</time>
      </trkpt>
      <trkpt lat="50.41872" lon="3.46479">
        <ele>21.1</ele>
        <time>2021-09-03T18:51:15.000Z</time>
      </trkpt>
      <trkpt lat="50.41877" lon="3.46484">
        <ele>21.2</ele>
        <time>2021-09-03T18:51:17.000Z</time>
      </trkpt>
      <trkpt lat="50.41883" lon="3.46489">
        <ele>21.5</ele>
        <time>2021-09-03T18:51:19.000Z</time>
      </trkpt>
      <trkpt lat="50.41888" lon="3.46494">
        <ele>21.8</ele>
        <time>2021-09-03T18:51:21.000Z</time>
      </trkpt>
      <trkpt lat="50.41894" lon="3.46499">
        <ele>22</ele>
        <time>2021-09-03T18:51:23.000Z</time>
      </trkpt>
      <trkpt lat="50.41902" lon="3.46505">
        <ele>22</ele>
        <time>2021-09-03T18:51:26.000Z</time>
      </trkpt>
      <trkpt lat="50.41907" lon="3.46509">
        <ele>22</ele>
        <time>2021-09-03T18:51:28.000Z</time>
      </trkpt>
      <trkpt lat="50.41913" lon="3.46513">
        <ele>22</ele>
        <time>2021-09-03T18:51:30.000Z</time>
      </trkpt>
      <trkpt lat="50.41917" lon="3.46518">
        <ele>22</ele>
        <time>2021-09-03T18:51:32.000Z</time>
      </trkpt>
      <trkpt lat="50.41921" lon="3.46523">
        <ele>22.2</ele>
        <time>2021-09-03T18:51:34.000Z</time>
      </trkpt>
      <trkpt lat="50.41925" lon="3.46527">
        <ele>22.3</ele>
        <time>2021-09-03T18:51:36.000Z</time>
      </trkpt>
      <trkpt lat="50.41931" lon="3.46533">
        <ele>22.5</ele>
        <time>2021-09-03T18:51:39.000Z</time>
      </trkpt>
      <trkpt lat="50.41935" lon="3.46537">
        <ele>22.7</ele>
        <time>2021-09-03T18:51:41.000Z</time>
      </trkpt>
      <trkpt lat="50.4194" lon="3.46541">
        <ele>22.8</ele>
        <time>2021-09-03T18:51:43.000Z</time>
      </trkpt>
      <trkpt lat="50.41945" lon="3.46544">
        <ele>23</ele>
        <time>2021-09-03T18:51:45.000Z</time>
      </trkpt>
      <trkpt lat="50.41951" lon="3.46549">
        <ele>23.2</ele>
        <time>2021-09-03T18:51:48.000Z</time>
      </trkpt>
      <trkpt lat="50.41956" lon="3.46556">
        <ele>23.4</ele>
        <time>2021-09-03T18:51:50.000Z</time>
      </trkpt>
      <trkpt lat="50.41961" lon="3.46561">
        <ele>23.6</ele>
        <time>2021-09-03T18:51:52.000Z</time>
      </trkpt>
      <trkpt lat="50.41966" lon="3.46565">
        <ele>23.8</ele>
        <time>2021-09-03T18:51:54.000Z</time>
      </trkpt>
      <trkpt lat="50.41971" lon="3.46569">
        <ele>24</ele>
        <time>2021-09-03T18:51:56.000Z</time>
      </trkpt>
      <trkpt lat="50.41977" lon="3.46574">
        <ele>24</ele>
        <time>2021-09-03T18:51:58.000Z</time>
      </trkpt>
      <trkpt lat="50.41984" lon="3.46581">
        <ele>24</ele>
        <time>2021-09-03T18:52:01.000Z</time>
      </trkpt>
      <trkpt lat="50.4199" lon="3.46586">
        <ele>24</ele>
        <time>2021-09-03T18:52:03.000Z</time>
      </trkpt>
      <trkpt lat="50.41996" lon="3.46591">
        <ele>24</ele>
        <time>2021-09-03T18:52:04.622Z</time>
      </trkpt>
      <trkpt lat="50.42002" lon="3.46596">
        <ele>24</ele>
        <time>2021-09-03T18:52:07.000Z</time>
      </trkpt>
      <trkpt lat="50.42011" lon="3.46603">
        <ele>24</ele>
        <time>2021-09-03T18:52:10.000Z</time>
      </trkpt>
      <trkpt lat="50.42017" lon="3.46609">
        <ele>24</ele>
        <time>2021-09-03T18:52:12.000Z</time>
      </trkpt>
      <trkpt lat="50.42024" lon="3.46614">
        <ele>24</ele>
        <time>2021-09-03T18:52:15.000Z</time>
      </trkpt>
      <trkpt lat="50.42029" lon="3.46617">
        <ele>24</ele>
        <time>2021-09-03T18:52:17.000Z</time>
      </trkpt>
      <trkpt lat="50.42035" lon="3.4662">
        <ele>24.2</ele>
        <time>2021-09-03T18:52:19.000Z</time>
      </trkpt>
      <trkpt lat="50.42041" lon="3.46625">
        <ele>24.2</ele>
        <time>2021-09-03T18:52:21.000Z</time>
      </trkpt>
      <trkpt lat="50.42046" lon="3.4663">
        <ele>24.2</ele>
        <time>2021-09-03T18:52:23.000Z</time>
      </trkpt>
      <trkpt lat="50.42051" lon="3.46635">
        <ele>24.1</ele>
        <time>2021-09-03T18:52:25.000Z</time>
      </trkpt>
      <trkpt lat="50.42055" lon="3.46639">
        <ele>24</ele>
        <time>2021-09-03T18:52:27.000Z</time>
      </trkpt>
      <trkpt lat="50.42061" lon="3.46644">
        <ele>24.2</ele>
        <time>2021-09-03T18:52:29.000Z</time>
      </trkpt>
      <trkpt lat="50.4207" lon="3.46652">
        <ele>24.3</ele>
        <time>2021-09-03T18:52:32.000Z</time>
      </trkpt>
      <trkpt lat="50.42076" lon="3.46657">
        <ele>24.3</ele>
        <time>2021-09-03T18:52:34.000Z</time>
      </trkpt>
      <trkpt lat="50.42084" lon="3.46665">
        <ele>24.1</ele>
        <time>2021-09-03T18:52:35.780Z</time>
      </trkpt>
      <trkpt lat="50.42092" lon="3.4667">
        <ele>23.9</ele>
        <time>2021-09-03T18:52:38.000Z</time>
      </trkpt>
      <trkpt lat="50.42096" lon="3.46673">
        <ele>23.8</ele>
        <time>2021-09-03T18:52:39.000Z</time>
      </trkpt>
      <trkpt lat="50.42107" lon="3.46683">
        <ele>23.4</ele>
        <time>2021-09-03T18:52:42.000Z</time>
      </trkpt>
      <trkpt lat="50.42115" lon="3.46691">
        <ele>23.1</ele>
        <time>2021-09-03T18:52:44.000Z</time>
      </trkpt>
      <trkpt lat="50.42123" lon="3.46699">
        <ele>23</ele>
        <time>2021-09-03T18:52:46.000Z</time>
      </trkpt>
      <trkpt lat="50.42129" lon="3.46703">
        <ele>23</ele>
        <time>2021-09-03T18:52:47.000Z</time>
      </trkpt>
      <trkpt lat="50.42135" lon="3.46707">
        <ele>23</ele>
        <time>2021-09-03T18:52:48.000Z</time>
      </trkpt>
      <trkpt lat="50.42146" lon="3.46716">
        <ele>23</ele>
        <time>2021-09-03T18:52:50.000Z</time>
      </trkpt>
      <trkpt lat="50.42151" lon="3.46721">
        <ele>23</ele>
        <time>2021-09-03T18:52:51.000Z</time>
      </trkpt>
      <trkpt lat="50.42156" lon="3.46725">
        <ele>23</ele>
        <time>2021-09-03T18:52:52.000Z</time>
      </trkpt>
      <trkpt lat="50.42161" lon="3.46729">
        <ele>23</ele>
        <time>2021-09-03T18:52:53.000Z</time>
      </trkpt>
      <trkpt lat="50.42169" lon="3.46737">
        <ele>23</ele>
        <time>2021-09-03T18:52:55.000Z</time>
      </trkpt>
      <trkpt lat="50.42176" lon="3.46745">
        <ele>23</ele>
        <time>2021-09-03T18:52:57.000Z</time>
      </trkpt>
      <trkpt lat="50.42185" lon="3.46752">
        <ele>23</ele>
        <time>2021-09-03T18:52:59.000Z</time>
      </trkpt>
      <trkpt lat="50.4219" lon="3.46756">
        <ele>23</ele>
        <time>2021-09-03T18:53:00.000Z</time>
      </trkpt>
      <trkpt lat="50.42198" lon="3.46763">
        <ele>23</ele>
        <time>2021-09-03T18:53:02.000Z</time>
      </trkpt>
      <trkpt lat="50.42206" lon="3.4677">
        <ele>23</ele>
        <time>2021-09-03T18:53:04.000Z</time>
      </trkpt>
      <trkpt lat="50.4221" lon="3.46774">
        <ele>23</ele>
        <time>2021-09-03T18:53:04.631Z</time>
      </trkpt>
      <trkpt lat="50.42216" lon="3.46781">
        <ele>23</ele>
        <time>2021-09-03T18:53:07.000Z</time>
      </trkpt>
      <trkpt lat="50.42223" lon="3.46789">
        <ele>23</ele>
        <time>2021-09-03T18:53:09.000Z</time>
      </trkpt>
      <trkpt lat="50.42228" lon="3.46792">
        <ele>22.9</ele>
        <time>2021-09-03T18:53:10.000Z</time>
      </trkpt>
      <trkpt lat="50.42236" lon="3.468">
        <ele>22.6</ele>
        <time>2021-09-03T18:53:12.000Z</time>
      </trkpt>
      <trkpt lat="50.42243" lon="3.46808">
        <ele>22.3</ele>
        <time>2021-09-03T18:53:14.000Z</time>
      </trkpt>
      <trkpt lat="50.42254" lon="3.46821">
        <ele>21.9</ele>
        <time>2021-09-03T18:53:17.000Z</time>
      </trkpt>
      <trkpt lat="50.42267" lon="3.46833">
        <ele>21.4</ele>
        <time>2021-09-03T18:53:20.000Z</time>
      </trkpt>
      <trkpt lat="50.42281" lon="3.46843">
        <ele>21</ele>
        <time>2021-09-03T18:53:23.000Z</time>
      </trkpt>
      <trkpt lat="50.42294" lon="3.46855">
        <ele>21</ele>
        <time>2021-09-03T18:53:26.000Z</time>
      </trkpt>
      <trkpt lat="50.42307" lon="3.46866">
        <ele>20.8</ele>
        <time>2021-09-03T18:53:29.000Z</time>
      </trkpt>
      <trkpt lat="50.42324" lon="3.46886">
        <ele>20</ele>
        <time>2021-09-03T18:53:33.000Z</time>
      </trkpt>
      <trkpt lat="50.42338" lon="3.469">
        <ele>19.9</ele>
        <time>2021-09-03T18:53:36.000Z</time>
      </trkpt>
      <trkpt lat="50.42353" lon="3.46915">
        <ele>19.3</ele>
        <time>2021-09-03T18:53:39.000Z</time>
      </trkpt>
      <trkpt lat="50.42367" lon="3.46927">
        <ele>19</ele>
        <time>2021-09-03T18:53:42.000Z</time>
      </trkpt>
      <trkpt lat="50.42384" lon="3.46944">
        <ele>19</ele>
        <time>2021-09-03T18:53:46.000Z</time>
      </trkpt>
      <trkpt lat="50.424" lon="3.46957">
        <ele>18.6</ele>
        <time>2021-09-03T18:53:49.000Z</time>
      </trkpt>
      <trkpt lat="50.424" lon="3.46978">
        <ele>18.6</ele>
        <time>2021-09-03T18:53:53.000Z</time>
      </trkpt>
      <trkpt lat="50.42399" lon="3.4699">
        <ele>18.6</ele>
        <time>2021-09-03T18:53:55.731Z</time>
      </trkpt>
      <trkpt lat="50.42395" lon="3.46998">
        <ele>18.8</ele>
        <time>2021-09-03T18:53:59.152Z</time>
      </trkpt>
      <trkpt lat="50.42388" lon="3.47018">
        <ele>19</ele>
        <time>2021-09-03T18:54:03.000Z</time>
      </trkpt>
      <trkpt lat="50.42392" lon="3.47004">
        <ele>18.9</ele>
        <time>2021-09-03T18:54:16.000Z</time>
      </trkpt>
      <trkpt lat="50.42395" lon="3.46982">
        <ele>18.8</ele>
        <time>2021-09-03T18:54:19.148Z</time>
      </trkpt>
      <trkpt lat="50.42397" lon="3.46966">
        <ele>18.7</ele>
        <time>2021-09-03T18:54:22.331Z</time>
      </trkpt>
      <trkpt lat="50.42404" lon="3.46956">
        <ele>18.5</ele>
        <time>2021-09-03T18:54:26.000Z</time>
      </trkpt>
      <trkpt lat="50.42426" lon="3.46969">
        <ele>18</ele>
        <time>2021-09-03T18:54:29.000Z</time>
      </trkpt>
      <trkpt lat="50.42449" lon="3.4698">
        <ele>18</ele>
        <time>2021-09-03T18:54:33.000Z</time>
      </trkpt>
      <trkpt lat="50.42468" lon="3.46985">
        <ele>18</ele>
        <time>2021-09-03T18:54:37.000Z</time>
      </trkpt>
      <trkpt lat="50.42488" lon="3.4699">
        <ele>18</ele>
        <time>2021-09-03T18:54:41.000Z</time>
      </trkpt>
      <trkpt lat="50.42506" lon="3.46996">
        <ele>18.2</ele>
        <time>2021-09-03T18:54:45.000Z</time>
      </trkpt>
      <trkpt lat="50.42523" lon="3.47003">
        <ele>18.8</ele>
        <time>2021-09-03T18:54:48.000Z</time>
      </trkpt>
      <trkpt lat="50.42537" lon="3.47007">
        <ele>19</ele>
        <time>2021-09-03T18:54:51.000Z</time>
      </trkpt>
      <trkpt lat="50.42551" lon="3.47009">
        <ele>19</ele>
        <time>2021-09-03T18:54:54.000Z</time>
      </trkpt>
      <trkpt lat="50.42565" lon="3.47012">
        <ele>19</ele>
        <time>2021-09-03T18:54:57.000Z</time>
      </trkpt>
      <trkpt lat="50.42583" lon="3.47017">
        <ele>19</ele>
        <time>2021-09-03T18:55:01.000Z</time>
      </trkpt>
      <trkpt lat="50.42602" lon="3.47022">
        <ele>19</ele>
        <time>2021-09-03T18:55:05.000Z</time>
      </trkpt>
      <trkpt lat="50.42616" lon="3.47023">
        <ele>19</ele>
        <time>2021-09-03T18:55:08.000Z</time>
      </trkpt>
      <trkpt lat="50.42626" lon="3.47024">
        <ele>19</ele>
        <time>2021-09-03T18:55:10.000Z</time>
      </trkpt>
      <trkpt lat="50.42635" lon="3.47027">
        <ele>19</ele>
        <time>2021-09-03T18:55:12.000Z</time>
      </trkpt>
      <trkpt lat="50.4264" lon="3.47029">
        <ele>19</ele>
        <time>2021-09-03T18:55:13.000Z</time>
      </trkpt>
      <trkpt lat="50.4265" lon="3.47032">
        <ele>19</ele>
        <time>2021-09-03T18:55:15.000Z</time>
      </trkpt>
      <trkpt lat="50.42655" lon="3.47034">
        <ele>19</ele>
        <time>2021-09-03T18:55:16.000Z</time>
      </trkpt>
      <trkpt lat="50.42665" lon="3.47038">
        <ele>19</ele>
        <time>2021-09-03T18:55:18.000Z</time>
      </trkpt>
      <trkpt lat="50.42674" lon="3.47043">
        <ele>19</ele>
        <time>2021-09-03T18:55:20.000Z</time>
      </trkpt>
      <trkpt lat="50.42679" lon="3.47043">
        <ele>19</ele>
        <time>2021-09-03T18:55:21.000Z</time>
      </trkpt>
      <trkpt lat="50.4269" lon="3.47046">
        <ele>19</ele>
        <time>2021-09-03T18:55:23.000Z</time>
      </trkpt>
      <trkpt lat="50.42694" lon="3.47048">
        <ele>19</ele>
        <time>2021-09-03T18:55:24.000Z</time>
      </trkpt>
      <trkpt lat="50.42699" lon="3.47051">
        <ele>19</ele>
        <time>2021-09-03T18:55:25.000Z</time>
      </trkpt>
      <trkpt lat="50.42704" lon="3.47052">
        <ele>19</ele>
        <time>2021-09-03T18:55:26.000Z</time>
      </trkpt>
      <trkpt lat="50.42713" lon="3.47054">
        <ele>19</ele>
        <time>2021-09-03T18:55:28.000Z</time>
      </trkpt>
      <trkpt lat="50.42721" lon="3.47056">
        <ele>19</ele>
        <time>2021-09-03T18:55:30.000Z</time>
      </trkpt>
      <trkpt lat="50.42726" lon="3.47058">
        <ele>19</ele>
        <time>2021-09-03T18:55:31.000Z</time>
      </trkpt>
      <trkpt lat="50.42735" lon="3.47063">
        <ele>19</ele>
        <time>2021-09-03T18:55:32.950Z</time>
      </trkpt>
      <trkpt lat="50.42741" lon="3.47065">
        <ele>19</ele>
        <time>2021-09-03T18:55:35.000Z</time>
      </trkpt>
      <trkpt lat="50.4275" lon="3.47069">
        <ele>19</ele>
        <time>2021-09-03T18:55:37.000Z</time>
      </trkpt>
      <trkpt lat="50.42763" lon="3.47073">
        <ele>19</ele>
        <time>2021-09-03T18:55:40.000Z</time>
      </trkpt>
      <trkpt lat="50.42768" lon="3.47074">
        <ele>19</ele>
        <time>2021-09-03T18:55:41.000Z</time>
      </trkpt>
      <trkpt lat="50.42775" lon="3.47077">
        <ele>19</ele>
        <time>2021-09-03T18:55:43.000Z</time>
      </trkpt>
      <trkpt lat="50.42779" lon="3.47077">
        <ele>19</ele>
        <time>2021-09-03T18:55:44.000Z</time>
      </trkpt>
      <trkpt lat="50.42787" lon="3.4708">
        <ele>19</ele>
        <time>2021-09-03T18:55:46.000Z</time>
      </trkpt>
      <trkpt lat="50.42796" lon="3.47082">
        <ele>19</ele>
        <time>2021-09-03T18:55:47.464Z</time>
      </trkpt>
      <trkpt lat="50.42805" lon="3.47083">
        <ele>19</ele>
        <time>2021-09-03T18:55:50.000Z</time>
      </trkpt>
      <trkpt lat="50.4281" lon="3.47085">
        <ele>18.8</ele>
        <time>2021-09-03T18:55:51.000Z</time>
      </trkpt>
      <trkpt lat="50.4282" lon="3.47093">
        <ele>18.3</ele>
        <time>2021-09-03T18:55:53.000Z</time>
      </trkpt>
      <trkpt lat="50.42826" lon="3.47093">
        <ele>18.2</ele>
        <time>2021-09-03T18:55:54.000Z</time>
      </trkpt>
      <trkpt lat="50.42831" lon="3.47094">
        <ele>18.1</ele>
        <time>2021-09-03T18:55:55.000Z</time>
      </trkpt>
      <trkpt lat="50.42836" lon="3.47095">
        <ele>18</ele>
        <time>2021-09-03T18:55:56.000Z</time>
      </trkpt>
      <trkpt lat="50.42845" lon="3.47098">
        <ele>18</ele>
        <time>2021-09-03T18:55:58.000Z</time>
      </trkpt>
      <trkpt lat="50.4285" lon="3.47101">
        <ele>18</ele>
        <time>2021-09-03T18:55:59.000Z</time>
      </trkpt>
      <trkpt lat="50.42859" lon="3.47103">
        <ele>18</ele>
        <time>2021-09-03T18:56:01.000Z</time>
      </trkpt>
      <trkpt lat="50.42864" lon="3.47105">
        <ele>18</ele>
        <time>2021-09-03T18:56:02.000Z</time>
      </trkpt>
      <trkpt lat="50.42873" lon="3.47111">
        <ele>18</ele>
        <time>2021-09-03T18:56:04.000Z</time>
      </trkpt>
      <trkpt lat="50.42879" lon="3.47113">
        <ele>18</ele>
        <time>2021-09-03T18:56:04.631Z</time>
      </trkpt>
      <trkpt lat="50.42887" lon="3.47112">
        <ele>18</ele>
        <time>2021-09-03T18:56:07.000Z</time>
      </trkpt>
      <trkpt lat="50.42893" lon="3.47113">
        <ele>18</ele>
        <time>2021-09-03T18:56:08.000Z</time>
      </trkpt>
      <trkpt lat="50.42903" lon="3.47116">
        <ele>18</ele>
        <time>2021-09-03T18:56:10.000Z</time>
      </trkpt>
      <trkpt lat="50.42908" lon="3.47118">
        <ele>18</ele>
        <time>2021-09-03T18:56:11.000Z</time>
      </trkpt>
      <trkpt lat="50.42914" lon="3.47119">
        <ele>18</ele>
        <time>2021-09-03T18:56:12.000Z</time>
      </trkpt>
      <trkpt lat="50.42919" lon="3.4712">
        <ele>18</ele>
        <time>2021-09-03T18:56:12.607Z</time>
      </trkpt>
      <trkpt lat="50.42929" lon="3.47122">
        <ele>18</ele>
        <time>2021-09-03T18:56:15.000Z</time>
      </trkpt>
      <trkpt lat="50.42933" lon="3.47123">
        <ele>18</ele>
        <time>2021-09-03T18:56:16.000Z</time>
      </trkpt>
      <trkpt lat="50.42943" lon="3.47127">
        <ele>18</ele>
        <time>2021-09-03T18:56:18.000Z</time>
      </trkpt>
      <trkpt lat="50.42948" lon="3.47128">
        <ele>18</ele>
        <time>2021-09-03T18:56:19.000Z</time>
      </trkpt>
      <trkpt lat="50.42958" lon="3.47131">
        <ele>18</ele>
        <time>2021-09-03T18:56:21.000Z</time>
      </trkpt>
      <trkpt lat="50.42968" lon="3.47135">
        <ele>18</ele>
        <time>2021-09-03T18:56:23.000Z</time>
      </trkpt>
      <trkpt lat="50.42977" lon="3.47136">
        <ele>18</ele>
        <time>2021-09-03T18:56:25.000Z</time>
      </trkpt>
      <trkpt lat="50.42985" lon="3.47132">
        <ele>18.1</ele>
        <time>2021-09-03T18:56:26.869Z</time>
      </trkpt>
      <trkpt lat="50.4299" lon="3.47132">
        <ele>18.2</ele>
        <time>2021-09-03T18:56:28.487Z</time>
      </trkpt>
      <trkpt lat="50.42995" lon="3.47136">
        <ele>18.1</ele>
        <time>2021-09-03T18:56:30.000Z</time>
      </trkpt>
      <trkpt lat="50.43004" lon="3.47141">
        <ele>18.1</ele>
        <time>2021-09-03T18:56:32.000Z</time>
      </trkpt>
      <trkpt lat="50.43013" lon="3.47148">
        <ele>18.5</ele>
        <time>2021-09-03T18:56:34.000Z</time>
      </trkpt>
      <trkpt lat="50.43017" lon="3.47151">
        <ele>18.6</ele>
        <time>2021-09-03T18:56:35.000Z</time>
      </trkpt>
      <trkpt lat="50.43025" lon="3.47153">
        <ele>18.9</ele>
        <time>2021-09-03T18:56:36.383Z</time>
      </trkpt>
      <trkpt lat="50.4303" lon="3.47154">
        <ele>19</ele>
        <time>2021-09-03T18:56:38.000Z</time>
      </trkpt>
      <trkpt lat="50.43035" lon="3.47155">
        <ele>19</ele>
        <time>2021-09-03T18:56:39.000Z</time>
      </trkpt>
      <trkpt lat="50.4304" lon="3.47158">
        <ele>19</ele>
        <time>2021-09-03T18:56:40.000Z</time>
      </trkpt>
      <trkpt lat="50.43044" lon="3.4716">
        <ele>19</ele>
        <time>2021-09-03T18:56:41.000Z</time>
      </trkpt>
      <trkpt lat="50.43054" lon="3.47162">
        <ele>19</ele>
        <time>2021-09-03T18:56:43.000Z</time>
      </trkpt>
      <trkpt lat="50.43059" lon="3.47164">
        <ele>19</ele>
        <time>2021-09-03T18:56:44.000Z</time>
      </trkpt>
      <trkpt lat="50.43069" lon="3.47166">
        <ele>19</ele>
        <time>2021-09-03T18:56:46.000Z</time>
      </trkpt>
      <trkpt lat="50.43079" lon="3.47169">
        <ele>19</ele>
        <time>2021-09-03T18:56:48.000Z</time>
      </trkpt>
      <trkpt lat="50.43084" lon="3.47171">
        <ele>19</ele>
        <time>2021-09-03T18:56:49.000Z</time>
      </trkpt>
      <trkpt lat="50.43089" lon="3.47173">
        <ele>19</ele>
        <time>2021-09-03T18:56:50.000Z</time>
      </trkpt>
      <trkpt lat="50.43099" lon="3.47176">
        <ele>19</ele>
        <time>2021-09-03T18:56:52.000Z</time>
      </trkpt>
      <trkpt lat="50.43105" lon="3.47179">
        <ele>19</ele>
        <time>2021-09-03T18:56:53.000Z</time>
      </trkpt>
      <trkpt lat="50.4311" lon="3.47182">
        <ele>19</ele>
        <time>2021-09-03T18:56:54.000Z</time>
      </trkpt>
      <trkpt lat="50.43115" lon="3.47185">
        <ele>19</ele>
        <time>2021-09-03T18:56:55.000Z</time>
      </trkpt>
      <trkpt lat="50.43125" lon="3.47193">
        <ele>19</ele>
        <time>2021-09-03T18:56:57.000Z</time>
      </trkpt>
      <trkpt lat="50.4313" lon="3.47199">
        <ele>19</ele>
        <time>2021-09-03T18:56:58.000Z</time>
      </trkpt>
      <trkpt lat="50.43136" lon="3.47212">
        <ele>19</ele>
        <time>2021-09-03T18:57:00.000Z</time>
      </trkpt>
      <trkpt lat="50.43138" lon="3.47219">
        <ele>19</ele>
        <time>2021-09-03T18:57:01.000Z</time>
      </trkpt>
      <trkpt lat="50.4314" lon="3.47225">
        <ele>19</ele>
        <time>2021-09-03T18:57:02.000Z</time>
      </trkpt>
      <trkpt lat="50.43144" lon="3.47236">
        <ele>19</ele>
        <time>2021-09-03T18:57:04.000Z</time>
      </trkpt>
      <trkpt lat="50.43148" lon="3.47249">
        <ele>19</ele>
        <time>2021-09-03T18:57:06.000Z</time>
      </trkpt>
      <trkpt lat="50.43155" lon="3.47268">
        <ele>19</ele>
        <time>2021-09-03T18:57:09.000Z</time>
      </trkpt>
      <trkpt lat="50.43159" lon="3.47278">
        <ele>19</ele>
        <time>2021-09-03T18:57:11.000Z</time>
      </trkpt>
      <trkpt lat="50.43162" lon="3.47298">
        <ele>19</ele>
        <time>2021-09-03T18:57:14.000Z</time>
      </trkpt>
      <trkpt lat="50.43161" lon="3.47307">
        <ele>19</ele>
        <time>2021-09-03T18:57:15.000Z</time>
      </trkpt>
      <trkpt lat="50.43161" lon="3.47321">
        <ele>19</ele>
        <time>2021-09-03T18:57:17.000Z</time>
      </trkpt>
      <trkpt lat="50.43162" lon="3.47334">
        <ele>19</ele>
        <time>2021-09-03T18:57:19.000Z</time>
      </trkpt>
      <trkpt lat="50.43162" lon="3.47344">
        <ele>19</ele>
        <time>2021-09-03T18:57:20.060Z</time>
      </trkpt>
      <trkpt lat="50.43163" lon="3.47354">
        <ele>19</ele>
        <time>2021-09-03T18:57:22.000Z</time>
      </trkpt>
      <trkpt lat="50.43164" lon="3.47374">
        <ele>19</ele>
        <time>2021-09-03T18:57:25.000Z</time>
      </trkpt>
      <trkpt lat="50.43166" lon="3.47392">
        <ele>19</ele>
        <time>2021-09-03T18:57:28.000Z</time>
      </trkpt>
      <trkpt lat="50.43167" lon="3.47411">
        <ele>19</ele>
        <time>2021-09-03T18:57:31.000Z</time>
      </trkpt>
      <trkpt lat="50.43168" lon="3.47419">
        <ele>18.9</ele>
        <time>2021-09-03T18:57:32.000Z</time>
      </trkpt>
      <trkpt lat="50.43171" lon="3.47434">
        <ele>18.3</ele>
        <time>2021-09-03T18:57:34.000Z</time>
      </trkpt>
      <trkpt lat="50.43171" lon="3.47447">
        <ele>18</ele>
        <time>2021-09-03T18:57:36.000Z</time>
      </trkpt>
      <trkpt lat="50.43171" lon="3.4746">
        <ele>18</ele>
        <time>2021-09-03T18:57:38.000Z</time>
      </trkpt>
      <trkpt lat="50.43171" lon="3.47473">
        <ele>18</ele>
        <time>2021-09-03T18:57:40.000Z</time>
      </trkpt>
      <trkpt lat="50.43171" lon="3.47486">
        <ele>18</ele>
        <time>2021-09-03T18:57:42.000Z</time>
      </trkpt>
      <trkpt lat="50.43171" lon="3.47497">
        <ele>18</ele>
        <time>2021-09-03T18:57:44.000Z</time>
      </trkpt>
      <trkpt lat="50.43172" lon="3.47517">
        <ele>18</ele>
        <time>2021-09-03T18:57:47.000Z</time>
      </trkpt>
      <trkpt lat="50.43172" lon="3.47529">
        <ele>18</ele>
        <time>2021-09-03T18:57:49.000Z</time>
      </trkpt>
      <trkpt lat="50.43173" lon="3.47536">
        <ele>18</ele>
        <time>2021-09-03T18:57:50.000Z</time>
      </trkpt>
      <trkpt lat="50.43175" lon="3.47553">
        <ele>18</ele>
        <time>2021-09-03T18:57:52.000Z</time>
      </trkpt>
      <trkpt lat="50.43177" lon="3.47562">
        <ele>18</ele>
        <time>2021-09-03T18:57:53.000Z</time>
      </trkpt>
      <trkpt lat="50.43178" lon="3.47572">
        <ele>18</ele>
        <time>2021-09-03T18:57:54.000Z</time>
      </trkpt>
      <trkpt lat="50.4318" lon="3.47592">
        <ele>18</ele>
        <time>2021-09-03T18:57:56.000Z</time>
      </trkpt>
      <trkpt lat="50.43183" lon="3.4761">
        <ele>18</ele>
        <time>2021-09-03T18:57:58.000Z</time>
      </trkpt>
      <trkpt lat="50.43185" lon="3.47618">
        <ele>18</ele>
        <time>2021-09-03T18:57:59.000Z</time>
      </trkpt>
      <trkpt lat="50.43188" lon="3.47635">
        <ele>18</ele>
        <time>2021-09-03T18:58:01.000Z</time>
      </trkpt>
      <trkpt lat="50.4319" lon="3.47644">
        <ele>18</ele>
        <time>2021-09-03T18:58:02.000Z</time>
      </trkpt>
      <trkpt lat="50.43191" lon="3.47653">
        <ele>18</ele>
        <time>2021-09-03T18:58:03.000Z</time>
      </trkpt>
      <trkpt lat="50.43192" lon="3.47662">
        <ele>18</ele>
        <time>2021-09-03T18:58:04.000Z</time>
      </trkpt>
      <trkpt lat="50.43193" lon="3.47671">
        <ele>18</ele>
        <time>2021-09-03T18:58:05.000Z</time>
      </trkpt>
      <trkpt lat="50.43194" lon="3.47679">
        <ele>18</ele>
        <time>2021-09-03T18:58:06.000Z</time>
      </trkpt>
      <trkpt lat="50.43196" lon="3.47695">
        <ele>18</ele>
        <time>2021-09-03T18:58:08.000Z</time>
      </trkpt>
      <trkpt lat="50.43198" lon="3.47703">
        <ele>18</ele>
        <time>2021-09-03T18:58:09.000Z</time>
      </trkpt>
      <trkpt lat="50.43198" lon="3.47712">
        <ele>18</ele>
        <time>2021-09-03T18:58:10.000Z</time>
      </trkpt>
      <trkpt lat="50.432" lon="3.47728">
        <ele>18</ele>
        <time>2021-09-03T18:58:12.000Z</time>
      </trkpt>
      <trkpt lat="50.43202" lon="3.47736">
        <ele>18</ele>
        <time>2021-09-03T18:58:13.000Z</time>
      </trkpt>
      <trkpt lat="50.43203" lon="3.47743">
        <ele>18</ele>
        <time>2021-09-03T18:58:14.000Z</time>
      </trkpt>
      <trkpt lat="50.43205" lon="3.4775">
        <ele>18</ele>
        <time>2021-09-03T18:58:15.000Z</time>
      </trkpt>
      <trkpt lat="50.43209" lon="3.47765">
        <ele>18</ele>
        <time>2021-09-03T18:58:17.000Z</time>
      </trkpt>
      <trkpt lat="50.43211" lon="3.4778">
        <ele>18</ele>
        <time>2021-09-03T18:58:19.000Z</time>
      </trkpt>
      <trkpt lat="50.43213" lon="3.47788">
        <ele>18.2</ele>
        <time>2021-09-03T18:58:20.000Z</time>
      </trkpt>
      <trkpt lat="50.43215" lon="3.47803">
        <ele>18.7</ele>
        <time>2021-09-03T18:58:22.000Z</time>
      </trkpt>
      <trkpt lat="50.43216" lon="3.47811">
        <ele>18.8</ele>
        <time>2021-09-03T18:58:23.000Z</time>
      </trkpt>
      <trkpt lat="50.43218" lon="3.47818">
        <ele>18.9</ele>
        <time>2021-09-03T18:58:23.537Z</time>
      </trkpt>
      <trkpt lat="50.43221" lon="3.47833">
        <ele>19</ele>
        <time>2021-09-03T18:58:26.000Z</time>
      </trkpt>
      <trkpt lat="50.43225" lon="3.47848">
        <ele>19</ele>
        <time>2021-09-03T18:58:28.000Z</time>
      </trkpt>
      <trkpt lat="50.43227" lon="3.47856">
        <ele>19</ele>
        <time>2021-09-03T18:58:29.000Z</time>
      </trkpt>
      <trkpt lat="50.4323" lon="3.47863">
        <ele>19</ele>
        <time>2021-09-03T18:58:30.000Z</time>
      </trkpt>
      <trkpt lat="50.43231" lon="3.47871">
        <ele>19</ele>
        <time>2021-09-03T18:58:31.000Z</time>
      </trkpt>
      <trkpt lat="50.43233" lon="3.47885">
        <ele>19</ele>
        <time>2021-09-03T18:58:33.000Z</time>
      </trkpt>
      <trkpt lat="50.43234" lon="3.47892">
        <ele>19</ele>
        <time>2021-09-03T18:58:34.000Z</time>
      </trkpt>
      <trkpt lat="50.43236" lon="3.47899">
        <ele>19</ele>
        <time>2021-09-03T18:58:35.000Z</time>
      </trkpt>
      <trkpt lat="50.43237" lon="3.47907">
        <ele>19</ele>
        <time>2021-09-03T18:58:36.000Z</time>
      </trkpt>
      <trkpt lat="50.4324" lon="3.47922">
        <ele>19</ele>
        <time>2021-09-03T18:58:38.000Z</time>
      </trkpt>
      <trkpt lat="50.43242" lon="3.47933">
        <ele>19</ele>
        <time>2021-09-03T18:58:40.000Z</time>
      </trkpt>
      <trkpt lat="50.43243" lon="3.47942">
        <ele>19</ele>
        <time>2021-09-03T18:58:41.000Z</time>
      </trkpt>
      <trkpt lat="50.43243" lon="3.47952">
        <ele>19</ele>
        <time>2021-09-03T18:58:42.000Z</time>
      </trkpt>
      <trkpt lat="50.43243" lon="3.4797">
        <ele>19</ele>
        <time>2021-09-03T18:58:44.000Z</time>
      </trkpt>
      <trkpt lat="50.43243" lon="3.47988">
        <ele>19</ele>
        <time>2021-09-03T18:58:46.000Z</time>
      </trkpt>
      <trkpt lat="50.43244" lon="3.47997">
        <ele>19</ele>
        <time>2021-09-03T18:58:47.000Z</time>
      </trkpt>
      <trkpt lat="50.43245" lon="3.48016">
        <ele>19</ele>
        <time>2021-09-03T18:58:49.000Z</time>
      </trkpt>
      <trkpt lat="50.43246" lon="3.48024">
        <ele>19</ele>
        <time>2021-09-03T18:58:50.000Z</time>
      </trkpt>
      <trkpt lat="50.43247" lon="3.48041">
        <ele>19</ele>
        <time>2021-09-03T18:58:52.000Z</time>
      </trkpt>
      <trkpt lat="50.43247" lon="3.48049">
        <ele>19</ele>
        <time>2021-09-03T18:58:53.000Z</time>
      </trkpt>
      <trkpt lat="50.43248" lon="3.48057">
        <ele>19</ele>
        <time>2021-09-03T18:58:54.000Z</time>
      </trkpt>
      <trkpt lat="50.4325" lon="3.48065">
        <ele>19</ele>
        <time>2021-09-03T18:58:55.000Z</time>
      </trkpt>
      <trkpt lat="50.43251" lon="3.48073">
        <ele>19</ele>
        <time>2021-09-03T18:58:56.000Z</time>
      </trkpt>
      <trkpt lat="50.43253" lon="3.4808">
        <ele>19</ele>
        <time>2021-09-03T18:58:57.000Z</time>
      </trkpt>
      <trkpt lat="50.43256" lon="3.48087">
        <ele>19</ele>
        <time>2021-09-03T18:58:58.000Z</time>
      </trkpt>
      <trkpt lat="50.4326" lon="3.48093">
        <ele>19</ele>
        <time>2021-09-03T18:58:59.000Z</time>
      </trkpt>
      <trkpt lat="50.43268" lon="3.48101">
        <ele>19</ele>
        <time>2021-09-03T18:59:01.000Z</time>
      </trkpt>
      <trkpt lat="50.43278" lon="3.48108">
        <ele>19</ele>
        <time>2021-09-03T18:59:03.000Z</time>
      </trkpt>
      <trkpt lat="50.43288" lon="3.4811">
        <ele>19</ele>
        <time>2021-09-03T18:59:05.000Z</time>
      </trkpt>
      <trkpt lat="50.43294" lon="3.4811">
        <ele>19</ele>
        <time>2021-09-03T18:59:06.000Z</time>
      </trkpt>
      <trkpt lat="50.43299" lon="3.4811">
        <ele>19</ele>
        <time>2021-09-03T18:59:07.000Z</time>
      </trkpt>
      <trkpt lat="50.43309" lon="3.48109">
        <ele>19</ele>
        <time>2021-09-03T18:59:09.000Z</time>
      </trkpt>
      <trkpt lat="50.43315" lon="3.48109">
        <ele>19</ele>
        <time>2021-09-03T18:59:10.000Z</time>
      </trkpt>
      <trkpt lat="50.43319" lon="3.48108">
        <ele>19</ele>
        <time>2021-09-03T18:59:11.000Z</time>
      </trkpt>
      <trkpt lat="50.43325" lon="3.48107">
        <ele>19</ele>
        <time>2021-09-03T18:59:12.000Z</time>
      </trkpt>
      <trkpt lat="50.43335" lon="3.48107">
        <ele>19</ele>
        <time>2021-09-03T18:59:14.000Z</time>
      </trkpt>
      <trkpt lat="50.4334" lon="3.48107">
        <ele>19</ele>
        <time>2021-09-03T18:59:15.000Z</time>
      </trkpt>
      <trkpt lat="50.4335" lon="3.48106">
        <ele>19</ele>
        <time>2021-09-03T18:59:17.000Z</time>
      </trkpt>
      <trkpt lat="50.43355" lon="3.48104">
        <ele>19</ele>
        <time>2021-09-03T18:59:18.000Z</time>
      </trkpt>
      <trkpt lat="50.4336" lon="3.48103">
        <ele>19</ele>
        <time>2021-09-03T18:59:19.000Z</time>
      </trkpt>
      <trkpt lat="50.43366" lon="3.48102">
        <ele>19</ele>
        <time>2021-09-03T18:59:20.000Z</time>
      </trkpt>
      <trkpt lat="50.43371" lon="3.48102">
        <ele>19</ele>
        <time>2021-09-03T18:59:21.000Z</time>
      </trkpt>
      <trkpt lat="50.4338" lon="3.48102">
        <ele>19</ele>
        <time>2021-09-03T18:59:23.000Z</time>
      </trkpt>
      <trkpt lat="50.43385" lon="3.48102">
        <ele>19</ele>
        <time>2021-09-03T18:59:24.000Z</time>
      </trkpt>
      <trkpt lat="50.43394" lon="3.48101">
        <ele>19</ele>
        <time>2021-09-03T18:59:26.000Z</time>
      </trkpt>
      <trkpt lat="50.43404" lon="3.48097">
        <ele>19</ele>
        <time>2021-09-03T18:59:28.000Z</time>
      </trkpt>
      <trkpt lat="50.43408" lon="3.48097">
        <ele>19</ele>
        <time>2021-09-03T18:59:29.000Z</time>
      </trkpt>
      <trkpt lat="50.43417" lon="3.48095">
        <ele>19</ele>
        <time>2021-09-03T18:59:31.000Z</time>
      </trkpt>
      <trkpt lat="50.43422" lon="3.48094">
        <ele>19</ele>
        <time>2021-09-03T18:59:32.000Z</time>
      </trkpt>
      <trkpt lat="50.4343" lon="3.48092">
        <ele>19</ele>
        <time>2021-09-03T18:59:34.000Z</time>
      </trkpt>
      <trkpt lat="50.43435" lon="3.48092">
        <ele>19</ele>
        <time>2021-09-03T18:59:35.000Z</time>
      </trkpt>
      <trkpt lat="50.4344" lon="3.48091">
        <ele>19</ele>
        <time>2021-09-03T18:59:35.602Z</time>
      </trkpt>
      <trkpt lat="50.43449" lon="3.48089">
        <ele>19</ele>
        <time>2021-09-03T18:59:38.000Z</time>
      </trkpt>
      <trkpt lat="50.43458" lon="3.48088">
        <ele>19</ele>
        <time>2021-09-03T18:59:40.000Z</time>
      </trkpt>
      <trkpt lat="50.43463" lon="3.48087">
        <ele>19</ele>
        <time>2021-09-03T18:59:41.000Z</time>
      </trkpt>
      <trkpt lat="50.43468" lon="3.48087">
        <ele>19</ele>
        <time>2021-09-03T18:59:41.620Z</time>
      </trkpt>
      <trkpt lat="50.43477" lon="3.48087">
        <ele>19</ele>
        <time>2021-09-03T18:59:44.000Z</time>
      </trkpt>
      <trkpt lat="50.43481" lon="3.48085">
        <ele>19</ele>
        <time>2021-09-03T18:59:45.000Z</time>
      </trkpt>
      <trkpt lat="50.43486" lon="3.48084">
        <ele>19</ele>
        <time>2021-09-03T18:59:46.000Z</time>
      </trkpt>
      <trkpt lat="50.43496" lon="3.48084">
        <ele>19</ele>
        <time>2021-09-03T18:59:48.000Z</time>
      </trkpt>
      <trkpt lat="50.435" lon="3.48083">
        <ele>19</ele>
        <time>2021-09-03T18:59:49.000Z</time>
      </trkpt>
      <trkpt lat="50.43505" lon="3.48083">
        <ele>19</ele>
        <time>2021-09-03T18:59:50.000Z</time>
      </trkpt>
      <trkpt lat="50.43513" lon="3.48081">
        <ele>19</ele>
        <time>2021-09-03T18:59:52.000Z</time>
      </trkpt>
      <trkpt lat="50.43522" lon="3.4808">
        <ele>19</ele>
        <time>2021-09-03T18:59:54.000Z</time>
      </trkpt>
      <trkpt lat="50.43532" lon="3.4808">
        <ele>19</ele>
        <time>2021-09-03T18:59:56.000Z</time>
      </trkpt>
      <trkpt lat="50.43537" lon="3.4808">
        <ele>19</ele>
        <time>2021-09-03T18:59:57.000Z</time>
      </trkpt>
      <trkpt lat="50.43546" lon="3.48077">
        <ele>19</ele>
        <time>2021-09-03T18:59:59.000Z</time>
      </trkpt>
      <trkpt lat="50.43551" lon="3.48075">
        <ele>19</ele>
        <time>2021-09-03T19:00:00.000Z</time>
      </trkpt>
      <trkpt lat="50.43555" lon="3.48074">
        <ele>19</ele>
        <time>2021-09-03T19:00:01.000Z</time>
      </trkpt>
      <trkpt lat="50.43569" lon="3.48071">
        <ele>19</ele>
        <time>2021-09-03T19:00:04.000Z</time>
      </trkpt>
      <trkpt lat="50.43578" lon="3.48069">
        <ele>19</ele>
        <time>2021-09-03T19:00:06.000Z</time>
      </trkpt>
      <trkpt lat="50.43583" lon="3.48069">
        <ele>19</ele>
        <time>2021-09-03T19:00:07.000Z</time>
      </trkpt>
      <trkpt lat="50.43592" lon="3.48067">
        <ele>19</ele>
        <time>2021-09-03T19:00:09.000Z</time>
      </trkpt>
      <trkpt lat="50.43601" lon="3.48066">
        <ele>19</ele>
        <time>2021-09-03T19:00:11.000Z</time>
      </trkpt>
      <trkpt lat="50.43606" lon="3.48066">
        <ele>19</ele>
        <time>2021-09-03T19:00:12.000Z</time>
      </trkpt>
      <trkpt lat="50.43611" lon="3.48066">
        <ele>19</ele>
        <time>2021-09-03T19:00:13.000Z</time>
      </trkpt>
      <trkpt lat="50.43624" lon="3.48064">
        <ele>19</ele>
        <time>2021-09-03T19:00:16.000Z</time>
      </trkpt>
      <trkpt lat="50.43638" lon="3.4806">
        <ele>19</ele>
        <time>2021-09-03T19:00:19.000Z</time>
      </trkpt>
      <trkpt lat="50.43648" lon="3.48062">
        <ele>19</ele>
        <time>2021-09-03T19:00:21.294Z</time>
      </trkpt>
      <trkpt lat="50.43654" lon="3.48062">
        <ele>19</ele>
        <time>2021-09-03T19:00:23.000Z</time>
      </trkpt>
      <trkpt lat="50.43665" lon="3.48058">
        <ele>19</ele>
        <time>2021-09-03T19:00:25.000Z</time>
      </trkpt>
      <trkpt lat="50.43673" lon="3.48059">
        <ele>19</ele>
        <time>2021-09-03T19:00:28.000Z</time>
      </trkpt>
      <trkpt lat="50.43682" lon="3.48058">
        <ele>19</ele>
        <time>2021-09-03T19:00:29.538Z</time>
      </trkpt>
      <trkpt lat="50.43687" lon="3.48057">
        <ele>19</ele>
        <time>2021-09-03T19:00:31.000Z</time>
      </trkpt>
      <trkpt lat="50.43695" lon="3.48056">
        <ele>19</ele>
        <time>2021-09-03T19:00:32.212Z</time>
      </trkpt>
      <trkpt lat="50.43703" lon="3.48056">
        <ele>19</ele>
        <time>2021-09-03T19:00:34.000Z</time>
      </trkpt>
      <trkpt lat="50.43707" lon="3.48055">
        <ele>19</ele>
        <time>2021-09-03T19:00:35.000Z</time>
      </trkpt>
      <trkpt lat="50.43719" lon="3.48059">
        <ele>19</ele>
        <time>2021-09-03T19:00:38.000Z</time>
      </trkpt>
      <trkpt lat="50.43736" lon="3.4805">
        <ele>19</ele>
        <time>2021-09-03T19:00:41.000Z</time>
      </trkpt>
      <trkpt lat="50.43755" lon="3.48047">
        <ele>19</ele>
        <time>2021-09-03T19:00:45.000Z</time>
      </trkpt>
      <trkpt lat="50.43769" lon="3.48043">
        <ele>19</ele>
        <time>2021-09-03T19:00:48.000Z</time>
      </trkpt>
      <trkpt lat="50.43784" lon="3.48042">
        <ele>19</ele>
        <time>2021-09-03T19:00:51.000Z</time>
      </trkpt>
      <trkpt lat="50.43803" lon="3.48044">
        <ele>19</ele>
        <time>2021-09-03T19:00:55.895Z</time>
      </trkpt>
      <trkpt lat="50.43826" lon="3.48036">
        <ele>19</ele>
        <time>2021-09-03T19:01:00.000Z</time>
      </trkpt>
      <trkpt lat="50.43839" lon="3.48032">
        <ele>19</ele>
        <time>2021-09-03T19:01:03.000Z</time>
      </trkpt>
      <trkpt lat="50.43862" lon="3.48028">
        <ele>19</ele>
        <time>2021-09-03T19:01:09.000Z</time>
      </trkpt>
      <trkpt lat="50.43867" lon="3.48028">
        <ele>19</ele>
        <time>2021-09-03T19:01:11.000Z</time>
      </trkpt>
      <trkpt lat="50.43872" lon="3.48028">
        <ele>19</ele>
        <time>2021-09-03T19:01:12.000Z</time>
      </trkpt>
      <trkpt lat="50.43878" lon="3.48026">
        <ele>19</ele>
        <time>2021-09-03T19:01:13.000Z</time>
      </trkpt>
      <trkpt lat="50.43887" lon="3.48025">
        <ele>19</ele>
        <time>2021-09-03T19:01:15.000Z</time>
      </trkpt>
      <trkpt lat="50.43895" lon="3.48024">
        <ele>19</ele>
        <time>2021-09-03T19:01:17.000Z</time>
      </trkpt>
      <trkpt lat="50.43903" lon="3.48022">
        <ele>19</ele>
        <time>2021-09-03T19:01:19.000Z</time>
      </trkpt>
      <trkpt lat="50.43913" lon="3.48029">
        <ele>19</ele>
        <time>2021-09-03T19:01:22.000Z</time>
      </trkpt>
      <trkpt lat="50.43918" lon="3.48026">
        <ele>19</ele>
        <time>2021-09-03T19:01:23.000Z</time>
      </trkpt>
      <trkpt lat="50.43929" lon="3.48023">
        <ele>19</ele>
        <time>2021-09-03T19:01:25.000Z</time>
      </trkpt>
      <trkpt lat="50.43935" lon="3.48021">
        <ele>19</ele>
        <time>2021-09-03T19:01:26.000Z</time>
      </trkpt>
      <trkpt lat="50.43947" lon="3.4802">
        <ele>19</ele>
        <time>2021-09-03T19:01:28.000Z</time>
      </trkpt>
      <trkpt lat="50.43952" lon="3.4802">
        <ele>19</ele>
        <time>2021-09-03T19:01:29.000Z</time>
      </trkpt>
      <trkpt lat="50.43958" lon="3.4802">
        <ele>19</ele>
        <time>2021-09-03T19:01:30.000Z</time>
      </trkpt>
      <trkpt lat="50.43968" lon="3.48018">
        <ele>19</ele>
        <time>2021-09-03T19:01:32.000Z</time>
      </trkpt>
      <trkpt lat="50.43978" lon="3.48017">
        <ele>18.8</ele>
        <time>2021-09-03T19:01:34.000Z</time>
      </trkpt>
      <trkpt lat="50.43983" lon="3.48016">
        <ele>18.6</ele>
        <time>2021-09-03T19:01:35.000Z</time>
      </trkpt>
      <trkpt lat="50.43988" lon="3.48014">
        <ele>18.4</ele>
        <time>2021-09-03T19:01:36.000Z</time>
      </trkpt>
      <trkpt lat="50.43997" lon="3.48012">
        <ele>18.1</ele>
        <time>2021-09-03T19:01:38.000Z</time>
      </trkpt>
      <trkpt lat="50.44005" lon="3.48009">
        <ele>18</ele>
        <time>2021-09-03T19:01:40.000Z</time>
      </trkpt>
      <trkpt lat="50.44015" lon="3.48009">
        <ele>18</ele>
        <time>2021-09-03T19:01:42.000Z</time>
      </trkpt>
      <trkpt lat="50.4402" lon="3.48009">
        <ele>18</ele>
        <time>2021-09-03T19:01:43.000Z</time>
      </trkpt>
      <trkpt lat="50.4403" lon="3.48008">
        <ele>18</ele>
        <time>2021-09-03T19:01:45.000Z</time>
      </trkpt>
      <trkpt lat="50.44035" lon="3.48007">
        <ele>18</ele>
        <time>2021-09-03T19:01:46.000Z</time>
      </trkpt>
      <trkpt lat="50.4404" lon="3.48006">
        <ele>18</ele>
        <time>2021-09-03T19:01:47.000Z</time>
      </trkpt>
      <trkpt lat="50.44045" lon="3.48006">
        <ele>18</ele>
        <time>2021-09-03T19:01:48.000Z</time>
      </trkpt>
      <trkpt lat="50.44049" lon="3.48005">
        <ele>18</ele>
        <time>2021-09-03T19:01:49.000Z</time>
      </trkpt>
      <trkpt lat="50.44059" lon="3.48004">
        <ele>18</ele>
        <time>2021-09-03T19:01:51.000Z</time>
      </trkpt>
      <trkpt lat="50.44069" lon="3.48002">
        <ele>18</ele>
        <time>2021-09-03T19:01:53.000Z</time>
      </trkpt>
      <trkpt lat="50.44074" lon="3.48001">
        <ele>18</ele>
        <time>2021-09-03T19:01:54.000Z</time>
      </trkpt>
      <trkpt lat="50.44078" lon="3.48">
        <ele>18</ele>
        <time>2021-09-03T19:01:55.000Z</time>
      </trkpt>
      <trkpt lat="50.44088" lon="3.47997">
        <ele>18</ele>
        <time>2021-09-03T19:01:57.000Z</time>
      </trkpt>
      <trkpt lat="50.44101" lon="3.47995">
        <ele>18.1</ele>
        <time>2021-09-03T19:02:00.000Z</time>
      </trkpt>
      <trkpt lat="50.44111" lon="3.47993">
        <ele>18.3</ele>
        <time>2021-09-03T19:02:02.000Z</time>
      </trkpt>
      <trkpt lat="50.44115" lon="3.47992">
        <ele>18.4</ele>
        <time>2021-09-03T19:02:03.000Z</time>
      </trkpt>
      <trkpt lat="50.4412" lon="3.4799">
        <ele>18.6</ele>
        <time>2021-09-03T19:02:04.000Z</time>
      </trkpt>
      <trkpt lat="50.44126" lon="3.47989">
        <ele>18.7</ele>
        <time>2021-09-03T19:02:06.000Z</time>
      </trkpt>
      <trkpt lat="50.44131" lon="3.47988">
        <ele>18.8</ele>
        <time>2021-09-03T19:02:07.000Z</time>
      </trkpt>
      <trkpt lat="50.44136" lon="3.47988">
        <ele>18.9</ele>
        <time>2021-09-03T19:02:08.000Z</time>
      </trkpt>
      <trkpt lat="50.44148" lon="3.47986">
        <ele>19</ele>
        <time>2021-09-03T19:02:11.000Z</time>
      </trkpt>
      <trkpt lat="50.44155" lon="3.47985">
        <ele>19</ele>
        <time>2021-09-03T19:02:11.906Z</time>
      </trkpt>
      <trkpt lat="50.44159" lon="3.47985">
        <ele>19</ele>
        <time>2021-09-03T19:02:14.000Z</time>
      </trkpt>
      <trkpt lat="50.44165" lon="3.47985">
        <ele>19</ele>
        <time>2021-09-03T19:02:14.310Z</time>
      </trkpt>
      <trkpt lat="50.44172" lon="3.47986">
        <ele>19.2</ele>
        <time>2021-09-03T19:02:17.000Z</time>
      </trkpt>
      <trkpt lat="50.4418" lon="3.47986">
        <ele>19.5</ele>
        <time>2021-09-03T19:02:18.432Z</time>
      </trkpt>
      <trkpt lat="50.44188" lon="3.47983">
        <ele>19.8</ele>
        <time>2021-09-03T19:02:22.000Z</time>
      </trkpt>
      <trkpt lat="50.44194" lon="3.47983">
        <ele>20</ele>
        <time>2021-09-03T19:02:24.000Z</time>
      </trkpt>
      <trkpt lat="50.44205" lon="3.47981">
        <ele>20</ele>
        <time>2021-09-03T19:02:27.000Z</time>
      </trkpt>
      <trkpt lat="50.44217" lon="3.4798">
        <ele>20</ele>
        <time>2021-09-03T19:02:30.000Z</time>
      </trkpt>
      <trkpt lat="50.44225" lon="3.47978">
        <ele>20</ele>
        <time>2021-09-03T19:02:32.000Z</time>
      </trkpt>
      <trkpt lat="50.44238" lon="3.47977">
        <ele>20</ele>
        <time>2021-09-03T19:02:35.000Z</time>
      </trkpt>
      <trkpt lat="50.4425" lon="3.47975">
        <ele>20</ele>
        <time>2021-09-03T19:02:38.000Z</time>
      </trkpt>
      <trkpt lat="50.44262" lon="3.47973">
        <ele>20</ele>
        <time>2021-09-03T19:02:41.000Z</time>
      </trkpt>
      <trkpt lat="50.44271" lon="3.47971">
        <ele>20</ele>
        <time>2021-09-03T19:02:43.000Z</time>
      </trkpt>
      <trkpt lat="50.44278" lon="3.47971">
        <ele>20</ele>
        <time>2021-09-03T19:02:43.742Z</time>
      </trkpt>
      <trkpt lat="50.44283" lon="3.47974">
        <ele>20</ele>
        <time>2021-09-03T19:02:46.000Z</time>
      </trkpt>
      <trkpt lat="50.44287" lon="3.47985">
        <ele>20</ele>
        <time>2021-09-03T19:02:48.000Z</time>
      </trkpt>
      <trkpt lat="50.44286" lon="3.47998">
        <ele>20</ele>
        <time>2021-09-03T19:02:50.000Z</time>
      </trkpt>
      <trkpt lat="50.44285" lon="3.48007">
        <ele>20</ele>
        <time>2021-09-03T19:02:51.000Z</time>
      </trkpt>
      <trkpt lat="50.44282" lon="3.48021">
        <ele>20</ele>
        <time>2021-09-03T19:02:52.366Z</time>
      </trkpt>
      <trkpt lat="50.44279" lon="3.4803">
        <ele>20</ele>
        <time>2021-09-03T19:02:55.000Z</time>
      </trkpt>
      <trkpt lat="50.44275" lon="3.48045">
        <ele>20</ele>
        <time>2021-09-03T19:02:58.000Z</time>
      </trkpt>
      <trkpt lat="50.44273" lon="3.48058">
        <ele>20</ele>
        <time>2021-09-03T19:03:00.000Z</time>
      </trkpt>
      <trkpt lat="50.44271" lon="3.4807">
        <ele>20</ele>
        <time>2021-09-03T19:03:02.000Z</time>
      </trkpt>
      <trkpt lat="50.44268" lon="3.48084">
        <ele>20</ele>
        <time>2021-09-03T19:03:04.000Z</time>
      </trkpt>
      <trkpt lat="50.44265" lon="3.48095">
        <ele>20</ele>
        <time>2021-09-03T19:03:06.000Z</time>
      </trkpt>
      <trkpt lat="50.44261" lon="3.48113">
        <ele>20</ele>
        <time>2021-09-03T19:03:09.000Z</time>
      </trkpt>
      <trkpt lat="50.44259" lon="3.48125">
        <ele>20</ele>
        <time>2021-09-03T19:03:11.000Z</time>
      </trkpt>
      <trkpt lat="50.44256" lon="3.48137">
        <ele>20</ele>
        <time>2021-09-03T19:03:13.000Z</time>
      </trkpt>
      <trkpt lat="50.44255" lon="3.48143">
        <ele>20</ele>
        <time>2021-09-03T19:03:14.000Z</time>
      </trkpt>
      <trkpt lat="50.44253" lon="3.4815">
        <ele>20</ele>
        <time>2021-09-03T19:03:15.000Z</time>
      </trkpt>
      <trkpt lat="50.44248" lon="3.48171">
        <ele>20</ele>
        <time>2021-09-03T19:03:18.000Z</time>
      </trkpt>
      <trkpt lat="50.44246" lon="3.48188">
        <ele>20</ele>
        <time>2021-09-03T19:03:21.000Z</time>
      </trkpt>
      <trkpt lat="50.44243" lon="3.48203">
        <ele>20</ele>
        <time>2021-09-03T19:03:22.589Z</time>
      </trkpt>
      <trkpt lat="50.44241" lon="3.48211">
        <ele>20</ele>
        <time>2021-09-03T19:03:25.000Z</time>
      </trkpt>
      <trkpt lat="50.44237" lon="3.48227">
        <ele>20</ele>
        <time>2021-09-03T19:03:28.000Z</time>
      </trkpt>
      <trkpt lat="50.44235" lon="3.48244">
        <ele>20</ele>
        <time>2021-09-03T19:03:29.961Z</time>
      </trkpt>
      <trkpt lat="50.44233" lon="3.48256">
        <ele>20</ele>
        <time>2021-09-03T19:03:33.000Z</time>
      </trkpt>
      <trkpt lat="50.4423" lon="3.48267">
        <ele>20</ele>
        <time>2021-09-03T19:03:35.000Z</time>
      </trkpt>
      <trkpt lat="50.44227" lon="3.48279">
        <ele>20</ele>
        <time>2021-09-03T19:03:37.000Z</time>
      </trkpt>
      <trkpt lat="50.44225" lon="3.48292">
        <ele>20</ele>
        <time>2021-09-03T19:03:38.012Z</time>
      </trkpt>
      <trkpt lat="50.44223" lon="3.48303">
        <ele>20</ele>
        <time>2021-09-03T19:03:39.846Z</time>
      </trkpt>
      <trkpt lat="50.44222" lon="3.48311">
        <ele>20</ele>
        <time>2021-09-03T19:03:42.000Z</time>
      </trkpt>
      <trkpt lat="50.4422" lon="3.48323">
        <ele>20</ele>
        <time>2021-09-03T19:03:44.000Z</time>
      </trkpt>
      <trkpt lat="50.44218" lon="3.48335">
        <ele>20</ele>
        <time>2021-09-03T19:03:46.000Z</time>
      </trkpt>
      <trkpt lat="50.44215" lon="3.48347">
        <ele>20</ele>
        <time>2021-09-03T19:03:48.000Z</time>
      </trkpt>
      <trkpt lat="50.44213" lon="3.48366">
        <ele>20</ele>
        <time>2021-09-03T19:03:51.000Z</time>
      </trkpt>
      <trkpt lat="50.44212" lon="3.48373">
        <ele>20</ele>
        <time>2021-09-03T19:03:52.000Z</time>
      </trkpt>
      <trkpt lat="50.4421" lon="3.48381">
        <ele>20</ele>
        <time>2021-09-03T19:03:53.000Z</time>
      </trkpt>
      <trkpt lat="50.44208" lon="3.48392">
        <ele>20</ele>
        <time>2021-09-03T19:03:55.000Z</time>
      </trkpt>
      <trkpt lat="50.44207" lon="3.48402">
        <ele>20</ele>
        <time>2021-09-03T19:03:55.488Z</time>
      </trkpt>
      <trkpt lat="50.44205" lon="3.48411">
        <ele>20</ele>
        <time>2021-09-03T19:03:58.000Z</time>
      </trkpt>
      <trkpt lat="50.44201" lon="3.48428">
        <ele>20</ele>
        <time>2021-09-03T19:04:01.000Z</time>
      </trkpt>
      <trkpt lat="50.44198" lon="3.4844">
        <ele>20</ele>
        <time>2021-09-03T19:04:03.000Z</time>
      </trkpt>
      <trkpt lat="50.44195" lon="3.48452">
        <ele>20</ele>
        <time>2021-09-03T19:04:05.000Z</time>
      </trkpt>
      <trkpt lat="50.44192" lon="3.48465">
        <ele>20</ele>
        <time>2021-09-03T19:04:07.000Z</time>
      </trkpt>
      <trkpt lat="50.44189" lon="3.48476">
        <ele>20</ele>
        <time>2021-09-03T19:04:09.000Z</time>
      </trkpt>
      <trkpt lat="50.44185" lon="3.48488">
        <ele>20</ele>
        <time>2021-09-03T19:04:11.000Z</time>
      </trkpt>
      <trkpt lat="50.4418" lon="3.48506">
        <ele>20</ele>
        <time>2021-09-03T19:04:14.000Z</time>
      </trkpt>
      <trkpt lat="50.44177" lon="3.48518">
        <ele>20</ele>
        <time>2021-09-03T19:04:16.000Z</time>
      </trkpt>
      <trkpt lat="50.44173" lon="3.48532">
        <ele>20</ele>
        <time>2021-09-03T19:04:18.000Z</time>
      </trkpt>
      <trkpt lat="50.44171" lon="3.48545">
        <ele>20</ele>
        <time>2021-09-03T19:04:20.000Z</time>
      </trkpt>
      <trkpt lat="50.44168" lon="3.48557">
        <ele>20</ele>
        <time>2021-09-03T19:04:22.000Z</time>
      </trkpt>
      <trkpt lat="50.44167" lon="3.48569">
        <ele>20</ele>
        <time>2021-09-03T19:04:24.000Z</time>
      </trkpt>
      <trkpt lat="50.44164" lon="3.48589">
        <ele>20</ele>
        <time>2021-09-03T19:04:27.000Z</time>
      </trkpt>
      <trkpt lat="50.44162" lon="3.486">
        <ele>20</ele>
        <time>2021-09-03T19:04:29.000Z</time>
      </trkpt>
      <trkpt lat="50.4416" lon="3.48611">
        <ele>20</ele>
        <time>2021-09-03T19:04:29.702Z</time>
      </trkpt>
      <trkpt lat="50.44158" lon="3.48619">
        <ele>20</ele>
        <time>2021-09-03T19:04:32.000Z</time>
      </trkpt>
      <trkpt lat="50.44156" lon="3.4863">
        <ele>20</ele>
        <time>2021-09-03T19:04:32.582Z</time>
      </trkpt>
      <trkpt lat="50.44154" lon="3.4864">
        <ele>20</ele>
        <time>2021-09-03T19:04:35.000Z</time>
      </trkpt>
      <trkpt lat="50.44153" lon="3.48652">
        <ele>20</ele>
        <time>2021-09-03T19:04:37.000Z</time>
      </trkpt>
      <trkpt lat="50.44152" lon="3.48659">
        <ele>20</ele>
        <time>2021-09-03T19:04:37.006Z</time>
      </trkpt>
      <trkpt lat="50.44151" lon="3.48668">
        <ele>20</ele>
        <time>2021-09-03T19:04:38.485Z</time>
      </trkpt>
      <trkpt lat="50.44148" lon="3.48684">
        <ele>20</ele>
        <time>2021-09-03T19:04:42.000Z</time>
      </trkpt>
      <trkpt lat="50.44145" lon="3.48698">
        <ele>20</ele>
        <time>2021-09-03T19:04:44.000Z</time>
      </trkpt>
      <trkpt lat="50.44144" lon="3.48705">
        <ele>20</ele>
        <time>2021-09-03T19:04:45.000Z</time>
      </trkpt>
      <trkpt lat="50.44143" lon="3.48712">
        <ele>20</ele>
        <time>2021-09-03T19:04:46.000Z</time>
      </trkpt>
      <trkpt lat="50.44141" lon="3.48725">
        <ele>20</ele>
        <time>2021-09-03T19:04:48.000Z</time>
      </trkpt>
      <trkpt lat="50.4414" lon="3.48738">
        <ele>20</ele>
        <time>2021-09-03T19:04:50.000Z</time>
      </trkpt>
      <trkpt lat="50.44136" lon="3.48753">
        <ele>20</ele>
        <time>2021-09-03T19:04:52.000Z</time>
      </trkpt>
      <trkpt lat="50.44133" lon="3.48765">
        <ele>20</ele>
        <time>2021-09-03T19:04:54.000Z</time>
      </trkpt>
      <trkpt lat="50.44131" lon="3.48777">
        <ele>20</ele>
        <time>2021-09-03T19:04:56.000Z</time>
      </trkpt>
      <trkpt lat="50.44128" lon="3.4879">
        <ele>20</ele>
        <time>2021-09-03T19:04:58.000Z</time>
      </trkpt>
      <trkpt lat="50.44123" lon="3.4881">
        <ele>20</ele>
        <time>2021-09-03T19:05:01.000Z</time>
      </trkpt>
      <trkpt lat="50.44121" lon="3.48823">
        <ele>20</ele>
        <time>2021-09-03T19:05:03.000Z</time>
      </trkpt>
      <trkpt lat="50.44118" lon="3.48835">
        <ele>20</ele>
        <time>2021-09-03T19:05:05.000Z</time>
      </trkpt>
      <trkpt lat="50.44117" lon="3.48842">
        <ele>20</ele>
        <time>2021-09-03T19:05:06.000Z</time>
      </trkpt>
      <trkpt lat="50.44115" lon="3.48855">
        <ele>20</ele>
        <time>2021-09-03T19:05:08.000Z</time>
      </trkpt>
      <trkpt lat="50.44111" lon="3.48874">
        <ele>20</ele>
        <time>2021-09-03T19:05:10.477Z</time>
      </trkpt>
      <trkpt lat="50.4411" lon="3.48882">
        <ele>20</ele>
        <time>2021-09-03T19:05:12.000Z</time>
      </trkpt>
      <trkpt lat="50.44108" lon="3.48894">
        <ele>20</ele>
        <time>2021-09-03T19:05:14.000Z</time>
      </trkpt>
      <trkpt lat="50.44105" lon="3.48906">
        <ele>20</ele>
        <time>2021-09-03T19:05:16.000Z</time>
      </trkpt>
      <trkpt lat="50.44102" lon="3.48917">
        <ele>20</ele>
        <time>2021-09-03T19:05:18.000Z</time>
      </trkpt>
      <trkpt lat="50.441" lon="3.48928">
        <ele>20</ele>
        <time>2021-09-03T19:05:19.439Z</time>
      </trkpt>
      <trkpt lat="50.44098" lon="3.48936">
        <ele>20</ele>
        <time>2021-09-03T19:05:21.000Z</time>
      </trkpt>
      <trkpt lat="50.44096" lon="3.48948">
        <ele>20</ele>
        <time>2021-09-03T19:05:23.000Z</time>
      </trkpt>
      <trkpt lat="50.44094" lon="3.48955">
        <ele>20</ele>
        <time>2021-09-03T19:05:24.000Z</time>
      </trkpt>
      <trkpt lat="50.44092" lon="3.48968">
        <ele>20</ele>
        <time>2021-09-03T19:05:26.000Z</time>
      </trkpt>
      <trkpt lat="50.44088" lon="3.48985">
        <ele>20</ele>
        <time>2021-09-03T19:05:28.301Z</time>
      </trkpt>
      <trkpt lat="50.44085" lon="3.48995">
        <ele>20</ele>
        <time>2021-09-03T19:05:30.000Z</time>
      </trkpt>
      <trkpt lat="50.44083" lon="3.49005">
        <ele>20</ele>
        <time>2021-09-03T19:05:32.000Z</time>
      </trkpt>
      <trkpt lat="50.4408" lon="3.49021">
        <ele>20</ele>
        <time>2021-09-03T19:05:35.000Z</time>
      </trkpt>
      <trkpt lat="50.44078" lon="3.4903">
        <ele>20</ele>
        <time>2021-09-03T19:05:37.000Z</time>
      </trkpt>
      <trkpt lat="50.44076" lon="3.4904">
        <ele>20</ele>
        <time>2021-09-03T19:05:39.000Z</time>
      </trkpt>
      <trkpt lat="50.44074" lon="3.49055">
        <ele>20</ele>
        <time>2021-09-03T19:05:42.000Z</time>
      </trkpt>
      <trkpt lat="50.44071" lon="3.49067">
        <ele>20</ele>
        <time>2021-09-03T19:05:44.000Z</time>
      </trkpt>
      <trkpt lat="50.44069" lon="3.49083">
        <ele>20</ele>
        <time>2021-09-03T19:05:47.000Z</time>
      </trkpt>
      <trkpt lat="50.44066" lon="3.49097">
        <ele>20</ele>
        <time>2021-09-03T19:05:50.000Z</time>
      </trkpt>
      <trkpt lat="50.44065" lon="3.49106">
        <ele>20</ele>
        <time>2021-09-03T19:05:52.000Z</time>
      </trkpt>
      <trkpt lat="50.44062" lon="3.4912">
        <ele>20</ele>
        <time>2021-09-03T19:05:55.000Z</time>
      </trkpt>
      <trkpt lat="50.4406" lon="3.49131">
        <ele>20</ele>
        <time>2021-09-03T19:05:56.680Z</time>
      </trkpt>
      <trkpt lat="50.44058" lon="3.49148">
        <ele>20</ele>
        <time>2021-09-03T19:06:00.000Z</time>
      </trkpt>
      <trkpt lat="50.44056" lon="3.4916">
        <ele>20</ele>
        <time>2021-09-03T19:06:02.000Z</time>
      </trkpt>
      <trkpt lat="50.44051" lon="3.49173">
        <ele>20</ele>
        <time>2021-09-03T19:06:04.067Z</time>
      </trkpt>
      <trkpt lat="50.44049" lon="3.4918">
        <ele>20</ele>
        <time>2021-09-03T19:06:05.275Z</time>
      </trkpt>
      <trkpt lat="50.44047" lon="3.49189">
        <ele>20</ele>
        <time>2021-09-03T19:06:07.000Z</time>
      </trkpt>
      <trkpt lat="50.44046" lon="3.492">
        <ele>20.1</ele>
        <time>2021-09-03T19:06:08.158Z</time>
      </trkpt>
      <trkpt lat="50.44043" lon="3.49216">
        <ele>20.4</ele>
        <time>2021-09-03T19:06:11.000Z</time>
      </trkpt>
      <trkpt lat="50.44042" lon="3.49223">
        <ele>20.5</ele>
        <time>2021-09-03T19:06:12.000Z</time>
      </trkpt>
      <trkpt lat="50.4404" lon="3.4923">
        <ele>20.6</ele>
        <time>2021-09-03T19:06:13.000Z</time>
      </trkpt>
      <trkpt lat="50.44038" lon="3.49237">
        <ele>20.7</ele>
        <time>2021-09-03T19:06:14.000Z</time>
      </trkpt>
      <trkpt lat="50.44034" lon="3.4925">
        <ele>21</ele>
        <time>2021-09-03T19:06:16.000Z</time>
      </trkpt>
      <trkpt lat="50.4403" lon="3.49263">
        <ele>21</ele>
        <time>2021-09-03T19:06:18.000Z</time>
      </trkpt>
      <trkpt lat="50.4403" lon="3.4927">
        <ele>21</ele>
        <time>2021-09-03T19:06:19.000Z</time>
      </trkpt>
      <trkpt lat="50.44029" lon="3.49277">
        <ele>21</ele>
        <time>2021-09-03T19:06:20.000Z</time>
      </trkpt>
      <trkpt lat="50.44024" lon="3.49298">
        <ele>21</ele>
        <time>2021-09-03T19:06:23.000Z</time>
      </trkpt>
      <trkpt lat="50.44021" lon="3.49312">
        <ele>21</ele>
        <time>2021-09-03T19:06:25.000Z</time>
      </trkpt>
      <trkpt lat="50.44018" lon="3.49327">
        <ele>21</ele>
        <time>2021-09-03T19:06:27.000Z</time>
      </trkpt>
      <trkpt lat="50.44017" lon="3.49334">
        <ele>21</ele>
        <time>2021-09-03T19:06:28.000Z</time>
      </trkpt>
      <trkpt lat="50.44015" lon="3.49349">
        <ele>21</ele>
        <time>2021-09-03T19:06:30.000Z</time>
      </trkpt>
      <trkpt lat="50.4401" lon="3.49364">
        <ele>21</ele>
        <time>2021-09-03T19:06:32.000Z</time>
      </trkpt>
      <trkpt lat="50.44008" lon="3.49381">
        <ele>21</ele>
        <time>2021-09-03T19:06:34.000Z</time>
      </trkpt>
      <trkpt lat="50.44006" lon="3.4939">
        <ele>21</ele>
        <time>2021-09-03T19:06:35.000Z</time>
      </trkpt>
      <trkpt lat="50.44005" lon="3.49398">
        <ele>21</ele>
        <time>2021-09-03T19:06:36.000Z</time>
      </trkpt>
      <trkpt lat="50.44001" lon="3.49413">
        <ele>21</ele>
        <time>2021-09-03T19:06:38.000Z</time>
      </trkpt>
      <trkpt lat="50.43998" lon="3.49429">
        <ele>21</ele>
        <time>2021-09-03T19:06:40.000Z</time>
      </trkpt>
      <trkpt lat="50.43997" lon="3.49436">
        <ele>21</ele>
        <time>2021-09-03T19:06:41.000Z</time>
      </trkpt>
      <trkpt lat="50.43993" lon="3.49451">
        <ele>21</ele>
        <time>2021-09-03T19:06:43.000Z</time>
      </trkpt>
      <trkpt lat="50.43992" lon="3.49459">
        <ele>21</ele>
        <time>2021-09-03T19:06:44.000Z</time>
      </trkpt>
      <trkpt lat="50.4399" lon="3.49467">
        <ele>21</ele>
        <time>2021-09-03T19:06:45.000Z</time>
      </trkpt>
      <trkpt lat="50.43989" lon="3.49475">
        <ele>21</ele>
        <time>2021-09-03T19:06:46.000Z</time>
      </trkpt>
      <trkpt lat="50.43986" lon="3.49491">
        <ele>21</ele>
        <time>2021-09-03T19:06:48.000Z</time>
      </trkpt>
      <trkpt lat="50.43985" lon="3.495">
        <ele>21</ele>
        <time>2021-09-03T19:06:49.000Z</time>
      </trkpt>
      <trkpt lat="50.43982" lon="3.49517">
        <ele>21</ele>
        <time>2021-09-03T19:06:51.000Z</time>
      </trkpt>
      <trkpt lat="50.4398" lon="3.49524">
        <ele>21</ele>
        <time>2021-09-03T19:06:52.000Z</time>
      </trkpt>
      <trkpt lat="50.43976" lon="3.49539">
        <ele>21</ele>
        <time>2021-09-03T19:06:54.000Z</time>
      </trkpt>
      <trkpt lat="50.43976" lon="3.49547">
        <ele>21</ele>
        <time>2021-09-03T19:06:55.000Z</time>
      </trkpt>
      <trkpt lat="50.43973" lon="3.49569">
        <ele>21</ele>
        <time>2021-09-03T19:06:58.000Z</time>
      </trkpt>
      <trkpt lat="50.43971" lon="3.49577">
        <ele>21</ele>
        <time>2021-09-03T19:06:59.000Z</time>
      </trkpt>
      <trkpt lat="50.4397" lon="3.49585">
        <ele>21</ele>
        <time>2021-09-03T19:07:00.000Z</time>
      </trkpt>
      <trkpt lat="50.43967" lon="3.49599">
        <ele>21</ele>
        <time>2021-09-03T19:07:02.000Z</time>
      </trkpt>
      <trkpt lat="50.43965" lon="3.49606">
        <ele>21</ele>
        <time>2021-09-03T19:07:03.000Z</time>
      </trkpt>
      <trkpt lat="50.43962" lon="3.49621">
        <ele>21</ele>
        <time>2021-09-03T19:07:05.000Z</time>
      </trkpt>
      <trkpt lat="50.4396" lon="3.49628">
        <ele>21</ele>
        <time>2021-09-03T19:07:06.000Z</time>
      </trkpt>
      <trkpt lat="50.43956" lon="3.49649">
        <ele>21</ele>
        <time>2021-09-03T19:07:09.000Z</time>
      </trkpt>
      <trkpt lat="50.43954" lon="3.49656">
        <ele>21</ele>
        <time>2021-09-03T19:07:10.000Z</time>
      </trkpt>
      <trkpt lat="50.43953" lon="3.49663">
        <ele>21</ele>
        <time>2021-09-03T19:07:11.000Z</time>
      </trkpt>
      <trkpt lat="50.43951" lon="3.4967">
        <ele>21</ele>
        <time>2021-09-03T19:07:12.000Z</time>
      </trkpt>
      <trkpt lat="50.4395" lon="3.49677">
        <ele>21</ele>
        <time>2021-09-03T19:07:13.000Z</time>
      </trkpt>
      <trkpt lat="50.43948" lon="3.4969">
        <ele>21</ele>
        <time>2021-09-03T19:07:15.000Z</time>
      </trkpt>
      <trkpt lat="50.43945" lon="3.49704">
        <ele>21</ele>
        <time>2021-09-03T19:07:17.000Z</time>
      </trkpt>
      <trkpt lat="50.43943" lon="3.4971">
        <ele>21</ele>
        <time>2021-09-03T19:07:18.000Z</time>
      </trkpt>
      <trkpt lat="50.43939" lon="3.49731">
        <ele>21</ele>
        <time>2021-09-03T19:07:21.000Z</time>
      </trkpt>
      <trkpt lat="50.43938" lon="3.49738">
        <ele>21</ele>
        <time>2021-09-03T19:07:22.000Z</time>
      </trkpt>
      <trkpt lat="50.43937" lon="3.49749">
        <ele>21</ele>
        <time>2021-09-03T19:07:24.000Z</time>
      </trkpt>
      <trkpt lat="50.43936" lon="3.49757">
        <ele>21</ele>
        <time>2021-09-03T19:07:25.000Z</time>
      </trkpt>
      <trkpt lat="50.43934" lon="3.49765">
        <ele>21</ele>
        <time>2021-09-03T19:07:26.000Z</time>
      </trkpt>
      <trkpt lat="50.4393" lon="3.49777">
        <ele>21</ele>
        <time>2021-09-03T19:07:28.000Z</time>
      </trkpt>
      <trkpt lat="50.43928" lon="3.4979">
        <ele>21</ele>
        <time>2021-09-03T19:07:30.000Z</time>
      </trkpt>
      <trkpt lat="50.43927" lon="3.49799">
        <ele>21</ele>
        <time>2021-09-03T19:07:30.529Z</time>
      </trkpt>
      <trkpt lat="50.43926" lon="3.49806">
        <ele>21</ele>
        <time>2021-09-03T19:07:31.664Z</time>
      </trkpt>
      <trkpt lat="50.43922" lon="3.49817">
        <ele>21</ele>
        <time>2021-09-03T19:07:34.000Z</time>
      </trkpt>
      <trkpt lat="50.43916" lon="3.49833">
        <ele>21</ele>
        <time>2021-09-03T19:07:36.000Z</time>
      </trkpt>
      <trkpt lat="50.43911" lon="3.4985">
        <ele>21</ele>
        <time>2021-09-03T19:07:38.000Z</time>
      </trkpt>
      <trkpt lat="50.43911" lon="3.49859">
        <ele>21</ele>
        <time>2021-09-03T19:07:39.000Z</time>
      </trkpt>
      <trkpt lat="50.43908" lon="3.49875">
        <ele>21</ele>
        <time>2021-09-03T19:07:41.000Z</time>
      </trkpt>
      <trkpt lat="50.43904" lon="3.4989">
        <ele>21</ele>
        <time>2021-09-03T19:07:43.000Z</time>
      </trkpt>
      <trkpt lat="50.43901" lon="3.49907">
        <ele>21.7</ele>
        <time>2021-09-03T19:07:45.000Z</time>
      </trkpt>
      <trkpt lat="50.43898" lon="3.49925">
        <ele>22</ele>
        <time>2021-09-03T19:07:47.000Z</time>
      </trkpt>
      <trkpt lat="50.43895" lon="3.49941">
        <ele>22</ele>
        <time>2021-09-03T19:07:49.000Z</time>
      </trkpt>
      <trkpt lat="50.43893" lon="3.49949">
        <ele>22</ele>
        <time>2021-09-03T19:07:50.000Z</time>
      </trkpt>
      <trkpt lat="50.43891" lon="3.49956">
        <ele>22</ele>
        <time>2021-09-03T19:07:51.000Z</time>
      </trkpt>
      <trkpt lat="50.43889" lon="3.49964">
        <ele>22</ele>
        <time>2021-09-03T19:07:52.000Z</time>
      </trkpt>
      <trkpt lat="50.43886" lon="3.49981">
        <ele>22</ele>
        <time>2021-09-03T19:07:54.000Z</time>
      </trkpt>
      <trkpt lat="50.43885" lon="3.49989">
        <ele>22</ele>
        <time>2021-09-03T19:07:55.000Z</time>
      </trkpt>
      <trkpt lat="50.43883" lon="3.49998">
        <ele>22</ele>
        <time>2021-09-03T19:07:56.000Z</time>
      </trkpt>
      <trkpt lat="50.4388" lon="3.50015">
        <ele>22</ele>
        <time>2021-09-03T19:07:58.000Z</time>
      </trkpt>
      <trkpt lat="50.43878" lon="3.50023">
        <ele>22</ele>
        <time>2021-09-03T19:07:59.000Z</time>
      </trkpt>
      <trkpt lat="50.43876" lon="3.50032">
        <ele>22</ele>
        <time>2021-09-03T19:08:00.000Z</time>
      </trkpt>
      <trkpt lat="50.43874" lon="3.50048">
        <ele>22</ele>
        <time>2021-09-03T19:08:02.000Z</time>
      </trkpt>
      <trkpt lat="50.43873" lon="3.50056">
        <ele>22</ele>
        <time>2021-09-03T19:08:03.000Z</time>
      </trkpt>
      <trkpt lat="50.4387" lon="3.50071">
        <ele>22</ele>
        <time>2021-09-03T19:08:05.000Z</time>
      </trkpt>
      <trkpt lat="50.43867" lon="3.50086">
        <ele>22</ele>
        <time>2021-09-03T19:08:07.000Z</time>
      </trkpt>
      <trkpt lat="50.43866" lon="3.50094">
        <ele>22</ele>
        <time>2021-09-03T19:08:08.000Z</time>
      </trkpt>
      <trkpt lat="50.43864" lon="3.50109">
        <ele>22</ele>
        <time>2021-09-03T19:08:10.000Z</time>
      </trkpt>
      <trkpt lat="50.43862" lon="3.50116">
        <ele>22.2</ele>
        <time>2021-09-03T19:08:11.000Z</time>
      </trkpt>
      <trkpt lat="50.43862" lon="3.50132">
        <ele>22.7</ele>
        <time>2021-09-03T19:08:13.000Z</time>
      </trkpt>
      <trkpt lat="50.4386" lon="3.50148">
        <ele>23</ele>
        <time>2021-09-03T19:08:15.000Z</time>
      </trkpt>
      <trkpt lat="50.43859" lon="3.50155">
        <ele>23</ele>
        <time>2021-09-03T19:08:16.000Z</time>
      </trkpt>
      <trkpt lat="50.43856" lon="3.50168">
        <ele>23</ele>
        <time>2021-09-03T19:08:18.000Z</time>
      </trkpt>
      <trkpt lat="50.43853" lon="3.50179">
        <ele>23</ele>
        <time>2021-09-03T19:08:20.000Z</time>
      </trkpt>
      <trkpt lat="50.43852" lon="3.50186">
        <ele>23</ele>
        <time>2021-09-03T19:08:21.000Z</time>
      </trkpt>
      <trkpt lat="50.43848" lon="3.50199">
        <ele>23</ele>
        <time>2021-09-03T19:08:23.000Z</time>
      </trkpt>
      <trkpt lat="50.43845" lon="3.5021">
        <ele>23</ele>
        <time>2021-09-03T19:08:25.000Z</time>
      </trkpt>
      <trkpt lat="50.43842" lon="3.50224">
        <ele>23</ele>
        <time>2021-09-03T19:08:27.000Z</time>
      </trkpt>
      <trkpt lat="50.43839" lon="3.50237">
        <ele>23</ele>
        <time>2021-09-03T19:08:29.000Z</time>
      </trkpt>
      <trkpt lat="50.43836" lon="3.5025">
        <ele>23</ele>
        <time>2021-09-03T19:08:31.000Z</time>
      </trkpt>
      <trkpt lat="50.43834" lon="3.50258">
        <ele>23</ele>
        <time>2021-09-03T19:08:32.000Z</time>
      </trkpt>
      <trkpt lat="50.43833" lon="3.50277">
        <ele>23</ele>
        <time>2021-09-03T19:08:35.000Z</time>
      </trkpt>
      <trkpt lat="50.4383" lon="3.50285">
        <ele>23</ele>
        <time>2021-09-03T19:08:36.000Z</time>
      </trkpt>
      <trkpt lat="50.43825" lon="3.503">
        <ele>23</ele>
        <time>2021-09-03T19:08:38.000Z</time>
      </trkpt>
      <trkpt lat="50.43822" lon="3.50314">
        <ele>23</ele>
        <time>2021-09-03T19:08:40.000Z</time>
      </trkpt>
      <trkpt lat="50.43819" lon="3.50329">
        <ele>23</ele>
        <time>2021-09-03T19:08:42.000Z</time>
      </trkpt>
      <trkpt lat="50.43818" lon="3.50337">
        <ele>23</ele>
        <time>2021-09-03T19:08:43.000Z</time>
      </trkpt>
      <trkpt lat="50.43817" lon="3.50345">
        <ele>23</ele>
        <time>2021-09-03T19:08:44.000Z</time>
      </trkpt>
      <trkpt lat="50.43814" lon="3.5036">
        <ele>23</ele>
        <time>2021-09-03T19:08:46.000Z</time>
      </trkpt>
      <trkpt lat="50.43811" lon="3.50369">
        <ele>23</ele>
        <time>2021-09-03T19:08:47.000Z</time>
      </trkpt>
      <trkpt lat="50.4381" lon="3.50378">
        <ele>23</ele>
        <time>2021-09-03T19:08:48.000Z</time>
      </trkpt>
      <trkpt lat="50.43806" lon="3.50394">
        <ele>23</ele>
        <time>2021-09-03T19:08:50.000Z</time>
      </trkpt>
      <trkpt lat="50.43802" lon="3.50411">
        <ele>23</ele>
        <time>2021-09-03T19:08:52.000Z</time>
      </trkpt>
      <trkpt lat="50.43797" lon="3.50428">
        <ele>23</ele>
        <time>2021-09-03T19:08:54.000Z</time>
      </trkpt>
      <trkpt lat="50.43795" lon="3.50436">
        <ele>23</ele>
        <time>2021-09-03T19:08:55.000Z</time>
      </trkpt>
      <trkpt lat="50.43789" lon="3.5045">
        <ele>23</ele>
        <time>2021-09-03T19:08:57.000Z</time>
      </trkpt>
      <trkpt lat="50.43786" lon="3.50457">
        <ele>23</ele>
        <time>2021-09-03T19:08:58.000Z</time>
      </trkpt>
      <trkpt lat="50.43779" lon="3.5047">
        <ele>23</ele>
        <time>2021-09-03T19:09:00.000Z</time>
      </trkpt>
      <trkpt lat="50.43775" lon="3.50476">
        <ele>23.1</ele>
        <time>2021-09-03T19:09:01.000Z</time>
      </trkpt>
      <trkpt lat="50.43771" lon="3.50483">
        <ele>23.2</ele>
        <time>2021-09-03T19:09:02.000Z</time>
      </trkpt>
      <trkpt lat="50.43764" lon="3.50495">
        <ele>23.5</ele>
        <time>2021-09-03T19:09:04.000Z</time>
      </trkpt>
      <trkpt lat="50.43756" lon="3.50509">
        <ele>23.9</ele>
        <time>2021-09-03T19:09:06.000Z</time>
      </trkpt>
      <trkpt lat="50.43752" lon="3.50515">
        <ele>24</ele>
        <time>2021-09-03T19:09:07.000Z</time>
      </trkpt>
      <trkpt lat="50.43744" lon="3.50525">
        <ele>24</ele>
        <time>2021-09-03T19:09:09.000Z</time>
      </trkpt>
      <trkpt lat="50.43737" lon="3.50538">
        <ele>24</ele>
        <time>2021-09-03T19:09:11.000Z</time>
      </trkpt>
      <trkpt lat="50.43731" lon="3.50549">
        <ele>24</ele>
        <time>2021-09-03T19:09:13.000Z</time>
      </trkpt>
      <trkpt lat="50.43724" lon="3.50559">
        <ele>24</ele>
        <time>2021-09-03T19:09:15.000Z</time>
      </trkpt>
      <trkpt lat="50.43717" lon="3.50571">
        <ele>24</ele>
        <time>2021-09-03T19:09:17.000Z</time>
      </trkpt>
      <trkpt lat="50.43714" lon="3.50578">
        <ele>24</ele>
        <time>2021-09-03T19:09:18.000Z</time>
      </trkpt>
      <trkpt lat="50.43708" lon="3.50591">
        <ele>23.9</ele>
        <time>2021-09-03T19:09:20.000Z</time>
      </trkpt>
      <trkpt lat="50.43697" lon="3.50605">
        <ele>23.3</ele>
        <time>2021-09-03T19:09:23.000Z</time>
      </trkpt>
      <trkpt lat="50.43693" lon="3.5061">
        <ele>23</ele>
        <time>2021-09-03T19:09:24.000Z</time>
      </trkpt>
      <trkpt lat="50.43687" lon="3.50622">
        <ele>23</ele>
        <time>2021-09-03T19:09:26.000Z</time>
      </trkpt>
      <trkpt lat="50.43686" lon="3.50629">
        <ele>23</ele>
        <time>2021-09-03T19:09:27.000Z</time>
      </trkpt>
      <trkpt lat="50.43688" lon="3.50645">
        <ele>23</ele>
        <time>2021-09-03T19:09:29.000Z</time>
      </trkpt>
      <trkpt lat="50.43693" lon="3.50658">
        <ele>23</ele>
        <time>2021-09-03T19:09:31.000Z</time>
      </trkpt>
      <trkpt lat="50.43699" lon="3.50675">
        <ele>23</ele>
        <time>2021-09-03T19:09:34.000Z</time>
      </trkpt>
      <trkpt lat="50.43701" lon="3.50681">
        <ele>23</ele>
        <time>2021-09-03T19:09:35.000Z</time>
      </trkpt>
      <trkpt lat="50.43706" lon="3.50695">
        <ele>23</ele>
        <time>2021-09-03T19:09:37.000Z</time>
      </trkpt>
      <trkpt lat="50.43708" lon="3.50703">
        <ele>23</ele>
        <time>2021-09-03T19:09:38.000Z</time>
      </trkpt>
      <trkpt lat="50.43713" lon="3.50716">
        <ele>23</ele>
        <time>2021-09-03T19:09:40.000Z</time>
      </trkpt>
      <trkpt lat="50.43716" lon="3.50722">
        <ele>23</ele>
        <time>2021-09-03T19:09:41.000Z</time>
      </trkpt>
      <trkpt lat="50.43719" lon="3.50729">
        <ele>23</ele>
        <time>2021-09-03T19:09:41.212Z</time>
      </trkpt>
      <trkpt lat="50.43724" lon="3.5074">
        <ele>23</ele>
        <time>2021-09-03T19:09:44.000Z</time>
      </trkpt>
      <trkpt lat="50.43727" lon="3.50751">
        <ele>23</ele>
        <time>2021-09-03T19:09:46.000Z</time>
      </trkpt>
      <trkpt lat="50.4373" lon="3.50758">
        <ele>23.1</ele>
        <time>2021-09-03T19:09:46.229Z</time>
      </trkpt>
      <trkpt lat="50.43734" lon="3.50769">
        <ele>23.3</ele>
        <time>2021-09-03T19:09:49.000Z</time>
      </trkpt>
      <trkpt lat="50.43738" lon="3.5078">
        <ele>23.6</ele>
        <time>2021-09-03T19:09:51.000Z</time>
      </trkpt>
      <trkpt lat="50.43742" lon="3.50791">
        <ele>23.8</ele>
        <time>2021-09-03T19:09:53.000Z</time>
      </trkpt>
      <trkpt lat="50.43746" lon="3.50801">
        <ele>24</ele>
        <time>2021-09-03T19:09:55.000Z</time>
      </trkpt>
      <trkpt lat="50.4375" lon="3.5081">
        <ele>24</ele>
        <time>2021-09-03T19:09:57.000Z</time>
      </trkpt>
      <trkpt lat="50.43754" lon="3.50821">
        <ele>24</ele>
        <time>2021-09-03T19:09:59.000Z</time>
      </trkpt>
      <trkpt lat="50.4376" lon="3.50835">
        <ele>24.1</ele>
        <time>2021-09-03T19:10:02.000Z</time>
      </trkpt>
      <trkpt lat="50.43766" lon="3.50849">
        <ele>24.6</ele>
        <time>2021-09-03T19:10:05.000Z</time>
      </trkpt>
      <trkpt lat="50.43769" lon="3.50856">
        <ele>24.8</ele>
        <time>2021-09-03T19:10:05.542Z</time>
      </trkpt>
      <trkpt lat="50.43772" lon="3.50864">
        <ele>25</ele>
        <time>2021-09-03T19:10:08.000Z</time>
      </trkpt>
      <trkpt lat="50.43776" lon="3.50874">
        <ele>25</ele>
        <time>2021-09-03T19:10:10.000Z</time>
      </trkpt>
      <trkpt lat="50.43781" lon="3.50889">
        <ele>25</ele>
        <time>2021-09-03T19:10:13.000Z</time>
      </trkpt>
      <trkpt lat="50.43784" lon="3.50901">
        <ele>25</ele>
        <time>2021-09-03T19:10:15.000Z</time>
      </trkpt>
      <trkpt lat="50.43789" lon="3.50914">
        <ele>25</ele>
        <time>2021-09-03T19:10:18.000Z</time>
      </trkpt>
      <trkpt lat="50.43793" lon="3.50923">
        <ele>25.1</ele>
        <time>2021-09-03T19:10:20.000Z</time>
      </trkpt>
      <trkpt lat="50.43796" lon="3.5093">
        <ele>25.2</ele>
        <time>2021-09-03T19:10:20.888Z</time>
      </trkpt>
      <trkpt lat="50.43801" lon="3.5094">
        <ele>25.1</ele>
        <time>2021-09-03T19:10:24.000Z</time>
      </trkpt>
      <trkpt lat="50.43807" lon="3.50953">
        <ele>25.3</ele>
        <time>2021-09-03T19:10:27.000Z</time>
      </trkpt>
      <trkpt lat="50.4381" lon="3.5096">
        <ele>25.5</ele>
        <time>2021-09-03T19:10:28.000Z</time>
      </trkpt>
      <trkpt lat="50.43813" lon="3.50969">
        <ele>25.6</ele>
        <time>2021-09-03T19:10:30.000Z</time>
      </trkpt>
      <trkpt lat="50.43817" lon="3.50978">
        <ele>25.6</ele>
        <time>2021-09-03T19:10:32.000Z</time>
      </trkpt>
      <trkpt lat="50.4382" lon="3.50987">
        <ele>25.5</ele>
        <time>2021-09-03T19:10:34.000Z</time>
      </trkpt>
      <trkpt lat="50.43824" lon="3.50997">
        <ele>25.3</ele>
        <time>2021-09-03T19:10:35.049Z</time>
      </trkpt>
      <trkpt lat="50.43828" lon="3.5101">
        <ele>25.6</ele>
        <time>2021-09-03T19:10:37.688Z</time>
      </trkpt>
      <trkpt lat="50.43832" lon="3.51023">
        <ele>25.9</ele>
        <time>2021-09-03T19:10:41.000Z</time>
      </trkpt>
      <trkpt lat="50.43836" lon="3.51032">
        <ele>26.1</ele>
        <time>2021-09-03T19:10:43.000Z</time>
      </trkpt>
      <trkpt lat="50.43839" lon="3.5104">
        <ele>26.4</ele>
        <time>2021-09-03T19:10:45.000Z</time>
      </trkpt>
      <trkpt lat="50.43845" lon="3.51053">
        <ele>26.5</ele>
        <time>2021-09-03T19:10:48.000Z</time>
      </trkpt>
      <trkpt lat="50.43849" lon="3.51062">
        <ele>26.7</ele>
        <time>2021-09-03T19:10:50.000Z</time>
      </trkpt>
      <trkpt lat="50.43853" lon="3.51077">
        <ele>27.1</ele>
        <time>2021-09-03T19:10:53.000Z</time>
      </trkpt>
      <trkpt lat="50.43856" lon="3.51084">
        <ele>27.2</ele>
        <time>2021-09-03T19:10:53.981Z</time>
      </trkpt>
      <trkpt lat="50.43859" lon="3.51091">
        <ele>27.3</ele>
        <time>2021-09-03T19:10:57.000Z</time>
      </trkpt>
      <trkpt lat="50.43863" lon="3.511">
        <ele>27.5</ele>
        <time>2021-09-03T19:10:59.000Z</time>
      </trkpt>
      <trkpt lat="50.43868" lon="3.51111">
        <ele>27.7</ele>
        <time>2021-09-03T19:11:02.000Z</time>
      </trkpt>
      <trkpt lat="50.43873" lon="3.51123">
        <ele>27.8</ele>
        <time>2021-09-03T19:11:05.000Z</time>
      </trkpt>
      <trkpt lat="50.43878" lon="3.51132">
        <ele>27.8</ele>
        <time>2021-09-03T19:11:07.000Z</time>
      </trkpt>
      <trkpt lat="50.43883" lon="3.51145">
        <ele>28</ele>
        <time>2021-09-03T19:11:10.000Z</time>
      </trkpt>
      <trkpt lat="50.43888" lon="3.51156">
        <ele>28</ele>
        <time>2021-09-03T19:11:13.000Z</time>
      </trkpt>
      <trkpt lat="50.4389" lon="3.51163">
        <ele>28</ele>
        <time>2021-09-03T19:11:15.000Z</time>
      </trkpt>
      <trkpt lat="50.43894" lon="3.51168">
        <ele>28</ele>
        <time>2021-09-03T19:11:17.000Z</time>
      </trkpt>
      <trkpt lat="50.43896" lon="3.51176">
        <ele>28.3</ele>
        <time>2021-09-03T19:11:19.000Z</time>
      </trkpt>
      <trkpt lat="50.43899" lon="3.51184">
        <ele>28.6</ele>
        <time>2021-09-03T19:11:22.000Z</time>
      </trkpt>
      <trkpt lat="50.43903" lon="3.51193">
        <ele>28.9</ele>
        <time>2021-09-03T19:11:25.000Z</time>
      </trkpt>
      <trkpt lat="50.43906" lon="3.51198">
        <ele>29.1</ele>
        <time>2021-09-03T19:11:27.000Z</time>
      </trkpt>
      <trkpt lat="50.43909" lon="3.51207">
        <ele>29.5</ele>
        <time>2021-09-03T19:11:30.000Z</time>
      </trkpt>
      <trkpt lat="50.43912" lon="3.51216">
        <ele>29.8</ele>
        <time>2021-09-03T19:11:33.000Z</time>
      </trkpt>
      <trkpt lat="50.43916" lon="3.51227">
        <ele>30</ele>
        <time>2021-09-03T19:11:37.000Z</time>
      </trkpt>
      <trkpt lat="50.4392" lon="3.51238">
        <ele>29.9</ele>
        <time>2021-09-03T19:11:41.000Z</time>
      </trkpt>
      <trkpt lat="50.43924" lon="3.51246">
        <ele>30</ele>
        <time>2021-09-03T19:11:44.000Z</time>
      </trkpt>
      <trkpt lat="50.43926" lon="3.51256">
        <ele>30.1</ele>
        <time>2021-09-03T19:11:47.000Z</time>
      </trkpt>
      <trkpt lat="50.43928" lon="3.51263">
        <ele>30.3</ele>
        <time>2021-09-03T19:11:49.000Z</time>
      </trkpt>
      <trkpt lat="50.43933" lon="3.51274">
        <ele>30.4</ele>
        <time>2021-09-03T19:11:52.000Z</time>
      </trkpt>
      <trkpt lat="50.43937" lon="3.51287">
        <ele>30.5</ele>
        <time>2021-09-03T19:11:55.000Z</time>
      </trkpt>
      <trkpt lat="50.43943" lon="3.51299">
        <ele>30.8</ele>
        <time>2021-09-03T19:11:58.000Z</time>
      </trkpt>
      <trkpt lat="50.43948" lon="3.51311">
        <ele>30.9</ele>
        <time>2021-09-03T19:12:01.000Z</time>
      </trkpt>
      <trkpt lat="50.43951" lon="3.5132">
        <ele>30.9</ele>
        <time>2021-09-03T19:12:03.000Z</time>
      </trkpt>
      <trkpt lat="50.43955" lon="3.5133">
        <ele>31</ele>
        <time>2021-09-03T19:12:05.000Z</time>
      </trkpt>
      <trkpt lat="50.43958" lon="3.51339">
        <ele>31.1</ele>
        <time>2021-09-03T19:12:05.667Z</time>
      </trkpt>
      <trkpt lat="50.43963" lon="3.5135">
        <ele>31.2</ele>
        <time>2021-09-03T19:12:09.000Z</time>
      </trkpt>
      <trkpt lat="50.43969" lon="3.51365">
        <ele>31.1</ele>
        <time>2021-09-03T19:12:10.833Z</time>
      </trkpt>
      <trkpt lat="50.43972" lon="3.51372">
        <ele>31</ele>
        <time>2021-09-03T19:12:13.000Z</time>
      </trkpt>
      <trkpt lat="50.43975" lon="3.51381">
        <ele>30.9</ele>
        <time>2021-09-03T19:12:13.646Z</time>
      </trkpt>
      <trkpt lat="50.43979" lon="3.51394">
        <ele>30.9</ele>
        <time>2021-09-03T19:12:16.000Z</time>
      </trkpt>
      <trkpt lat="50.43981" lon="3.51401">
        <ele>31.1</ele>
        <time>2021-09-03T19:12:17.000Z</time>
      </trkpt>
      <trkpt lat="50.43987" lon="3.51415">
        <ele>31.4</ele>
        <time>2021-09-03T19:12:19.000Z</time>
      </trkpt>
      <trkpt lat="50.43991" lon="3.51422">
        <ele>31.3</ele>
        <time>2021-09-03T19:12:20.000Z</time>
      </trkpt>
      <trkpt lat="50.43997" lon="3.51437">
        <ele>31.1</ele>
        <time>2021-09-03T19:12:22.000Z</time>
      </trkpt>
      <trkpt lat="50.44004" lon="3.51454">
        <ele>30.9</ele>
        <time>2021-09-03T19:12:24.000Z</time>
      </trkpt>
      <trkpt lat="50.44008" lon="3.51462">
        <ele>30.7</ele>
        <time>2021-09-03T19:12:25.000Z</time>
      </trkpt>
      <trkpt lat="50.44014" lon="3.51477">
        <ele>30.5</ele>
        <time>2021-09-03T19:12:27.000Z</time>
      </trkpt>
      <trkpt lat="50.44023" lon="3.51494">
        <ele>30.2</ele>
        <time>2021-09-03T19:12:29.000Z</time>
      </trkpt>
      <trkpt lat="50.44026" lon="3.51502">
        <ele>30.1</ele>
        <time>2021-09-03T19:12:30.000Z</time>
      </trkpt>
      <trkpt lat="50.44029" lon="3.5151">
        <ele>30.3</ele>
        <time>2021-09-03T19:12:31.000Z</time>
      </trkpt>
      <trkpt lat="50.44035" lon="3.51525">
        <ele>30.4</ele>
        <time>2021-09-03T19:12:33.000Z</time>
      </trkpt>
      <trkpt lat="50.44042" lon="3.51541">
        <ele>30.2</ele>
        <time>2021-09-03T19:12:35.000Z</time>
      </trkpt>
      <trkpt lat="50.44045" lon="3.51549">
        <ele>30.2</ele>
        <time>2021-09-03T19:12:36.000Z</time>
      </trkpt>
      <trkpt lat="50.4405" lon="3.51564">
        <ele>30.2</ele>
        <time>2021-09-03T19:12:38.000Z</time>
      </trkpt>
      <trkpt lat="50.44053" lon="3.51571">
        <ele>30.1</ele>
        <time>2021-09-03T19:12:39.000Z</time>
      </trkpt>
      <trkpt lat="50.44058" lon="3.51585">
        <ele>30</ele>
        <time>2021-09-03T19:12:41.000Z</time>
      </trkpt>
      <trkpt lat="50.44061" lon="3.51592">
        <ele>30</ele>
        <time>2021-09-03T19:12:42.000Z</time>
      </trkpt>
      <trkpt lat="50.44064" lon="3.51599">
        <ele>30</ele>
        <time>2021-09-03T19:12:43.000Z</time>
      </trkpt>
      <trkpt lat="50.44067" lon="3.51606">
        <ele>30</ele>
        <time>2021-09-03T19:12:44.000Z</time>
      </trkpt>
      <trkpt lat="50.4407" lon="3.51614">
        <ele>30</ele>
        <time>2021-09-03T19:12:45.000Z</time>
      </trkpt>
      <trkpt lat="50.44073" lon="3.51621">
        <ele>30</ele>
        <time>2021-09-03T19:12:46.000Z</time>
      </trkpt>
      <trkpt lat="50.44078" lon="3.51637">
        <ele>30</ele>
        <time>2021-09-03T19:12:48.000Z</time>
      </trkpt>
      <trkpt lat="50.44081" lon="3.51645">
        <ele>30</ele>
        <time>2021-09-03T19:12:49.000Z</time>
      </trkpt>
      <trkpt lat="50.44085" lon="3.51653">
        <ele>29.9</ele>
        <time>2021-09-03T19:12:50.000Z</time>
      </trkpt>
      <trkpt lat="50.44091" lon="3.51667">
        <ele>29.7</ele>
        <time>2021-09-03T19:12:52.000Z</time>
      </trkpt>
      <trkpt lat="50.44095" lon="3.51675">
        <ele>29.4</ele>
        <time>2021-09-03T19:12:53.000Z</time>
      </trkpt>
      <trkpt lat="50.44102" lon="3.5169">
        <ele>29.1</ele>
        <time>2021-09-03T19:12:55.000Z</time>
      </trkpt>
      <trkpt lat="50.44108" lon="3.51706">
        <ele>29</ele>
        <time>2021-09-03T19:12:57.000Z</time>
      </trkpt>
      <trkpt lat="50.44113" lon="3.51723">
        <ele>28.9</ele>
        <time>2021-09-03T19:12:59.000Z</time>
      </trkpt>
      <trkpt lat="50.44116" lon="3.51732">
        <ele>28.8</ele>
        <time>2021-09-03T19:13:00.000Z</time>
      </trkpt>
      <trkpt lat="50.44122" lon="3.51749">
        <ele>28.6</ele>
        <time>2021-09-03T19:13:02.000Z</time>
      </trkpt>
      <trkpt lat="50.44126" lon="3.51757">
        <ele>28.6</ele>
        <time>2021-09-03T19:13:03.000Z</time>
      </trkpt>
      <trkpt lat="50.44132" lon="3.51773">
        <ele>28.9</ele>
        <time>2021-09-03T19:13:05.000Z</time>
      </trkpt>
      <trkpt lat="50.44135" lon="3.51781">
        <ele>29</ele>
        <time>2021-09-03T19:13:06.000Z</time>
      </trkpt>
      <trkpt lat="50.44141" lon="3.51798">
        <ele>28.9</ele>
        <time>2021-09-03T19:13:08.000Z</time>
      </trkpt>
      <trkpt lat="50.44148" lon="3.51814">
        <ele>28.7</ele>
        <time>2021-09-03T19:13:10.000Z</time>
      </trkpt>
      <trkpt lat="50.44153" lon="3.51828">
        <ele>28.5</ele>
        <time>2021-09-03T19:13:12.000Z</time>
      </trkpt>
      <trkpt lat="50.44157" lon="3.51836">
        <ele>28.4</ele>
        <time>2021-09-03T19:13:13.000Z</time>
      </trkpt>
      <trkpt lat="50.44163" lon="3.5185">
        <ele>28.7</ele>
        <time>2021-09-03T19:13:15.000Z</time>
      </trkpt>
      <trkpt lat="50.44169" lon="3.51865">
        <ele>28.8</ele>
        <time>2021-09-03T19:13:17.000Z</time>
      </trkpt>
      <trkpt lat="50.44172" lon="3.51872">
        <ele>28.7</ele>
        <time>2021-09-03T19:13:18.000Z</time>
      </trkpt>
      <trkpt lat="50.44177" lon="3.51886">
        <ele>28.6</ele>
        <time>2021-09-03T19:13:20.000Z</time>
      </trkpt>
      <trkpt lat="50.44183" lon="3.519">
        <ele>28.4</ele>
        <time>2021-09-03T19:13:22.000Z</time>
      </trkpt>
      <trkpt lat="50.44188" lon="3.51914">
        <ele>28.2</ele>
        <time>2021-09-03T19:13:24.000Z</time>
      </trkpt>
      <trkpt lat="50.4419" lon="3.51921">
        <ele>28.2</ele>
        <time>2021-09-03T19:13:25.000Z</time>
      </trkpt>
      <trkpt lat="50.44195" lon="3.51934">
        <ele>28</ele>
        <time>2021-09-03T19:13:27.000Z</time>
      </trkpt>
      <trkpt lat="50.44201" lon="3.51943">
        <ele>27.5</ele>
        <time>2021-09-03T19:13:29.000Z</time>
      </trkpt>
      <trkpt lat="50.4421" lon="3.51944">
        <ele>26.9</ele>
        <time>2021-09-03T19:13:31.000Z</time>
      </trkpt>
      <trkpt lat="50.44214" lon="3.51939">
        <ele>26.6</ele>
        <time>2021-09-03T19:13:32.000Z</time>
      </trkpt>
      <trkpt lat="50.44218" lon="3.51933">
        <ele>26.3</ele>
        <time>2021-09-03T19:13:33.000Z</time>
      </trkpt>
      <trkpt lat="50.44228" lon="3.51921">
        <ele>25.8</ele>
        <time>2021-09-03T19:13:35.000Z</time>
      </trkpt>
      <trkpt lat="50.44243" lon="3.51916">
        <ele>25.2</ele>
        <time>2021-09-03T19:13:37.000Z</time>
      </trkpt>
      <trkpt lat="50.44251" lon="3.51916">
        <ele>24.9</ele>
        <time>2021-09-03T19:13:38.000Z</time>
      </trkpt>
      <trkpt lat="50.44267" lon="3.51925">
        <ele>23.8</ele>
        <time>2021-09-03T19:13:40.000Z</time>
      </trkpt>
      <trkpt lat="50.44282" lon="3.51935">
        <ele>22.8</ele>
        <time>2021-09-03T19:13:42.000Z</time>
      </trkpt>
      <trkpt lat="50.44297" lon="3.51946">
        <ele>22.4</ele>
        <time>2021-09-03T19:13:44.000Z</time>
      </trkpt>
      <trkpt lat="50.44305" lon="3.51952">
        <ele>22.3</ele>
        <time>2021-09-03T19:13:45.000Z</time>
      </trkpt>
      <trkpt lat="50.44321" lon="3.51964">
        <ele>22.1</ele>
        <time>2021-09-03T19:13:47.000Z</time>
      </trkpt>
      <trkpt lat="50.44329" lon="3.51971">
        <ele>22.1</ele>
        <time>2021-09-03T19:13:48.000Z</time>
      </trkpt>
      <trkpt lat="50.44337" lon="3.51977">
        <ele>22</ele>
        <time>2021-09-03T19:13:49.000Z</time>
      </trkpt>
      <trkpt lat="50.44345" lon="3.51983">
        <ele>22</ele>
        <time>2021-09-03T19:13:50.000Z</time>
      </trkpt>
      <trkpt lat="50.44361" lon="3.51995">
        <ele>21.8</ele>
        <time>2021-09-03T19:13:52.000Z</time>
      </trkpt>
      <trkpt lat="50.44369" lon="3.52001">
        <ele>22</ele>
        <time>2021-09-03T19:13:53.000Z</time>
      </trkpt>
      <trkpt lat="50.44376" lon="3.52007">
        <ele>22</ele>
        <time>2021-09-03T19:13:54.000Z</time>
      </trkpt>
      <trkpt lat="50.44392" lon="3.52019">
        <ele>21.9</ele>
        <time>2021-09-03T19:13:56.000Z</time>
      </trkpt>
      <trkpt lat="50.44405" lon="3.52031">
        <ele>21.5</ele>
        <time>2021-09-03T19:13:58.000Z</time>
      </trkpt>
      <trkpt lat="50.44418" lon="3.52041">
        <ele>21.5</ele>
        <time>2021-09-03T19:14:00.000Z</time>
      </trkpt>
      <trkpt lat="50.44425" lon="3.52046">
        <ele>21.7</ele>
        <time>2021-09-03T19:14:01.000Z</time>
      </trkpt>
      <trkpt lat="50.44437" lon="3.52056">
        <ele>22</ele>
        <time>2021-09-03T19:14:03.000Z</time>
      </trkpt>
      <trkpt lat="50.44443" lon="3.5206">
        <ele>22</ele>
        <time>2021-09-03T19:14:04.000Z</time>
      </trkpt>
      <trkpt lat="50.44456" lon="3.52068">
        <ele>21.6</ele>
        <time>2021-09-03T19:14:06.000Z</time>
      </trkpt>
      <trkpt lat="50.44469" lon="3.52077">
        <ele>21.1</ele>
        <time>2021-09-03T19:14:08.000Z</time>
      </trkpt>
      <trkpt lat="50.44474" lon="3.52081">
        <ele>21.1</ele>
        <time>2021-09-03T19:14:09.000Z</time>
      </trkpt>
      <trkpt lat="50.4448" lon="3.52085">
        <ele>21.3</ele>
        <time>2021-09-03T19:14:10.000Z</time>
      </trkpt>
      <trkpt lat="50.4449" lon="3.52094">
        <ele>21.4</ele>
        <time>2021-09-03T19:14:12.000Z</time>
      </trkpt>
      <trkpt lat="50.44495" lon="3.52098">
        <ele>21.4</ele>
        <time>2021-09-03T19:14:13.000Z</time>
      </trkpt>
      <trkpt lat="50.44506" lon="3.52104">
        <ele>21.4</ele>
        <time>2021-09-03T19:14:15.000Z</time>
      </trkpt>
      <trkpt lat="50.44515" lon="3.52111">
        <ele>21.5</ele>
        <time>2021-09-03T19:14:17.000Z</time>
      </trkpt>
      <trkpt lat="50.4452" lon="3.52114">
        <ele>21.7</ele>
        <time>2021-09-03T19:14:18.000Z</time>
      </trkpt>
      <trkpt lat="50.44524" lon="3.52118">
        <ele>21.9</ele>
        <time>2021-09-03T19:14:19.000Z</time>
      </trkpt>
      <trkpt lat="50.44533" lon="3.52126">
        <ele>21.9</ele>
        <time>2021-09-03T19:14:21.000Z</time>
      </trkpt>
      <trkpt lat="50.44538" lon="3.52129">
        <ele>21.9</ele>
        <time>2021-09-03T19:14:22.000Z</time>
      </trkpt>
      <trkpt lat="50.44547" lon="3.52136">
        <ele>21.9</ele>
        <time>2021-09-03T19:14:24.000Z</time>
      </trkpt>
      <trkpt lat="50.44552" lon="3.52139">
        <ele>22</ele>
        <time>2021-09-03T19:14:25.000Z</time>
      </trkpt>
      <trkpt lat="50.44557" lon="3.52141">
        <ele>21.9</ele>
        <time>2021-09-03T19:14:26.000Z</time>
      </trkpt>
      <trkpt lat="50.44562" lon="3.52144">
        <ele>21.8</ele>
        <time>2021-09-03T19:14:27.000Z</time>
      </trkpt>
      <trkpt lat="50.44567" lon="3.52148">
        <ele>21.6</ele>
        <time>2021-09-03T19:14:28.000Z</time>
      </trkpt>
      <trkpt lat="50.44577" lon="3.52156">
        <ele>21.2</ele>
        <time>2021-09-03T19:14:30.000Z</time>
      </trkpt>
      <trkpt lat="50.44588" lon="3.52163">
        <ele>21</ele>
        <time>2021-09-03T19:14:32.000Z</time>
      </trkpt>
      <trkpt lat="50.44593" lon="3.52166">
        <ele>21</ele>
        <time>2021-09-03T19:14:33.000Z</time>
      </trkpt>
      <trkpt lat="50.44599" lon="3.52169">
        <ele>21</ele>
        <time>2021-09-03T19:14:34.000Z</time>
      </trkpt>
      <trkpt lat="50.44604" lon="3.52173">
        <ele>21</ele>
        <time>2021-09-03T19:14:35.000Z</time>
      </trkpt>
      <trkpt lat="50.44612" lon="3.52181">
        <ele>21</ele>
        <time>2021-09-03T19:14:37.000Z</time>
      </trkpt>
      <trkpt lat="50.44617" lon="3.52185">
        <ele>20.9</ele>
        <time>2021-09-03T19:14:38.000Z</time>
      </trkpt>
      <trkpt lat="50.44622" lon="3.52189">
        <ele>20.9</ele>
        <time>2021-09-03T19:14:39.000Z</time>
      </trkpt>
      <trkpt lat="50.44627" lon="3.52192">
        <ele>20.9</ele>
        <time>2021-09-03T19:14:40.000Z</time>
      </trkpt>
      <trkpt lat="50.44632" lon="3.52195">
        <ele>21</ele>
        <time>2021-09-03T19:14:41.000Z</time>
      </trkpt>
      <trkpt lat="50.44642" lon="3.52202">
        <ele>20.9</ele>
        <time>2021-09-03T19:14:43.000Z</time>
      </trkpt>
      <trkpt lat="50.44647" lon="3.52206">
        <ele>20.7</ele>
        <time>2021-09-03T19:14:44.000Z</time>
      </trkpt>
      <trkpt lat="50.44652" lon="3.5221">
        <ele>20.5</ele>
        <time>2021-09-03T19:14:45.000Z</time>
      </trkpt>
      <trkpt lat="50.44657" lon="3.52213">
        <ele>20.3</ele>
        <time>2021-09-03T19:14:46.000Z</time>
      </trkpt>
      <trkpt lat="50.44667" lon="3.5222">
        <ele>20</ele>
        <time>2021-09-03T19:14:48.000Z</time>
      </trkpt>
      <trkpt lat="50.44672" lon="3.52223">
        <ele>20</ele>
        <time>2021-09-03T19:14:49.000Z</time>
      </trkpt>
      <trkpt lat="50.44677" lon="3.52227">
        <ele>20.1</ele>
        <time>2021-09-03T19:14:50.000Z</time>
      </trkpt>
      <trkpt lat="50.44687" lon="3.52234">
        <ele>20.1</ele>
        <time>2021-09-03T19:14:52.000Z</time>
      </trkpt>
      <trkpt lat="50.44691" lon="3.52238">
        <ele>20.1</ele>
        <time>2021-09-03T19:14:53.000Z</time>
      </trkpt>
      <trkpt lat="50.44702" lon="3.52245">
        <ele>20</ele>
        <time>2021-09-03T19:14:55.000Z</time>
      </trkpt>
      <trkpt lat="50.44706" lon="3.52248">
        <ele>20</ele>
        <time>2021-09-03T19:14:56.000Z</time>
      </trkpt>
      <trkpt lat="50.44716" lon="3.52254">
        <ele>20</ele>
        <time>2021-09-03T19:14:58.000Z</time>
      </trkpt>
      <trkpt lat="50.4472" lon="3.52257">
        <ele>20</ele>
        <time>2021-09-03T19:14:59.000Z</time>
      </trkpt>
      <trkpt lat="50.44728" lon="3.52263">
        <ele>20</ele>
        <time>2021-09-03T19:15:01.000Z</time>
      </trkpt>
      <trkpt lat="50.4474" lon="3.52272">
        <ele>20</ele>
        <time>2021-09-03T19:15:04.000Z</time>
      </trkpt>
      <trkpt lat="50.44744" lon="3.52275">
        <ele>20</ele>
        <time>2021-09-03T19:15:05.000Z</time>
      </trkpt>
      <trkpt lat="50.44749" lon="3.52278">
        <ele>20</ele>
        <time>2021-09-03T19:15:06.000Z</time>
      </trkpt>
      <trkpt lat="50.44757" lon="3.52285">
        <ele>20</ele>
        <time>2021-09-03T19:15:08.000Z</time>
      </trkpt>
      <trkpt lat="50.44762" lon="3.52287">
        <ele>20</ele>
        <time>2021-09-03T19:15:09.000Z</time>
      </trkpt>
      <trkpt lat="50.44777" lon="3.52297">
        <ele>20</ele>
        <time>2021-09-03T19:15:12.000Z</time>
      </trkpt>
      <trkpt lat="50.44781" lon="3.52302">
        <ele>20</ele>
        <time>2021-09-03T19:15:14.000Z</time>
      </trkpt>
      <trkpt lat="50.44792" lon="3.52313">
        <ele>20.1</ele>
        <time>2021-09-03T19:15:17.000Z</time>
      </trkpt>
      <trkpt lat="50.448" lon="3.5232">
        <ele>20.4</ele>
        <time>2021-09-03T19:15:19.000Z</time>
      </trkpt>
      <trkpt lat="50.44807" lon="3.52324">
        <ele>20.7</ele>
        <time>2021-09-03T19:15:21.000Z</time>
      </trkpt>
      <trkpt lat="50.44814" lon="3.52329">
        <ele>20.8</ele>
        <time>2021-09-03T19:15:22.429Z</time>
      </trkpt>
      <trkpt lat="50.44819" lon="3.52332">
        <ele>21</ele>
        <time>2021-09-03T19:15:24.000Z</time>
      </trkpt>
      <trkpt lat="50.44826" lon="3.52337">
        <ele>21</ele>
        <time>2021-09-03T19:15:26.000Z</time>
      </trkpt>
      <trkpt lat="50.44837" lon="3.52344">
        <ele>21</ele>
        <time>2021-09-03T19:15:29.000Z</time>
      </trkpt>
      <trkpt lat="50.44842" lon="3.52348">
        <ele>21</ele>
        <time>2021-09-03T19:15:30.000Z</time>
      </trkpt>
      <trkpt lat="50.44849" lon="3.52353">
        <ele>21</ele>
        <time>2021-09-03T19:15:32.000Z</time>
      </trkpt>
      <trkpt lat="50.44855" lon="3.52358">
        <ele>21</ele>
        <time>2021-09-03T19:15:34.000Z</time>
      </trkpt>
      <trkpt lat="50.44864" lon="3.52365">
        <ele>21.1</ele>
        <time>2021-09-03T19:15:36.252Z</time>
      </trkpt>
      <trkpt lat="50.44871" lon="3.52371">
        <ele>21.4</ele>
        <time>2021-09-03T19:15:39.000Z</time>
      </trkpt>
      <trkpt lat="50.44878" lon="3.52378">
        <ele>21.6</ele>
        <time>2021-09-03T19:15:41.000Z</time>
      </trkpt>
      <trkpt lat="50.44886" lon="3.52382">
        <ele>21.8</ele>
        <time>2021-09-03T19:15:41.872Z</time>
      </trkpt>
      <trkpt lat="50.44894" lon="3.52387">
        <ele>21.9</ele>
        <time>2021-09-03T19:15:44.000Z</time>
      </trkpt>
      <trkpt lat="50.449" lon="3.52391">
        <ele>22.1</ele>
        <time>2021-09-03T19:15:44.984Z</time>
      </trkpt>
      <trkpt lat="50.44905" lon="3.52398">
        <ele>22.3</ele>
        <time>2021-09-03T19:15:48.000Z</time>
      </trkpt>
      <trkpt lat="50.44909" lon="3.524">
        <ele>22.4</ele>
        <time>2021-09-03T19:15:49.000Z</time>
      </trkpt>
      <trkpt lat="50.44922" lon="3.52407">
        <ele>22.7</ele>
        <time>2021-09-03T19:15:52.000Z</time>
      </trkpt>
      <trkpt lat="50.44929" lon="3.52406">
        <ele>22.6</ele>
        <time>2021-09-03T19:15:54.000Z</time>
      </trkpt>
      <trkpt lat="50.4494" lon="3.524">
        <ele>22.4</ele>
        <time>2021-09-03T19:15:57.000Z</time>
      </trkpt>
      <trkpt lat="50.44947" lon="3.52385">
        <ele>21.9</ele>
        <time>2021-09-03T19:15:59.000Z</time>
      </trkpt>
      <trkpt lat="50.4495" lon="3.52378">
        <ele>21.6</ele>
        <time>2021-09-03T19:16:00.000Z</time>
      </trkpt>
      <trkpt lat="50.44953" lon="3.52372">
        <ele>21.4</ele>
        <time>2021-09-03T19:16:01.000Z</time>
      </trkpt>
      <trkpt lat="50.44956" lon="3.52366">
        <ele>21.2</ele>
        <time>2021-09-03T19:16:02.000Z</time>
      </trkpt>
      <trkpt lat="50.44959" lon="3.5236">
        <ele>21</ele>
        <time>2021-09-03T19:16:03.000Z</time>
      </trkpt>
      <trkpt lat="50.44965" lon="3.52347">
        <ele>20.5</ele>
        <time>2021-09-03T19:16:05.000Z</time>
      </trkpt>
      <trkpt lat="50.44969" lon="3.5234">
        <ele>20.2</ele>
        <time>2021-09-03T19:16:06.000Z</time>
      </trkpt>
      <trkpt lat="50.44976" lon="3.52325">
        <ele>20</ele>
        <time>2021-09-03T19:16:08.000Z</time>
      </trkpt>
      <trkpt lat="50.44979" lon="3.52317">
        <ele>20</ele>
        <time>2021-09-03T19:16:09.000Z</time>
      </trkpt>
      <trkpt lat="50.44989" lon="3.52309">
        <ele>20</ele>
        <time>2021-09-03T19:16:11.000Z</time>
      </trkpt>
      <trkpt lat="50.44999" lon="3.52314">
        <ele>20</ele>
        <time>2021-09-03T19:16:13.000Z</time>
      </trkpt>
      <trkpt lat="50.45008" lon="3.52324">
        <ele>20</ele>
        <time>2021-09-03T19:16:15.000Z</time>
      </trkpt>
      <trkpt lat="50.45012" lon="3.52329">
        <ele>20</ele>
        <time>2021-09-03T19:16:16.000Z</time>
      </trkpt>
      <trkpt lat="50.4502" lon="3.52338">
        <ele>20.2</ele>
        <time>2021-09-03T19:16:18.000Z</time>
      </trkpt>
      <trkpt lat="50.45025" lon="3.52342">
        <ele>20.3</ele>
        <time>2021-09-03T19:16:19.000Z</time>
      </trkpt>
      <trkpt lat="50.45034" lon="3.52353">
        <ele>20.7</ele>
        <time>2021-09-03T19:16:21.000Z</time>
      </trkpt>
      <trkpt lat="50.45038" lon="3.52359">
        <ele>20.9</ele>
        <time>2021-09-03T19:16:22.000Z</time>
      </trkpt>
      <trkpt lat="50.45046" lon="3.52367">
        <ele>21.2</ele>
        <time>2021-09-03T19:16:24.000Z</time>
      </trkpt>
      <trkpt lat="50.45051" lon="3.52371">
        <ele>21.4</ele>
        <time>2021-09-03T19:16:25.000Z</time>
      </trkpt>
      <trkpt lat="50.45059" lon="3.52378">
        <ele>21.5</ele>
        <time>2021-09-03T19:16:27.000Z</time>
      </trkpt>
      <trkpt lat="50.45067" lon="3.52388">
        <ele>21.6</ele>
        <time>2021-09-03T19:16:29.000Z</time>
      </trkpt>
      <trkpt lat="50.45071" lon="3.52394">
        <ele>21.6</ele>
        <time>2021-09-03T19:16:30.000Z</time>
      </trkpt>
      <trkpt lat="50.45077" lon="3.52402">
        <ele>21.7</ele>
        <time>2021-09-03T19:16:32.000Z</time>
      </trkpt>
      <trkpt lat="50.45086" lon="3.52411">
        <ele>21.7</ele>
        <time>2021-09-03T19:16:34.000Z</time>
      </trkpt>
      <trkpt lat="50.4509" lon="3.52417">
        <ele>21.8</ele>
        <time>2021-09-03T19:16:35.000Z</time>
      </trkpt>
      <trkpt lat="50.45094" lon="3.52421">
        <ele>21.8</ele>
        <time>2021-09-03T19:16:36.000Z</time>
      </trkpt>
      <trkpt lat="50.45099" lon="3.52426">
        <ele>21.8</ele>
        <time>2021-09-03T19:16:37.000Z</time>
      </trkpt>
      <trkpt lat="50.45103" lon="3.5243">
        <ele>21.8</ele>
        <time>2021-09-03T19:16:38.000Z</time>
      </trkpt>
      <trkpt lat="50.45107" lon="3.52433">
        <ele>21.7</ele>
        <time>2021-09-03T19:16:39.000Z</time>
      </trkpt>
      <trkpt lat="50.45112" lon="3.52437">
        <ele>21.7</ele>
        <time>2021-09-03T19:16:40.000Z</time>
      </trkpt>
      <trkpt lat="50.45115" lon="3.52442">
        <ele>21.8</ele>
        <time>2021-09-03T19:16:41.000Z</time>
      </trkpt>
      <trkpt lat="50.45121" lon="3.52455">
        <ele>22</ele>
        <time>2021-09-03T19:16:43.000Z</time>
      </trkpt>
      <trkpt lat="50.4512" lon="3.52463">
        <ele>22.3</ele>
        <time>2021-09-03T19:16:44.000Z</time>
      </trkpt>
      <trkpt lat="50.45117" lon="3.5247">
        <ele>22.7</ele>
        <time>2021-09-03T19:16:45.000Z</time>
      </trkpt>
      <trkpt lat="50.4511" lon="3.5248">
        <ele>23.3</ele>
        <time>2021-09-03T19:16:47.000Z</time>
      </trkpt>
      <trkpt lat="50.45107" lon="3.52485">
        <ele>23.5</ele>
        <time>2021-09-03T19:16:48.000Z</time>
      </trkpt>
      <trkpt lat="50.45101" lon="3.52493">
        <ele>23.8</ele>
        <time>2021-09-03T19:16:50.000Z</time>
      </trkpt>
      <trkpt lat="50.45097" lon="3.52503">
        <ele>24.1</ele>
        <time>2021-09-03T19:16:52.000Z</time>
      </trkpt>
      <trkpt lat="50.45091" lon="3.52514">
        <ele>24.5</ele>
        <time>2021-09-03T19:16:54.000Z</time>
      </trkpt>
      <trkpt lat="50.45087" lon="3.52522">
        <ele>24.8</ele>
        <time>2021-09-03T19:16:55.400Z</time>
      </trkpt>
      <trkpt lat="50.45084" lon="3.52535">
        <ele>25.3</ele>
        <time>2021-09-03T19:16:58.000Z</time>
      </trkpt>
      <trkpt lat="50.45077" lon="3.52552">
        <ele>26.1</ele>
        <time>2021-09-03T19:17:01.000Z</time>
      </trkpt>
      <trkpt lat="50.45072" lon="3.52565">
        <ele>26.6</ele>
        <time>2021-09-03T19:17:04.000Z</time>
      </trkpt>
      <trkpt lat="50.45063" lon="3.52575">
        <ele>26.9</ele>
        <time>2021-09-03T19:17:06.539Z</time>
      </trkpt>
      <trkpt lat="50.45054" lon="3.52583">
        <ele>27.1</ele>
        <time>2021-09-03T19:17:10.000Z</time>
      </trkpt>
      <trkpt lat="50.45047" lon="3.52585">
        <ele>27.3</ele>
        <time>2021-09-03T19:17:12.000Z</time>
      </trkpt>
      <trkpt lat="50.45039" lon="3.52589">
        <ele>27.7</ele>
        <time>2021-09-03T19:17:14.000Z</time>
      </trkpt>
      <trkpt lat="50.45032" lon="3.52593">
        <ele>27.9</ele>
        <time>2021-09-03T19:17:16.000Z</time>
      </trkpt>
      <trkpt lat="50.45025" lon="3.52597">
        <ele>28</ele>
        <time>2021-09-03T19:17:18.000Z</time>
      </trkpt>
      <trkpt lat="50.45019" lon="3.52603">
        <ele>28.2</ele>
        <time>2021-09-03T19:17:20.000Z</time>
      </trkpt>
      <trkpt lat="50.45012" lon="3.52609">
        <ele>28.5</ele>
        <time>2021-09-03T19:17:21.424Z</time>
      </trkpt>
      <trkpt lat="50.45006" lon="3.52613">
        <ele>28.8</ele>
        <time>2021-09-03T19:17:25.000Z</time>
      </trkpt>
    </trkseg>
  </trk>
</gpx>